[[{"header":{"parameterUnit":"m.s-1","parameterCategory":1,"la1":30.6,"la2":29.2853,"lo1":-89.7004,"lo2":-87.6739,"dy":0.0162,"dx":0.0183,"nx":112,"ny":82,"refTime":"2026-04-30T12:00:00:Z","depth":0,"parameterNumber":2,"parameterNumberName":"U-component_of_WINDS"},"data":[0.0,0.0,0.0,0.0,0.0,0.0,0.0,0.0,0.0,0.0,0.0,0.0,0.0,0.0,0.0,0.0,0.0,0.0,0.0,0.0,0.0,0.0,0.0,0.0,0.0,0.0,0.0,0.0,0.0,0.0,0.0,0.0,0.0,0.0,0.0,0.0,0.0,0.0,0.0,0.0,0.0,0.0,0.0,0.0,0.0,0.0,0.0,0.0,0.0,0.0,0.0,0.0,0.0,0.0,0.0,0.0,0.0,0.0,0.0,0.0,0.0,0.0,0.0,0.0,0.0,0.0,0.0,0.0,0.0,0.0,0.0,0.0,0.0,0.0,0.0,0.0,0.0,0.0,0.0,0.0,0.0,0.0,0.0,0.0,0.0,0.0,0.0,0.0,0.0,0.0,-4.1777,-4.4838,-4.9206,-5.0939,-4.8591,-4.8094,-4.5855,-4.0989,0.0,0.0,0.0,0.0,0.0,0.0,0.0,0.0,0.0,0.0,0.0,0.0,0.0,0.0,0.0,0.0,0.0,0.0,0.0,0.0,0.0,0.0,0.0,0.0,0.0,0.0,0.0,0.0,0.0,0.0,0.0,0.0,0.0,0.0,0.0,0.0,0.0,0.0,0.0,0.0,0.0,0.0,0.0,0.0,0.0,0.0,0.0,0.0,0.0,0.0,0.0,0.0,0.0,0.0,0.0,0.0,0.0,0.0,0.0,0.0,0.0,0.0,0.0,0.0,0.0,0.0,0.0,0.0,0.0,0.0,0.0,0.0,0.0,0.0,0.0,0.0,0.0,0.0,0.0,0.0,0.0,0.0,0.0,0.0,0.0,0.0,0.0,0.0,0.0,0.0,0.0,0.0,0.0,0.0,0.0,0.0,0.0,0.0,0.0,0.0,0.0,0.0,0.0,0.0,-4.177,-4.7167,-4.9646,-5.0479,-4.9391,-4.794,-4.5491,-4.1747,0.0,0.0,0.0,0.0,0.0,0.0,0.0,0.0,0.0,0.0,0.0,0.0,0.0,0.0,0.0,0.0,0.0,0.0,0.0,0.0,0.0,0.0,0.0,0.0,0.0,0.0,0.0,0.0,0.0,0.0,0.0,0.0,0.0,0.0,0.0,0.0,0.0,0.0,0.0,0.0,0.0,0.0,0.0,0.0,0.0,0.0,0.0,0.0,0.0,0.0,0.0,0.0,0.0,0.0,0.0,0.0,0.0,0.0,0.0,0.0,0.0,0.0,0.0,0.0,0.0,0.0,0.0,0.0,0.0,0.0,0.0,0.0,0.0,0.0,0.0,0.0,0.0,0.0,0.0,0.0,0.0,0.0,0.0,0.0,0.0,0.0,0.0,0.0,0.0,0.0,0.0,0.0,0.0,0.0,0.0,0.0,0.0,0.0,0.0,0.0,0.0,0.0,0.0,-4.052,-4.43,-4.7912,-4.935,-4.9517,-4.82,-4.6479,-4.3818,-3.9895,-3.7329,0.0,0.0,0.0,0.0,0.0,0.0,0.0,0.0,0.0,0.0,0.0,0.0,0.0,0.0,0.0,0.0,0.0,0.0,0.0,0.0,0.0,0.0,0.0,0.0,0.0,0.0,0.0,0.0,0.0,0.0,0.0,0.0,0.0,0.0,0.0,0.0,0.0,0.0,0.0,0.0,0.0,0.0,0.0,0.0,0.0,0.0,0.0,0.0,0.0,0.0,0.0,0.0,0.0,0.0,0.0,0.0,0.0,0.0,0.0,0.0,0.0,0.0,0.0,0.0,0.0,0.0,0.0,0.0,0.0,0.0,0.0,0.0,0.0,0.0,0.0,0.0,0.0,0.0,0.0,0.0,0.0,0.0,0.0,0.0,0.0,0.0,0.0,0.0,0.0,0.0,0.0,0.0,0.0,0.0,0.0,0.0,0.0,0.0,0.0,0.0,0.0,0.0,-4.2994,-4.6109,-4.7813,-4.8687,-4.8392,-4.6451,-4.4893,-4.2184,-3.7871,-3.6017,0.0,0.0,0.0,0.0,0.0,0.0,0.0,0.0,0.0,0.0,0.0,0.0,0.0,0.0,0.0,0.0,0.0,0.0,0.0,0.0,0.0,0.0,0.0,0.0,0.0,0.0,0.0,0.0,0.0,0.0,0.0,0.0,0.0,0.0,0.0,0.0,0.0,0.0,0.0,0.0,0.0,0.0,0.0,0.0,0.0,0.0,0.0,0.0,0.0,0.0,0.0,0.0,0.0,0.0,0.0,0.0,0.0,0.0,0.0,0.0,0.0,0.0,0.0,0.0,0.0,0.0,0.0,0.0,0.0,0.0,0.0,0.0,0.0,0.0,0.0,0.0,0.0,0.0,0.0,0.0,0.0,0.0,0.0,0.0,0.0,0.0,0.0,0.0,0.0,0.0,0.0,0.0,0.0,0.0,0.0,0.0,0.0,0.0,0.0,0.0,0.0,0.0,-4.2425,-4.5152,-4.6907,-4.7756,-4.7182,-4.4682,-4.3682,-4.133,-3.6976,-3.5119,0.0,0.0,0.0,0.0,0.0,0.0,0.0,0.0,0.0,0.0,0.0,0.0,0.0,0.0,0.0,0.0,0.0,0.0,0.0,0.0,0.0,0.0,0.0,0.0,0.0,0.0,0.0,0.0,0.0,0.0,0.0,0.0,0.0,0.0,0.0,0.0,0.0,0.0,0.0,0.0,0.0,0.0,0.0,0.0,0.0,0.0,0.0,0.0,0.0,0.0,0.0,0.0,0.0,0.0,0.0,0.0,0.0,0.0,0.0,0.0,0.0,0.0,0.0,0.0,0.0,0.0,0.0,0.0,0.0,0.0,0.0,0.0,0.0,0.0,0.0,0.0,0.0,0.0,0.0,0.0,0.0,0.0,0.0,0.0,0.0,0.0,0.0,0.0,0.0,0.0,0.0,0.0,0.0,0.0,0.0,0.0,0.0,0.0,0.0,0.0,0.0,0.0,-4.1703,-4.4862,-4.6058,-4.6408,-4.572,-4.372,-4.1316,-3.8312,-3.4534,0.0,0.0,0.0,0.0,0.0,0.0,0.0,0.0,0.0,0.0,0.0,0.0,0.0,0.0,0.0,0.0,0.0,0.0,0.0,0.0,0.0,0.0,0.0,0.0,0.0,0.0,0.0,0.0,0.0,0.0,0.0,0.0,0.0,0.0,0.0,0.0,0.0,0.0,0.0,0.0,0.0,0.0,0.0,0.0,0.0,0.0,0.0,0.0,0.0,0.0,0.0,0.0,0.0,0.0,0.0,0.0,0.0,0.0,0.0,0.0,0.0,0.0,0.0,0.0,0.0,0.0,0.0,0.0,0.0,0.0,0.0,0.0,0.0,0.0,0.0,0.0,0.0,0.0,0.0,0.0,0.0,0.0,0.0,0.0,0.0,0.0,0.0,0.0,0.0,0.0,0.0,0.0,0.0,0.0,0.0,0.0,0.0,0.0,0.0,0.0,0.0,0.0,-3.6535,-4.0584,-4.3628,-4.4785,-4.4856,-4.4124,-4.2412,-3.9642,-3.6531,-3.3108,0.0,0.0,0.0,0.0,0.0,0.0,0.0,0.0,0.0,0.0,0.0,0.0,0.0,0.0,0.0,0.0,0.0,0.0,0.0,0.0,0.0,0.0,0.0,0.0,0.0,0.0,0.0,0.0,0.0,0.0,0.0,0.0,0.0,0.0,0.0,0.0,0.0,0.0,0.0,0.0,0.0,0.0,0.0,0.0,0.0,0.0,0.0,0.0,0.0,0.0,0.0,0.0,0.0,0.0,0.0,0.0,0.0,0.0,0.0,0.0,0.0,0.0,0.0,0.0,0.0,0.0,0.0,0.0,0.0,0.0,0.0,0.0,0.0,0.0,0.0,0.0,0.0,0.0,0.0,0.0,0.0,0.0,0.0,0.0,0.0,0.0,0.0,0.0,0.0,0.0,0.0,0.0,0.0,0.0,0.0,0.0,0.0,0.0,0.0,0.0,0.0,0.0,-3.6439,-3.9058,-4.1256,-4.3006,-4.3123,-4.2374,-4.0631,-3.895,-3.6512,0.0,0.0,0.0,0.0,0.0,0.0,0.0,0.0,0.0,0.0,0.0,0.0,0.0,0.0,0.0,0.0,0.0,0.0,0.0,0.0,0.0,0.0,0.0,0.0,0.0,0.0,0.0,0.0,0.0,0.0,0.0,0.0,0.0,0.0,0.0,0.0,0.0,0.0,0.0,0.0,0.0,0.0,0.0,0.0,0.0,0.0,0.0,0.0,0.0,0.0,0.0,0.0,0.0,0.0,0.0,0.0,0.0,0.0,0.0,0.0,0.0,0.0,0.0,0.0,0.0,0.0,0.0,0.0,0.0,0.0,0.0,0.0,0.0,0.0,0.0,0.0,0.0,0.0,0.0,0.0,0.0,0.0,0.0,0.0,0.0,0.0,0.0,0.0,0.0,0.0,0.0,0.0,0.0,0.0,0.0,0.0,0.0,0.0,0.0,0.0,0.0,0.0,0.0,-3.4698,-3.8325,-4.1024,-4.2162,-4.2229,-4.1508,-3.9804,-3.8065,-3.5385,-3.1392,0.0,0.0,0.0,0.0,0.0,0.0,0.0,0.0,0.0,0.0,0.0,0.0,0.0,0.0,0.0,0.0,0.0,0.0,0.0,0.0,0.0,0.0,0.0,0.0,0.0,0.0,0.0,0.0,0.0,0.0,0.0,0.0,0.0,0.0,0.0,0.0,0.0,0.0,0.0,0.0,0.0,0.0,0.0,0.0,0.0,0.0,0.0,0.0,0.0,0.0,0.0,0.0,0.0,0.0,0.0,0.0,0.0,0.0,0.0,0.0,0.0,0.0,0.0,0.0,0.0,0.0,0.0,0.0,0.0,0.0,0.0,0.0,0.0,0.0,0.0,0.0,0.0,0.0,0.0,0.0,0.0,0.0,0.0,0.0,0.0,0.0,0.0,0.0,0.0,0.0,0.0,0.0,0.0,0.0,0.0,0.0,0.0,0.0,0.0,0.0,0.0,0.0,-3.2977,-3.6734,-3.9328,-3.9849,-4.0133,-3.9877,-3.8876,-3.7495,-3.5038,-3.1154,0.0,0.0,0.0,0.0,0.0,0.0,0.0,0.0,0.0,0.0,0.0,0.0,0.0,0.0,0.0,0.0,0.0,0.0,0.0,0.0,0.0,0.0,0.0,0.0,0.0,0.0,0.0,0.0,0.0,0.0,0.0,0.0,0.0,0.0,0.0,0.0,0.0,0.0,0.0,0.0,0.0,0.0,0.0,0.0,0.0,0.0,0.0,0.0,0.0,0.0,0.0,0.0,0.0,0.0,0.0,0.0,0.0,0.0,0.0,0.0,0.0,0.0,0.0,0.0,0.0,0.0,0.0,0.0,0.0,0.0,0.0,0.0,0.0,0.0,0.0,0.0,0.0,0.0,0.0,0.0,0.0,0.0,0.0,0.0,0.0,0.0,0.0,0.0,0.0,0.0,0.0,0.0,0.0,0.0,0.0,0.0,0.0,0.0,0.0,0.0,0.0,0.0,-3.1366,-3.4671,-3.6779,-3.6779,-3.7372,-3.7769,-3.7769,-3.7041,-3.5192,-3.191,0.0,0.0,0.0,0.0,0.0,0.0,0.0,0.0,0.0,0.0,0.0,0.0,0.0,0.0,0.0,0.0,0.0,0.0,0.0,0.0,0.0,0.0,0.0,0.0,0.0,0.0,0.0,0.0,0.0,0.0,0.0,0.0,0.0,0.0,0.0,0.0,0.0,0.0,0.0,0.0,0.0,0.0,0.0,0.0,0.0,0.0,0.0,0.0,0.0,0.0,0.0,0.0,0.0,0.0,0.0,0.0,0.0,0.0,0.0,0.0,-3.5408,0.0,0.0,0.0,0.0,0.0,0.0,0.0,0.0,0.0,0.0,0.0,0.0,0.0,0.0,0.0,0.0,0.0,0.0,0.0,0.0,0.0,0.0,0.0,0.0,0.0,0.0,0.0,0.0,0.0,0.0,0.0,0.0,0.0,0.0,0.0,0.0,0.0,0.0,0.0,0.0,0.0,-3.0617,-3.3796,-3.5885,-3.5885,-3.5978,-3.6035,-3.6035,-3.5867,-3.4596,-3.1872,-3.0063,0.0,0.0,0.0,0.0,0.0,0.0,0.0,0.0,0.0,0.0,0.0,0.0,0.0,0.0,0.0,0.0,0.0,0.0,0.0,0.0,0.0,0.0,0.0,0.0,0.0,0.0,0.0,0.0,0.0,0.0,0.0,0.0,0.0,0.0,0.0,0.0,0.0,0.0,0.0,0.0,0.0,0.0,0.0,0.0,0.0,0.0,0.0,0.0,0.0,0.0,0.0,0.0,0.0,0.0,0.0,0.0,0.0,0.0,0.0,0.0,-3.5814,0.0,0.0,0.0,0.0,0.0,0.0,0.0,0.0,0.0,0.0,0.0,0.0,0.0,0.0,0.0,0.0,0.0,0.0,0.0,0.0,0.0,0.0,0.0,0.0,0.0,0.0,0.0,0.0,0.0,0.0,0.0,0.0,0.0,0.0,0.0,0.0,0.0,0.0,0.0,0.0,-2.9186,-3.2299,-3.424,-3.3815,-3.4453,-3.4918,-3.4918,-3.4899,-3.3968,-3.1833,-3.0063,0.0,0.0,0.0,0.0,0.0,0.0,0.0,0.0,0.0,0.0,0.0,0.0,0.0,0.0,0.0,0.0,0.0,0.0,0.0,0.0,0.0,0.0,0.0,0.0,0.0,0.0,0.0,0.0,0.0,0.0,0.0,0.0,0.0,0.0,0.0,0.0,0.0,0.0,0.0,0.0,0.0,0.0,0.0,0.0,0.0,0.0,0.0,0.0,0.0,0.0,0.0,0.0,0.0,-4.1944,-4.2333,-4.2504,-4.1631,-4.1631,-4.2154,-3.9211,-3.7868,-3.7646,-3.6456,0.0,0.0,0.0,0.0,0.0,0.0,0.0,0.0,0.0,0.0,0.0,0.0,0.0,0.0,0.0,0.0,0.0,0.0,0.0,0.0,0.0,0.0,0.0,0.0,-3.1259,-3.065,0.0,0.0,0.0,0.0,0.0,0.0,0.0,0.0,0.0,0.0,0.0,0.0,-2.8115,-3.0946,-3.2604,-3.1889,-3.2899,-3.3695,-3.3849,-3.3795,-3.3045,-3.1352,-2.9896,-2.8025,0.0,0.0,0.0,0.0,0.0,0.0,0.0,0.0,0.0,0.0,0.0,0.0,0.0,0.0,0.0,0.0,0.0,0.0,0.0,0.0,0.0,0.0,0.0,0.0,0.0,0.0,0.0,0.0,0.0,0.0,0.0,0.0,-3.5504,-3.4094,0.0,0.0,0.0,0.0,0.0,0.0,0.0,0.0,0.0,0.0,0.0,0.0,0.0,-4.1724,-4.2426,-4.2726,-4.3245,-4.3984,-4.3401,-4.3537,-4.424,-4.3373,-4.3026,-4.3066,-4.1809,0.0,-4.0037,-3.7649,0.0,0.0,0.0,0.0,0.0,0.0,0.0,0.0,0.0,0.0,0.0,0.0,0.0,0.0,0.0,0.0,0.0,0.0,0.0,0.0,0.0,0.0,-3.4472,-3.4238,-3.3066,-3.1933,0.0,-2.9708,-2.7968,-2.7731,-2.6561,0.0,0.0,0.0,0.0,0.0,0.0,0.0,-2.9012,-3.0786,-3.1927,-3.1811,-3.1321,-3.1314,-3.2067,-3.2062,-3.1295,-2.955,-2.9223,-2.8299,-2.6505,-2.4817,0.0,0.0,0.0,0.0,0.0,0.0,0.0,0.0,0.0,0.0,0.0,0.0,0.0,0.0,0.0,0.0,0.0,0.0,0.0,0.0,0.0,0.0,0.0,0.0,0.0,0.0,0.0,0.0,0.0,-3.5036,-3.5667,-3.5135,-3.5501,-3.5209,0.0,0.0,0.0,0.0,0.0,0.0,0.0,0.0,0.0,-3.9284,-4.1436,-4.2752,-4.3099,-4.4058,-4.4749,-4.5112,-4.4762,-4.4785,-4.5129,-4.4256,-4.3855,-4.3786,-4.2441,-4.1928,-4.1842,-3.9303,-3.8034,-3.7434,0.0,0.0,0.0,0.0,-3.3795,-3.4149,-3.4251,-3.398,0.0,-3.3144,0.0,0.0,0.0,0.0,0.0,0.0,0.0,0.0,0.0,0.0,-3.3867,-3.3398,-3.2734,-3.2051,-3.154,-3.0495,-2.9521,0.0,-2.832,-2.7487,-2.6507,0.0,0.0,0.0,0.0,-2.7678,-2.8524,-3.0098,-3.0946,-3.0443,-3.0467,-3.0462,-3.0346,-3.0304,-2.9974,-2.9203,-2.8702,-2.7893,-2.6704,-2.5475,-2.4416,0.0,0.0,0.0,0.0,0.0,0.0,0.0,0.0,0.0,0.0,0.0,0.0,0.0,0.0,0.0,0.0,0.0,0.0,0.0,0.0,0.0,0.0,0.0,0.0,0.0,0.0,0.0,0.0,-3.5725,-3.6599,-3.6814,-3.7198,-3.6929,0.0,0.0,0.0,0.0,0.0,0.0,-3.8277,-3.9565,-4.0258,-4.0258,-4.2527,-4.3739,-4.3739,-4.4979,-4.5594,-4.5594,-4.5594,-4.5594,-4.5575,-4.494,-4.4624,-4.4547,-4.3085,-4.2701,-4.292,-4.0398,-3.9155,-3.8645,-3.7014,-3.6027,-3.5538,-3.5607,-3.5626,-3.5719,-3.6124,-3.5862,-3.5303,-3.5096,0.0,-3.3203,-3.2187,0.0,0.0,0.0,0.0,-3.207,-3.2949,-3.3281,-3.3242,-3.2656,-3.2187,-3.1699,-3.1012,-3.0849,-3.0603,0.0,-2.9645,-2.9012,-2.7511,0.0,0.0,0.0,0.0,-2.7391,-2.8038,-2.9396,-3.0034,-2.9395,-2.9659,-2.9621,-2.8964,-2.8902,-2.871,-2.829,-2.7841,-2.7247,-2.6429,-2.5773,-2.5019,-2.413,0.0,0.0,0.0,0.0,0.0,0.0,0.0,0.0,0.0,0.0,0.0,0.0,0.0,0.0,0.0,0.0,0.0,0.0,0.0,0.0,0.0,0.0,0.0,0.0,0.0,0.0,0.0,0.0,0.0,-3.9113,-4.0107,0.0,0.0,0.0,0.0,-3.9053,-3.9773,-3.9958,-3.9265,-4.1566,-4.2912,-4.2912,-4.4575,-4.5479,-4.5479,-4.5556,-4.5594,-4.5594,-4.5594,-4.5594,-4.5594,-4.5556,-4.5537,-4.5479,-4.4566,-4.3778,-4.2893,-4.0342,-3.9772,-4.0305,-3.8636,-3.8005,-3.8035,-3.81,-3.8159,-3.8101,-3.7319,-3.7054,-3.6941,-3.6183,-3.478,-3.353,-3.4273,-3.3296,0.0,0.0,-3.449,-3.4706,-3.5585,-3.4609,-3.3398,-3.3359,-3.2129,-3.0937,-3.0837,-3.081,-3.0799,0.0,-3.0064,-2.9221,-2.8387,0.0,-2.6854,-2.6835,-2.7573,-2.815,-2.8182,-2.8932,-2.9437,-2.9391,-2.8694,-2.8198,-2.8159,-2.8098,-2.7373,-2.5799,-2.6428,-2.6466,-2.5605,-2.5527,-2.5085,-2.4216,-2.251,0.0,0.0,0.0,0.0,0.0,0.0,0.0,0.0,0.0,0.0,0.0,0.0,0.0,0.0,0.0,0.0,0.0,0.0,0.0,0.0,0.0,0.0,0.0,0.0,0.0,0.0,0.0,0.0,-4.0628,-4.1055,0.0,-4.0561,-4.0243,-4.0454,-4.137,-4.1825,-4.2166,-4.2434,-4.3852,-4.4407,-4.3889,-4.5,-4.5594,-4.5594,-4.5594,-4.5594,-4.5594,-4.5594,-4.5594,-4.5594,-4.5594,-4.5594,-4.5556,-4.4682,-4.4143,-4.372,-4.1739,-4.0462,-3.9704,-3.9148,-3.8638,-3.8194,-3.8237,-3.8283,-3.8212,-3.7343,-3.7118,-3.7064,-3.6251,-3.5208,-3.4292,-3.4604,-3.3862,-3.3061,-3.3686,-3.3864,-3.3807,-3.3553,-3.3066,-3.248,-3.1914,-3.1328,-3.0898,-3.0877,-3.0835,-3.0811,-3.0869,-3.0588,-3.0251,-2.9968,-2.8765,-2.7829,-2.7802,-2.7553,-2.7358,-2.7359,-2.8077,-2.8371,-2.7843,-2.7509,-2.7098,-2.6537,-2.6473,-2.6201,-2.5603,-2.5853,-2.589,-2.5583,-2.5564,-2.5428,-2.5119,-2.3956,-2.2937,0.0,0.0,0.0,0.0,0.0,0.0,0.0,0.0,0.0,0.0,0.0,0.0,0.0,0.0,0.0,0.0,0.0,0.0,0.0,0.0,0.0,0.0,0.0,0.0,0.0,-3.9949,-4.1735,-4.2102,-4.2245,-4.2199,-4.197,-4.1661,-4.19,-4.2936,-4.3394,-4.378,-4.4087,-4.495,-4.5208,-4.4689,-4.529,-4.5594,-4.5594,-4.5594,-4.5594,-4.5594,-4.5594,-4.5594,-4.5594,-4.5594,-4.5594,-4.5575,-4.4998,-4.4412,-4.3816,-4.2701,-4.1235,-3.9706,-3.975,-3.945,-3.8975,-3.8981,-3.9024,-3.8914,-3.7821,-3.714,-3.6674,-3.6139,-3.559,-3.5146,-3.5146,-3.4736,-3.4287,-3.4287,-3.4075,-3.3707,-3.3121,-3.2576,-3.2011,-3.1445,-3.1093,-3.0898,-3.0898,-3.0879,-3.0858,-3.0897,-3.0853,-3.0712,-3.0445,-2.9238,-2.8203,-2.7908,-2.7336,-2.6838,-2.6536,-2.7223,-2.7408,-2.6571,-2.6493,-2.6142,-2.5269,-2.521,-2.5072,-2.4779,-2.5033,-2.521,-2.521,-2.5483,-2.5621,-2.5621,-2.4487,-2.3189,-2.1706,0.0,0.0,0.0,0.0,0.0,0.0,0.0,0.0,0.0,0.0,0.0,0.0,0.0,0.0,0.0,0.0,0.0,0.0,0.0,0.0,0.0,0.0,0.0,-3.9921,-4.1445,-4.2754,-4.3543,-4.3804,-4.3995,-4.4218,-4.4448,-4.431,-4.3698,-4.4573,-4.479,-4.4034,-4.4848,-4.5361,-4.5429,-4.5532,-4.5586,-4.5586,-4.5605,-4.5594,-4.5594,-4.5594,-4.5594,-4.5594,-4.5594,-4.5594,-4.5594,-4.5575,-4.4652,-4.3124,-4.3085,-4.2066,-4.0535,-4.0516,-4.0496,-4.0496,-4.0496,-4.0511,-4.0313,-3.8806,-3.7245,-3.5892,-3.5897,-3.5939,-3.5991,-3.5991,-3.5991,-3.5991,-3.5991,-3.5392,-3.4734,-3.4676,-3.3411,-3.2125,-3.2067,-3.1461,-3.0894,-3.0894,-3.0896,-3.0897,-3.0897,-3.0859,-3.0563,-2.9764,-2.8906,-2.8008,-2.7167,-2.699,0.0,-2.5812,-2.6432,-2.6644,-2.5786,-2.5688,-2.5317,-2.4476,-2.4379,-2.4008,-2.3147,-2.3891,-2.4359,-2.4359,-2.516,-2.563,-2.563,-2.3941,-2.1802,-1.9235,0.0,0.0,0.0,0.0,0.0,0.0,0.0,0.0,0.0,0.0,0.0,0.0,0.0,0.0,0.0,0.0,0.0,0.0,0.0,0.0,0.0,-3.9174,-4.0524,-4.0761,-4.2688,-4.4139,-4.4359,-4.4448,-4.4569,-4.4751,-4.4417,-4.4375,-4.488,-4.5242,-4.5679,-4.6182,-4.5992,-4.5955,-4.6124,-4.5687,-4.5448,-4.5448,-4.5504,-4.5522,-4.5522,-4.5577,-4.5594,-4.5594,-4.5594,-4.5594,-4.5556,-4.494,-4.4393,-4.3874,-4.2662,-4.1873,-4.1373,-4.0746,-4.0496,-4.0496,-4.0496,-3.9772,-3.873,-3.8369,-3.7162,-3.5838,-3.584,-3.5869,-3.5931,-3.5931,-3.5931,-3.5931,-3.5921,-3.5781,-3.5345,-3.4082,-3.3407,-3.2749,-3.1519,-3.105,-3.0894,-3.0894,-3.0896,-3.0897,-3.0897,-3.0898,-3.08,-3.0586,-2.9297,-2.8223,-2.7988,-2.6875,0.0,-2.5722,-2.5917,-2.5975,-2.5721,-2.5135,-2.4667,-2.4413,-2.3866,-2.3417,-2.3124,-2.3319,-2.3475,-2.3534,-2.3768,-2.3866,-2.3827,-2.2768,-2.1533,0.0,0.0,0.0,0.0,0.0,0.0,0.0,0.0,0.0,0.0,0.0,0.0,0.0,0.0,0.0,0.0,0.0,0.0,0.0,0.0,0.0,0.0,-4.0602,-4.2095,-4.2443,-4.3758,-4.4837,-4.5168,-4.4911,-4.4762,-4.4901,-4.4313,-4.4294,-4.5201,-4.5363,-4.572,-4.6392,-4.6113,-4.5874,-4.5779,-4.5477,-4.5351,-4.539,-4.5467,-4.5504,-4.5504,-4.5568,-4.5594,-4.5594,-4.5594,-4.5402,0.0,-4.4509,-4.3893,-4.3181,-4.22,-4.1585,0.0,0.0,0.0,0.0,0.0,-3.9461,-3.8059,-3.8131,-3.7091,-3.5727,-3.5756,-3.5779,-3.5827,-3.5827,-3.5827,-3.5814,-3.5858,-3.5649,-3.5106,-3.3754,-3.3126,-3.2529,-3.1182,-3.087,-3.087,-3.087,-3.0872,-3.0894,-3.0894,-3.0897,0.0,-3.0898,-2.9453,-2.8301,-2.8301,-2.6816,-2.5703,-2.5703,-2.5703,-2.5703,-2.5703,-2.4922,-2.4258,-2.3887,-2.3125,0.0,0.0,0.0,-2.2773,-2.3184,-2.3164,0.0,0.0,0.0,0.0,0.0,0.0,0.0,0.0,-1.8997,-1.9729,0.0,0.0,0.0,0.0,0.0,0.0,0.0,0.0,0.0,0.0,0.0,0.0,0.0,0.0,0.0,0.0,-4.1705,-4.3615,-4.4526,-4.4748,-4.5131,-4.592,-4.5315,-4.4855,-4.4925,-4.4219,-4.4118,-4.4996,-4.5115,-4.5268,-4.5556,0.0,0.0,0.0,0.0,-4.522,-4.5359,-4.5448,-4.5485,-4.5485,-4.555,-4.5577,-4.5577,-4.5481,-4.5019,-4.428,-4.4088,-4.3165,-4.178,-4.1684,-4.1192,-4.0508,-4.0496,-4.0496,-4.0496,-4.04,-3.9361,-3.7995,-3.7963,0.0,0.0,-3.5679,-3.5684,-3.5681,-3.5681,-3.5681,-3.5693,-3.5779,-3.5285,-3.4536,-3.3628,-3.2814,-3.1988,-3.1032,-3.0798,-3.0799,-3.0799,-3.0845,-3.0907,-3.0907,-3.0892,-3.0875,-3.0777,-2.9393,-2.8301,-2.8301,-2.6816,-2.5703,-2.5703,-2.5703,-2.5703,-2.5703,0.0,0.0,-2.3184,-2.2285,-2.1426,-2.0644,-2.1328,-2.2109,-2.2871,-2.2852,-2.248,-2.1777,-2.1757,-2.1366,-2.0603,-2.0602,-2.06,-2.0597,-2.0548,-2.096,0.0,0.0,0.0,0.0,0.0,0.0,0.0,0.0,0.0,0.0,0.0,0.0,0.0,0.0,0.0,-4.1377,-4.3001,-4.4464,-4.5957,-4.5843,-4.5901,-4.6688,-4.6122,-4.5663,-4.5681,-4.4413,-4.3897,-4.4724,-4.4797,-4.516,-4.6013,-4.5581,-4.5383,-4.5543,-4.5117,-4.4969,-4.5159,-4.5319,-4.5419,-4.5419,0.0,0.0,-4.5419,-4.4757,-4.4374,-4.4143,-4.2781,-4.2014,-4.1669,-4.102,-4.0652,-4.0499,-4.05,-4.0496,-4.0419,-3.9765,-3.8873,-3.7918,-3.7261,-3.6402,-3.5602,-3.5618,-3.5612,-3.562,-3.562,-3.562,0.0,-3.5703,-3.565,-3.5224,-3.3703,-3.3192,-3.2673,-3.1159,-3.0798,-3.0806,-3.0792,-3.0843,-3.0907,-3.0907,-3.0892,-3.0679,-2.9976,-2.8982,-2.83,-2.83,-2.6816,-2.5703,-2.5703,-2.5703,-2.5703,-2.5703,-2.4297,-2.3301,-2.3184,-2.1758,-2.0781,-2.0605,-2.0762,-2.0937,-2.1094,-2.1094,-2.1016,-2.0859,-2.0859,-2.0762,-2.0605,-2.0605,-2.0605,-2.0605,-2.0583,-2.1011,0.0,0.0,0.0,0.0,0.0,0.0,0.0,0.0,0.0,0.0,0.0,-3.3764,-3.5939,0.0,-4.0245,-4.2235,-4.3867,-4.5096,-4.5658,-4.6028,-4.6444,-4.6942,-4.5993,-4.5296,-4.5296,-4.4213,-4.3828,-4.4654,-4.4691,-4.4927,-4.5454,-4.524,-4.5058,-4.4963,-4.4791,-4.4814,-4.5057,-4.5286,-4.5178,-4.4747,-4.4787,-4.4576,-4.4144,-4.3732,-4.333,-4.2908,-4.2064,-4.1451,-4.1029,-4.0624,-4.0458,-4.0444,-3.9983,-3.9826,-3.9804,-3.94,-3.8427,-3.7296,-3.6887,-3.6214,-3.5541,-3.5541,-3.5554,-3.5547,-3.5547,-3.5547,-3.5565,-3.5629,-3.5359,-3.4768,-3.353,-3.2895,-3.2288,-3.1042,-3.075,-3.0769,-3.0783,-3.0837,-3.0845,-3.0845,-3.0847,-3.0575,-2.9737,-2.888,-2.814,-2.7713,-2.6543,-2.5703,-2.5703,-2.5703,-2.5527,-2.5098,-2.3906,-2.2988,-2.2578,-2.1348,-2.0605,-2.0605,-2.0605,-2.0605,-2.0605,-2.0605,-2.0605,-2.0605,-2.0605,-2.0605,-2.0604,-2.0604,-2.0603,-2.0601,-2.0605,-2.082,0.0,0.0,0.0,0.0,0.0,0.0,0.0,-3.0957,-3.1157,-3.2649,-3.402,-3.5469,-3.7183,-3.9277,-4.1207,-4.2591,-4.4403,-4.5517,-4.5129,-4.5879,-4.6471,-4.6483,-4.5388,-4.4655,-4.4655,-4.394,-4.3755,-4.4398,-4.4452,-4.4505,-4.4538,-4.4644,-4.4473,-4.3927,-4.4172,-4.4367,-4.4493,-4.4758,-4.4546,-4.3847,-4.3896,-4.3551,-4.287,-4.2717,-4.2267,-4.1635,-4.1328,-4.0696,-3.99,-3.99,-3.9925,-3.9901,-3.9131,-3.8775,-3.8673,-3.8708,-3.7855,-3.6673,-3.6519,-3.6038,-3.55,-3.55,-3.55,-3.55,-3.55,-3.55,-3.5475,-3.5354,-3.4836,-3.4079,-3.3098,-3.2367,-3.1674,-3.087,-3.0689,-3.0701,-3.0763,-3.0781,-3.0753,-3.0579,-3.056,-3.0228,-2.9255,-2.8498,-2.7802,-2.7107,-2.6269,-2.5703,-2.5703,-2.5547,-2.5176,-2.4472,-2.3535,-2.2597,-2.1719,-2.0996,-2.0605,-2.0605,-2.0605,-2.0605,-2.0605,-2.0605,-2.0605,-2.0605,-2.0605,-2.0604,-2.0604,-2.0602,-2.0601,-2.0601,-2.0599,-2.0599,-2.9168,-2.9796,-3.076,-3.0704,-3.1264,-3.1883,0.0,-3.2525,-3.3457,-3.4923,-3.5926,-3.7045,-3.8673,-3.9822,-4.1126,-4.2954,-4.4478,-4.5488,-4.5677,-4.5671,-4.5377,-4.4669,-4.449,-4.4418,-4.4418,-4.3815,-4.3448,-4.354,-4.3609,-4.3643,-4.3643,-4.366,-4.3443,-4.2961,-4.3161,-4.3088,-4.2678,-4.2959,-4.3033,-4.2957,-4.2938,-4.2909,-4.2775,-4.2011,-4.1609,-4.1437,-3.9947,-3.8837,-3.8095,-3.8095,-3.8095,-3.8084,-3.798,-3.7483,-3.681,-3.6945,-3.6856,-3.6596,-3.5885,-3.5577,-3.55,-3.55,-3.55,-3.55,-3.55,-3.55,-3.5334,-3.4578,-3.4326,-3.3936,-3.2366,-3.1879,-3.1602,-3.0804,-3.0656,-3.0695,-3.0706,-3.0752,-3.0577,-2.9801,-2.9645,-2.9123,-2.7475,-2.7174,-2.7109,-2.7002,-2.6265,-2.57,-2.57,-2.5017,-2.4509,-2.4412,-2.2986,-2.1696,-2.0817,-2.0661,-2.0602,-2.0602,-2.0602,-2.0602,-2.0602,-2.0602,-2.0602,-2.0602,-2.0602,-2.0601,-2.06,-2.06,-2.0598,-2.0594,-2.0594,-2.0596,-3.0908,-3.1398,-3.2197,-3.2567,-3.2939,-3.3434,-3.4286,-3.4482,-3.5009,-3.6959,-3.7597,-3.8336,-3.9842,-4.0425,-4.135,-4.3323,-4.4443,-4.5029,-4.5005,-4.5222,-4.4917,-4.3629,-4.3503,-4.3578,-4.3689,-4.3524,-4.3394,-4.3394,-4.3463,-4.3515,-4.3515,-4.3057,-4.2769,-4.274,-4.2487,-4.2331,-4.2276,-4.2547,-4.2446,-4.198,-4.202,-4.18,-4.1342,-4.0979,-4.052,-3.9986,-3.8763,-3.8063,-3.78,-3.7755,-3.7755,-3.7753,-3.723,-3.6818,-3.6506,-3.6557,-3.6289,-3.584,-3.5494,-3.5379,-3.5379,-3.5379,-3.5412,-3.5446,-3.5446,-3.5102,-3.4667,-3.4295,-3.3525,-3.2632,-3.1912,-3.1364,-3.0904,-3.0612,-3.0567,-3.0591,-3.063,-3.0303,-2.9883,-2.9516,-2.9032,-2.8318,-2.7108,-2.6915,-2.6778,-2.6305,-2.5929,-2.57,-2.57,-2.4938,-2.404,-2.3043,-2.1852,-2.0992,-2.0621,-2.0601,-2.0601,-2.0601,-2.0601,-2.0601,-2.0601,-2.0601,-2.0601,-2.0601,-2.0599,-2.0576,-2.0534,-2.0547,-2.0542,-2.0537,-2.0537,-2.0538,-3.2207,-3.2657,-3.3289,-3.3804,-3.4126,-3.4632,-3.5904,-3.6016,-3.6363,-3.8221,-3.8757,-3.9225,-4.0297,-4.0648,-4.1321,-4.2943,-4.4058,-4.4558,-4.4085,-4.4719,-4.4654,-4.3081,-4.2901,-4.2957,-4.3105,-4.3251,-4.3323,-4.3323,-4.321,-4.3133,-4.3133,-4.2398,-4.1963,-4.198,-4.1797,-4.1734,-4.1782,-4.2045,-4.1914,-4.1367,-4.1237,-4.0864,-4.0282,-4.0053,-3.9327,-3.8285,-3.7636,-3.7252,-3.7086,-3.7041,-3.7041,-3.7009,-3.6383,-3.6143,-3.6138,-3.6138,-3.5787,-3.5308,-3.5308,-3.5308,-3.5308,-3.5308,-3.5357,-3.5367,-3.5098,-3.4653,-3.4109,-3.3648,-3.2641,-3.1641,-3.141,-3.0865,-3.0416,-3.0458,-3.0486,-3.0511,-3.0567,-2.9935,-2.9306,-2.9057,-2.8304,-2.7459,-2.6645,-2.6522,-2.6334,-2.5767,-2.5677,-2.5673,-2.5697,-2.4721,-2.3393,-2.1714,-2.0971,-2.06,-2.06,-2.06,-2.06,-2.06,-2.06,-2.06,-2.06,-2.06,-2.06,-2.06,-2.0574,-2.0547,-2.0498,-2.0482,-2.0467,-2.0437,-2.0437,-2.0437,-3.2492,-3.322,-3.3783,-3.3789,-3.4429,-3.5255,-3.6028,-3.6842,-3.7635,-3.8439,-3.9158,-3.9687,-3.9737,-4.0323,-4.0959,-4.1393,-4.3241,-4.4246,-4.3196,-4.4238,-4.4556,-4.3081,-4.2901,-4.2901,-4.2901,-4.303,-4.3104,-4.3104,-4.2575,-4.2242,-4.2242,-4.1541,-4.0827,-4.0203,-4.1041,-4.1255,-4.076,-4.1024,-4.1195,-4.1305,-4.0654,-4.032,-4.0263,-3.9431,-3.8151,-3.6576,-3.6557,-3.6061,-3.5286,-3.5286,-3.5286,-3.5286,-3.5248,-3.5248,-3.5248,-3.5248,-3.5277,-3.5308,-3.5308,-3.5308,-3.5308,-3.5308,-3.5357,-3.5232,-3.4395,-3.4172,-3.3859,-3.2237,-3.1737,-3.1506,-3.0654,-3.0423,-3.039,-3.0406,-3.0444,-3.049,-3.0496,-2.9868,-2.9059,-2.8208,-2.7341,-2.6494,-2.5673,-2.5609,-2.5626,-2.5601,-2.56,-2.5637,-2.5685,-2.4205,-2.2507,-2.0828,-2.0613,-2.0594,-2.0594,-2.0594,-2.0594,-2.0594,-2.0594,-2.0594,-2.0594,-2.0594,-2.0594,-2.0594,-2.0545,-2.0509,-2.0506,-2.0424,-2.0376,-2.0319,-2.0319,-2.0319,-3.2991,-3.3423,-3.3766,-3.4284,-3.4677,-3.5169,-3.59,-3.6289,-3.6721,-3.7444,-3.7793,-3.7985,-3.7985,-3.8574,-3.9363,-4.0256,-4.1837,-4.291,-4.2808,-4.3703,-4.3994,-4.2968,-4.2862,-4.2901,-4.2901,-4.303,-4.2886,-4.2341,-4.2247,-4.2205,-4.2204,-4.1502,-4.1254,-4.1606,-4.1459,-4.1071,-4.043,-4.0697,-4.0608,-4.0166,-3.9537,-3.8935,-3.8356,-3.7557,-3.69,-3.6329,-3.584,-3.5473,-3.5206,-3.5193,-3.5209,-3.5209,-3.5209,-3.5209,-3.5209,-3.5209,-3.5207,-3.5231,-3.5231,-3.5231,-3.5231,-3.5231,-3.5273,-3.5178,-3.4304,-3.3674,-3.303,-3.1943,-3.1213,-3.0708,-3.042,-3.0324,-3.0324,-3.0336,-3.0349,-3.0361,-3.0373,-2.9288,-2.8222,-2.7915,-2.6703,-2.564,-2.5403,-2.5397,-2.5418,-2.5454,-2.5097,-2.4594,-2.4042,-2.2951,-2.1801,-2.065,-2.0533,-2.0533,-2.0533,-2.0533,-2.0533,-2.0533,-2.0533,-2.0533,-2.0533,-2.0533,-2.0533,-2.0533,-2.051,-2.0486,-2.0424,-2.0363,-2.0326,-2.0292,-2.0292,-2.0292,-3.3582,-3.4161,-3.4611,-3.4635,-3.4889,-3.5225,-3.5489,-3.5737,-3.6092,-3.658,-3.6721,-3.6787,-3.7052,-3.7284,-3.7859,-3.9286,-4.0639,-4.1682,-4.217,-4.312,-4.3488,-4.2815,-4.2804,-4.2862,-4.29,-4.2721,-4.2395,-4.1869,-4.1994,-4.1955,-4.168,-4.1237,-4.1249,-4.1812,-4.1383,-4.0962,-4.0592,-4.0509,-3.9986,-3.905,-3.838,-3.7627,-3.6806,-3.6355,-3.6016,-3.5733,-3.5285,-3.5138,-3.52,-3.5196,-3.5193,-3.5209,-3.5209,-3.5209,-3.5209,-3.5209,-3.5209,-3.5209,-3.5209,-3.5209,-3.5152,-3.4866,-3.4802,-3.4623,-3.3455,-3.2757,-3.219,-3.1373,-3.0733,-3.0292,-3.0292,-3.0292,-3.0292,-3.0292,-3.0292,-3.0292,-3.0292,-2.8989,-2.78,-2.78,-2.6381,-2.5203,-2.5253,-2.5289,-2.5329,-2.5383,-2.4506,-2.3638,-2.3093,-2.2261,-2.1385,-2.0527,-2.043,-2.043,-2.043,-2.043,-2.043,-2.043,-2.043,-2.043,-2.043,-2.043,-2.043,-2.043,-2.0434,-2.0402,-2.0329,-2.0283,-2.0257,-2.0231,-2.0231,-2.0231,-3.4356,-3.5373,-3.6108,-3.4857,-3.5086,-3.5448,-3.4824,-3.5202,-3.5729,-3.5868,-3.5827,-3.6009,-3.6787,-3.639,-3.6547,-3.8421,-3.9719,-4.0676,-4.126,-4.2441,-4.3063,-4.262,-4.2688,-4.2804,-4.29,-4.2157,-4.1705,-4.1705,0.0,-4.1505,-4.0741,-4.0811,-4.0863,-4.0863,-4.0863,-4.0892,-4.0965,-4.0204,-3.9194,-3.7941,-3.7178,-3.6445,-3.5728,-3.5783,-3.5436,-3.4773,-3.4851,-3.4992,-3.5183,-3.5183,-3.517,-3.5174,-3.5174,-3.5174,-3.5174,-3.5174,-3.5174,-3.5174,-3.5136,-3.5125,-3.5018,-3.4254,-3.3961,-3.3627,-3.2001,-3.155,-3.1404,-3.0535,-3.0286,-3.0286,-3.0286,-3.0286,-3.0286,-3.0286,-3.0267,-3.0228,-3.0228,-2.8906,-2.7737,-2.7737,-2.6356,-2.5206,-2.5206,-2.5248,-2.5317,-2.5373,-2.3912,-2.2825,-2.2882,-2.2105,-2.1216,-2.0391,-2.0291,-2.0291,-2.0291,-2.0291,-2.0291,-2.0291,-2.0291,-2.0291,-2.0291,-2.0291,-2.0291,-2.0291,-2.0295,-2.0253,-2.02,-2.0204,-2.0165,-2.0088,-2.0088,-2.0088,-3.5633,-3.6101,-3.6212,-3.5393,-3.5371,-3.5423,-3.471,-3.4339,-3.4188,-3.4211,-3.3423,-3.3127,-3.4402,-3.4932,-3.5734,-3.7419,-3.9067,-4.0252,-4.0594,-4.149,-4.209,-4.2086,-4.2512,-4.2803,-4.2804,-4.2138,-4.1705,-4.1705,-4.127,-4.0923,-4.0723,-4.1321,-4.1684,-4.1683,-4.1683,-4.086,-3.9102,-3.7863,-3.6846,-3.6099,-3.5876,-3.5374,-3.4603,-3.4692,-3.463,-3.4509,-3.4636,-3.4759,-3.4898,-3.4898,-3.4936,-3.4982,-3.4982,-3.4982,-3.4982,-3.4982,-3.4982,-3.4897,-3.4343,-3.4211,-3.4273,-3.4071,-3.3555,-3.2829,-3.174,-3.1468,-3.1341,-3.0461,-3.0232,-3.0232,-3.0232,-3.0232,-3.0232,-3.0232,-2.9735,-2.9269,-2.9269,-2.7937,-2.6758,-2.6758,-2.5916,-2.5195,-2.5195,-2.5206,-2.5236,-2.5253,-2.3778,-2.2695,-2.2802,-2.1545,-2.054,-2.0324,-2.0305,-2.0305,-2.0305,-2.0305,-2.0305,-2.0305,-2.0305,-2.0305,-2.0305,-2.0305,-2.0305,-2.0305,-2.0245,-2.0219,-2.0199,-2.0148,-2.0098,-2.0021,-2.0021,-2.003,-3.6643,-3.6994,-3.7043,-3.6036,-3.5854,-3.5573,-3.4235,-3.367,-3.3365,-3.3152,-3.2265,-3.2018,-3.3524,-3.3607,-3.43,-3.6887,-3.7944,-3.8871,-4.0175,-4.0919,-4.1401,-4.1644,-4.2107,-4.2306,-4.2065,-4.1407,-4.1033,-4.1125,-4.1126,-4.1125,-4.1125,-4.1942,-4.2214,-4.1887,-4.1214,-3.9704,-3.7269,-3.6121,-3.5414,-3.5078,-3.4724,-3.4347,-3.3934,-3.4011,-3.4086,-3.4185,0.0,-3.442,-3.4534,-3.4548,-3.4572,-3.4643,-3.4643,-3.4643,-3.4643,-3.4643,-3.4408,-3.407,-3.3705,-3.3201,-3.2749,-3.284,-3.2531,-3.197,-3.1092,-3.0856,-3.0772,-3.029,-3.0157,-3.0164,-3.0185,-3.0211,-3.0211,-3.0211,-2.9529,-2.8891,-2.8891,-2.758,-2.6294,-2.5931,-2.5516,-2.5191,-2.5191,-2.5191,-2.5185,-2.5168,-2.3692,-2.263,-2.269,-2.1259,-2.0215,-2.0215,-2.0215,-2.0215,-2.0215,-2.0215,-2.0215,-2.0215,-2.0215,-2.0215,-2.0215,-2.0215,-2.0215,-2.0215,-2.0178,-2.0162,-2.0159,-2.0084,-2.0031,-2.0006,-1.9976,-1.9944,-3.7469,-3.7922,-3.8051,-3.6659,-3.6303,-3.5762,-3.3657,-3.3055,-3.2767,-3.2278,-3.1512,-3.1396,-3.2922,-3.2243,-3.2602,-3.6113,-3.6584,-3.728,-3.9579,-4.0363,-4.0825,-4.1192,-4.1464,-4.1449,-4.1004,-4.0308,-4.0034,-4.0436,-4.1034,-4.1469,-4.1687,-4.2357,-4.2285,-4.127,-3.9731,-3.7866,-3.5659,-3.4826,-3.4474,-3.453,-3.3837,-3.3534,-3.3605,-3.3657,-3.3766,-3.3868,-3.3934,0.0,-3.4159,-3.4159,-3.4206,-3.4253,-3.4253,-3.4253,-3.4246,-3.4134,-3.3661,-3.3041,-3.2962,-3.2099,-3.1095,-3.1316,-3.131,-3.1089,-3.033,-3.0098,-3.0102,-3.0094,-3.0101,-3.0109,-3.0171,-3.0109,-3.0032,-3.0032,-2.928,-2.8574,-2.8574,-2.7338,-2.6026,-2.5344,-2.5191,-2.5191,-2.5191,-2.5185,-2.513,-2.4979,-2.3601,-2.2566,-2.2443,-2.107,-2.0084,-2.0084,-2.0084,-2.0084,-2.0084,-2.0084,-2.0084,-2.0084,-2.0084,-2.0084,-2.0098,-2.0098,-2.0093,-2.0093,-2.0083,-2.0068,-2.0063,-2.0005,-1.9976,-1.9971,-1.9893,-1.9832,-3.8213,-3.8311,-3.8051,-3.6659,-3.6303,-3.5736,-3.3591,-3.2259,-3.1271,-3.0582,-2.9063,-2.8316,-2.9807,-3.0414,-3.1305,-3.3188,-3.5468,-3.7186,-3.7753,-3.9159,-4.0203,-4.0392,-4.0268,-4.0162,-4.0189,-3.9264,-3.9279,-4.0697,-4.0092,-4.0239,-4.1632,-4.1831,-4.0963,-3.8862,-3.7268,-3.5894,-3.4824,-3.4009,-3.364,-3.3709,-3.3564,-3.3534,-3.3605,-3.3601,-3.3657,-3.3739,-3.3753,0.0,-3.3954,-3.3954,-3.3992,-3.4055,-3.4055,-3.4055,-3.3981,-3.3309,-3.2969,-3.2666,-3.1425,-3.0941,-3.0894,-3.1157,-3.0814,-3.0292,-3.0156,-3.0102,-3.0102,-3.0102,-3.0106,-3.0101,-3.0116,-2.9622,-2.9127,-2.9127,-2.7943,-2.6823,-2.6823,-2.6084,-2.5363,-2.5229,-2.5191,-2.5191,-2.5191,-2.5143,-2.489,-2.4217,-2.3246,-2.2334,-2.1624,-2.064,-2.0016,-2.0016,-2.0016,-2.0016,-2.0016,-2.0016,-2.0016,-2.0016,-2.0016,-2.0025,-2.0019,-2.0019,-2.0028,-2.002,-1.9961,-1.9939,-1.993,-1.9877,-1.9823,-1.9831,-1.9763,-1.9695,-3.8391,-3.8116,-3.7598,-3.6562,-3.6011,-3.5169,-3.3016,-3.1735,-3.0709,-2.9686,-2.8461,-2.7909,-2.9094,-2.9356,-3.0261,-3.2868,-3.3822,-3.4963,-3.7003,-3.812,-3.889,-3.9403,-3.9488,-3.9399,-3.9145,-3.8436,-3.8397,-3.936,-3.907,-3.9658,-4.1558,-4.0926,-3.9604,-3.7647,-3.6417,-3.5206,-3.3991,-3.3592,-3.3408,-3.3452,-3.3452,-3.3466,-3.3509,-3.3509,-3.3506,-3.3534,-3.3534,0.0,-3.3629,-3.3629,-3.3657,-3.3684,-3.3684,-3.3428,-3.3021,-3.2637,-3.1955,-3.1138,-3.0478,-3.0068,-2.989,-3.0045,-3.0028,-2.994,-2.9907,-2.9893,-2.9885,-2.9891,-2.9916,-2.9948,-2.9999,-2.9403,-2.8793,-2.8846,-2.7572,-2.6212,-2.578,-2.5374,-2.5088,-2.5051,-2.5063,-2.5095,-2.5095,-2.4726,-2.4295,-2.3902,-2.2749,-2.1762,-2.1309,-2.053,-2.0009,-2.0001,-2.0006,-2.0006,-2.0006,-2.0006,-2.0006,-2.0006,-1.9976,-1.9939,-1.9896,-1.9857,-1.9841,-1.9794,-1.9763,-1.9738,-1.9738,-1.9669,-1.9643,-1.9649,-1.957,-1.9509,-3.8391,-3.7987,-3.7355,-3.6513,-3.5736,-3.4612,-3.2287,-3.0953,-2.9891,-2.8733,-2.7862,-2.7571,-2.8428,-2.8348,-2.9155,-3.2171,-3.2067,-3.2752,-3.6096,-3.691,-3.756,-3.8547,-3.8561,-3.8408,-3.8097,-3.7543,-3.7365,-3.7815,-3.7996,-3.8867,-4.067,-3.9679,-3.825,-3.6477,-3.581,-3.478,-3.3352,-3.3334,-3.3334,-3.3334,-3.3364,-3.3382,-3.3382,-3.3378,-3.3393,-3.3393,-3.3393,0.0,0.0,-3.314,-3.3049,-3.2886,-3.2886,-3.2488,-3.1908,-3.1745,-3.0889,-2.9779,-2.9744,-2.9399,-2.9,-2.9038,-2.9355,-2.9681,-2.9626,-2.9617,-2.9617,-2.9617,-2.9532,-2.9464,-2.9526,-2.8804,-2.8058,-2.7968,-2.6928,-2.5777,-2.5099,-2.4946,-2.49,-2.4821,-2.4861,-2.4857,-2.4713,-2.4164,-2.3651,-2.3309,-2.2119,-2.1197,-2.0979,-2.0386,-2.001,-2.0,-2.0,-1.9976,-1.9971,-1.9965,-1.9955,-1.995,-1.9896,-1.9839,-1.9762,-1.9695,-1.9631,-1.9565,-1.9562,-1.956,-1.9534,-1.9488,-1.9448,-1.9434,-1.938,-1.9305,-3.8391,-3.8359,-3.7987,-3.6643,-3.5736,-3.4457,-3.1632,-2.9432,-2.7786,-2.7061,-2.5947,-2.5307,-2.6063,-2.6854,-2.7729,-2.8724,-3.0427,-3.2177,-3.3879,-3.5295,-3.6672,-3.8098,-3.7095,-3.6588,-3.7311,-3.6413,-3.6123,-3.6939,-3.6863,-3.7156,-3.8008,-3.8061,-3.6979,-3.4625,-3.4481,-3.4015,-3.3135,-3.3132,-3.3132,-3.3132,-3.3244,-3.3307,-3.3307,-3.3382,-3.3393,-3.3393,-3.3393,0.0,0.0,-3.2306,-3.1872,-3.1234,-3.1234,-3.1179,-3.1034,-3.0292,-2.9929,-2.9707,-2.9045,-2.8864,-2.891,-2.891,-2.9104,-2.9329,-2.9326,-2.9334,-2.9334,-2.9334,-2.8864,-2.8353,-2.8343,-2.7222,-2.5914,-2.531,-2.5009,-2.4836,-2.4823,-2.4772,-2.4689,-2.4554,-2.4588,-2.4415,-2.3752,-2.3622,-2.3145,-2.1734,-2.1343,-2.0941,-2.0221,-2.0045,-1.9993,-1.9999,-1.9952,-1.9906,-1.9913,-1.986,-1.9824,-1.9813,-1.9763,-1.9701,-1.9616,-1.9552,-1.949,-1.9423,-1.9424,-1.9387,-1.9327,-1.9318,-1.929,-1.9224,-1.9156,-1.9125,-3.763,-3.7452,-3.6999,-3.6448,-3.5412,-3.389,-3.1454,-2.9577,-2.8065,-2.6971,-2.6064,-2.5555,-2.5905,-2.6328,-2.7147,-2.8738,-2.9383,-3.0477,-3.2796,-3.3624,-3.4551,-3.6042,-3.5694,-3.5676,-3.6546,-3.5901,-3.5464,-3.5562,-3.5211,-3.4955,-3.4935,-3.5741,-3.5627,-3.4341,-3.4305,-3.391,-3.3119,-3.3101,-3.3101,-3.3101,-3.315,-3.3214,-3.331,-3.3322,-3.3096,-3.2687,-3.2687,0.0,0.0,-3.1473,-3.1288,-3.0998,-3.0998,-3.0708,-3.0237,-2.9911,-2.9481,-2.9047,-2.8746,-2.8675,-2.8724,-2.8724,-2.8785,-2.8909,-2.9082,-2.9115,-2.9023,-2.8518,-2.8202,-2.7913,-2.7422,-2.6507,-2.5546,-2.4797,-2.4634,-2.4634,-2.4615,-2.4567,-2.4493,-2.4391,-2.4052,-2.3686,-2.342,-2.2642,-2.1832,-2.1199,-2.0684,-2.0238,-1.9918,-1.988,-1.988,-1.988,-1.9884,-1.986,-1.9788,-1.972,-1.9669,-1.9617,-1.9557,-1.9488,-1.9416,-1.9368,-1.9292,-1.9224,-1.9176,-1.9144,-1.9117,-1.9076,-1.9042,-1.9025,-1.899,-1.8973,-3.6837,-3.6659,-3.6216,-3.5752,-3.4579,-3.3032,-3.104,-2.9183,-2.7668,-2.6948,-2.6185,-2.5724,-2.5959,-2.6115,-2.6765,-2.8506,-2.8575,-2.9254,-3.1702,-3.2232,-3.2911,-3.4386,-3.4369,-3.4665,-3.5716,-3.5228,-3.4554,-3.3845,-3.3481,-3.3037,-3.2534,-3.3435,-3.3882,-3.3705,-3.3703,-3.3435,-3.2882,-3.2914,-3.293,-3.2961,-3.3008,-3.3104,-3.3216,-3.3232,-3.2841,-3.2141,-3.2141,0.0,0.0,-3.0613,-3.0469,-3.0252,-3.0278,-2.9934,-2.9445,-2.9445,-2.9101,-2.86,-2.86,-2.86,-2.86,-2.86,-2.86,-2.8601,-2.8548,-2.8534,-2.837,-2.7558,-2.72,-2.6859,-2.6043,-2.5509,-2.5033,-2.4513,-2.4409,-2.4436,-2.4382,-2.4329,-2.4257,-2.4163,-2.3557,-2.2999,-2.2844,-2.176,-2.0807,-2.0593,-2.0069,-1.9707,-1.9707,-1.9719,-1.9712,-1.9712,-1.9713,-1.9701,-1.965,-1.9559,-1.9483,-1.9412,-1.9339,-1.9289,-1.9246,-1.9176,-1.9102,-1.9035,-1.8992,-1.8966,-1.8976,-1.8896,-1.8843,-1.8816,-1.8816,-1.8807,-3.6151,-3.635,-3.6029,-3.4498,-3.3161,-3.1818,-3.0265,-2.7741,-2.5945,-2.6658,-2.5848,-2.5203,-2.5877,-2.6115,-2.6452,-2.7199,-2.7928,-2.8906,-3.0307,-3.1151,-3.2161,-3.3624,-3.3183,-3.3315,-3.4767,-3.4237,-3.321,-3.173,-3.176,0.0,-3.1154,-3.1274,-3.1637,-3.2301,-3.2318,-3.2318,-3.2318,-3.2456,-3.254,-3.2622,-3.282,-3.2932,-3.3013,-3.3055,-3.2703,0.0,0.0,0.0,0.0,-2.9692,-2.9232,-2.8541,-2.8592,-2.8618,-2.8618,-2.8618,-2.8618,-2.86,-2.86,-2.86,-2.86,-2.86,-2.86,-2.8455,-2.7658,-2.7417,-2.7254,-2.6439,-2.5642,-2.4838,-2.4041,-2.3865,-2.3947,-2.4078,-2.4096,-2.4113,-2.4097,-2.4057,-2.3958,-2.3827,-2.3204,-2.25,-2.1825,-2.1095,-2.0354,-1.9627,-1.9518,-1.9499,-1.9499,-1.9502,-1.9492,-1.9492,-1.9391,-1.935,-1.9485,-1.9391,-1.9277,-1.92,-1.915,-1.9109,-1.9095,-1.9045,-1.8975,-1.8904,-1.8904,-1.8896,-1.8905,-1.8824,-1.8733,-1.8595,-1.86,-1.8569,-3.4113,-3.4267,-3.4112,-3.3592,-3.2843,-3.1655,-2.961,-2.807,-2.6873,-2.6187,-2.574,-2.5584,-2.5941,-2.6026,-2.6328,-2.7182,-2.7912,-2.8724,-2.9632,-3.0348,-3.1153,-3.2177,-3.2978,-3.3448,-3.3392,-3.3199,-3.2646,-3.1664,-3.1278,-3.1024,-3.0972,-3.1038,-3.1334,-3.186,-3.1895,-3.1895,-3.1895,-3.202,-3.2179,-3.2386,-3.2539,-3.2471,-3.2187,-3.2199,-3.1526,0.0,0.0,0.0,0.0,-2.8797,-2.8693,-2.8492,-2.8518,-2.8562,-2.86,-2.86,-2.86,-2.86,-2.86,-2.86,-2.86,-2.86,-2.8238,-2.7622,-2.6808,-2.6952,-2.7115,-2.5769,-2.4791,-2.4121,-2.3872,-2.3831,-2.3837,-2.3888,-2.3888,-2.3878,-2.3899,-2.3884,-2.3839,-2.3747,-2.2684,-2.1739,-2.1534,-2.0423,-1.9504,-1.9329,-1.93,-1.93,-1.93,-1.9285,-1.9295,-1.9295,-1.9216,-1.92,-1.9287,-1.9208,-1.9119,-1.9008,-1.8973,-1.8965,-1.8966,-1.8948,-1.8913,-1.8904,-1.8905,-1.8896,-1.8905,-1.8742,-1.8574,-1.8391,-1.83,-1.8229,-3.2737,-3.2763,-3.2439,-3.2069,-3.131,-3.025,-2.8735,-2.7628,-2.6795,-2.6235,-2.5933,-2.5809,-2.5936,-2.5974,-2.6193,-2.6728,-2.7692,-2.8539,-2.891,-3.0005,-3.1072,-3.1847,-3.2993,-3.3346,-3.2381,-3.2531,-3.2282,-3.1267,-3.0854,-3.0651,-3.0733,-3.0794,-3.0958,-3.124,-3.1413,-3.1506,-3.1506,-3.138,-3.1443,-3.1655,-3.1531,-3.136,-3.1151,-3.1151,-3.0487,0.0,0.0,0.0,0.0,-2.816,-2.8228,-2.8327,-2.8362,-2.8432,-2.8484,-2.851,-2.851,-2.8484,-2.851,-2.851,-2.8484,-2.851,-2.7783,-2.6736,-2.5953,-2.5862,-2.5842,-2.4827,-2.4183,-2.38,-2.3797,-2.3768,-2.3761,-2.3761,-2.3761,-2.3688,-2.3381,-2.3306,-2.3202,-2.2854,-2.1766,-2.0913,-2.0905,-1.9857,-1.9041,-1.9076,-1.9102,-1.9102,-1.9102,-1.9086,-1.9087,-1.9087,-1.9027,-1.9002,-1.9053,-1.901,-1.8923,-1.8798,-1.8789,-1.877,-1.8744,-1.8744,-1.8744,-1.8744,-1.8742,-1.8751,-1.8751,-1.8489,-1.8273,-1.8103,-1.7969,-1.7893,0.0,-3.1747,-3.1112,-3.0261,-2.9074,-2.8085,-2.7782,-2.6714,0.0,-2.6574,-2.6278,-2.5879,-2.5881,-2.5936,-2.599,-2.604,-2.737,-2.8351,-2.8283,-3.007,-3.1649,-3.2329,-3.3087,-3.3083,-3.177,-3.2277,-3.2078,-3.0667,-3.0501,-3.0485,-3.0485,-3.0485,-3.0485,-3.0485,-3.0895,-3.1117,-3.1067,-3.06,-3.0376,-3.047,-2.9971,-2.9823,-2.9983,-2.9983,-2.9544,0.0,0.0,0.0,0.0,-2.773,-2.7836,-2.7968,-2.8091,-2.8201,-2.8286,-2.834,-2.8313,-2.8286,-2.834,-2.8313,-2.8282,-2.8241,-2.7212,-2.5859,-2.5056,-2.4342,-2.3785,-2.3785,-2.3789,-2.3793,-2.3793,-2.3732,-2.3689,-2.3689,-2.3689,-2.3473,-2.2663,-2.2502,-2.225,-2.143,-2.0639,-2.0073,-2.0073,-1.9399,-1.8878,-1.8878,-1.8878,-1.8878,-1.8878,-1.8878,-1.8887,-1.8887,-1.8815,-1.8779,-1.8779,-1.8779,-1.8724,-1.8612,-1.8581,-1.8549,-1.8475,-1.8465,-1.8465,-1.8465,-1.8465,-1.8455,-1.8445,-1.8135,-1.7893,-1.7777,-1.7635,-1.7577,-3.0691,0.0,-3.0573,-3.0366,-2.9596,-2.8694,0.0,-2.714,-2.6351,-2.5959,-2.5767,-2.5694,-2.5735,-2.5756,-2.5973,-2.6585,-2.7476,-2.8267,-2.8821,-3.0297,-3.1352,-3.141,-3.2606,-3.3102,-3.2223,-3.2344,-3.2081,-3.1178,-3.0603,-3.0274,-3.0274,-3.0274,-3.0274,-3.0274,-3.048,-3.0344,-2.9822,-2.9814,-2.9623,-2.929,-2.928,-2.9093,-2.8791,-2.8791,-2.8359,0.0,0.0,0.0,-2.7322,-2.7338,-2.7382,-2.7472,-2.7562,-2.7754,-2.7986,-2.7961,-2.7957,-2.7986,-2.7947,-2.7957,-2.7832,-2.688,-2.6314,-2.5739,-2.439,-2.3865,-2.3714,-2.3714,-2.3732,-2.3711,-2.3663,-2.3629,-2.3607,-2.3562,-2.3551,-2.333,-2.2518,-2.2357,-2.2107,-2.1292,-2.0501,-1.9927,-1.988,-1.9192,-1.8657,-1.8611,-1.8648,-1.8676,-1.866,-1.8678,-1.8669,-1.8669,-1.8657,-1.8627,-1.8563,-1.863,-1.8612,-1.8534,-1.8418,-1.8328,-1.8201,-1.8139,-1.8118,-1.8118,-1.8069,-1.8023,-1.7949,-1.7783,-1.7618,-1.7479,-1.7422,-1.7338,-3.029,-3.0237,-2.9931,-2.9906,-2.9284,-2.848,-2.7676,-2.6896,-2.6203,-2.574,-2.564,-2.564,-2.5659,-2.5956,-2.6352,-2.6784,-2.7774,-2.8858,-2.9858,-3.0647,-3.1352,-3.2004,-3.28,-3.3181,0.0,-3.2842,-3.2417,-3.139,-3.0948,-3.0549,-3.0205,-3.0189,-3.0189,-3.0189,-2.9941,-2.9663,-2.9369,-2.9181,-2.8808,-2.8257,-2.8061,-2.7845,-2.7621,-2.7621,-2.7365,0.0,0.0,0.0,-2.6972,-2.6972,-2.7004,-2.7083,-2.721,-2.7411,-2.7636,-2.7657,-2.7639,-2.7636,-2.7657,-2.7473,-2.7081,-2.6056,-2.5511,-2.4995,-2.3797,-2.3412,-2.3458,-2.3656,-2.3667,-2.3652,-2.3607,-2.3573,-2.3461,-2.3053,-2.2946,-2.2642,-2.1483,-2.1243,-2.1001,-2.0198,-1.9649,-1.9269,-1.921,-1.8796,-1.8426,-1.832,-1.8368,-1.8445,-1.8536,-1.8526,-1.8516,-1.8545,-1.8505,-1.8426,-1.832,-1.829,-1.828,-1.827,-1.8135,-1.8008,-1.7882,-1.7838,-1.7833,-1.7833,-1.7777,-1.7715,-1.7612,-1.7502,-1.7384,-1.7261,-1.7195,-1.7095,-3.0125,-2.9959,-2.9562,-2.9497,-2.8995,-2.8296,-2.7509,-2.6648,-2.5987,-2.588,-2.5763,-2.5694,-2.5745,-2.6338,-2.6867,-2.7078,-2.8298,-2.9613,-3.076,-3.0989,-3.1549,-3.2868,-3.321,0.0,-3.3508,-3.3295,-3.2698,-3.1504,-3.1209,-3.08,-3.0195,-3.0146,-3.0097,-2.9982,-2.9414,-2.903,-2.8931,-2.8503,-2.7942,-2.73,-2.6787,-2.6572,-2.6607,-2.6607,-2.6607,-2.6607,0.0,0.0,-2.6607,-2.6607,-2.6657,-2.6725,-2.6907,-2.7068,-2.7225,-2.7324,-2.7291,-2.7208,-2.7217,-2.6842,-2.6237,-2.5428,-2.4734,-2.4068,-2.3285,-2.3028,-2.3114,-2.3458,-2.3533,-2.3528,-2.3528,-2.3482,-2.327,-2.2569,-2.2349,-2.1868,-2.0433,-2.0034,-1.9731,-1.8911,-1.8658,-1.8518,-1.8448,-1.8338,-1.8208,-1.8058,-1.8097,-1.8225,-1.8388,-1.8375,-1.8355,-1.8426,-1.829,-1.8177,-1.8044,-1.7899,-1.7844,-1.7887,-1.7788,-1.7686,-1.7531,-1.7531,-1.7519,-1.7519,-1.7519,-1.7472,-1.7353,-1.7301,-1.7208,-1.7083,-1.701,-1.6876,-2.9383,-2.9926,-3.0323,-3.0319,-3.0095,-2.9686,-2.8944,-2.7626,-2.6562,-2.6562,-2.6056,-2.5813,-2.6409,-2.6639,-2.7109,-2.8292,-2.9226,-2.9843,-3.007,-3.1095,-3.1915,-3.2165,0.0,-3.3989,-3.3989,-3.2902,-3.2124,-3.1897,-3.0784,-3.0076,-2.9962,-2.9946,-2.967,-2.9031,-2.9018,-2.8425,-2.7202,-2.7268,-2.7007,-2.6405,-2.6323,-2.6257,-2.6274,-2.6274,-2.6274,-2.6274,0.0,-2.6274,-2.6274,-2.6274,-2.6276,-2.6293,-2.6383,-2.6573,-2.6791,-2.6759,-2.6758,-2.6706,-2.611,-2.5867,-2.5636,-2.4433,-2.3967,-2.3738,-2.2994,-2.2769,-2.2764,-2.2846,-2.2998,-2.318,-2.318,-2.318,-2.3133,-2.301,-2.2494,-2.1801,-2.0886,-2.0192,-1.9515,-1.8702,-1.8438,-1.831,-1.8191,-1.81,-1.7977,-1.7788,-1.7866,-1.7992,-1.8065,-1.8068,-1.8063,-1.8076,-1.7954,-1.7816,-1.7687,-1.7549,-1.7467,-1.741,-1.7444,-1.7406,-1.7273,-1.7261,-1.7232,-1.7183,-1.7183,-1.717,-1.7158,-1.7145,-1.7095,-1.701,-1.6885,-1.6753,-2.879,-2.9367,-2.991,-2.9865,-3.0375,-3.0685,-2.9882,-2.8502,-2.7394,-2.7367,-2.7088,-2.6922,-2.7187,-2.7575,-2.8195,-2.9216,-2.9972,-3.0441,-3.0441,-3.1348,-3.2158,-3.2546,0.0,-3.355,-3.355,-3.2967,-3.2271,-3.1454,-3.0814,0.0,-2.9913,-2.9524,-2.9151,-2.8806,-2.8123,-2.7449,-2.6821,-2.6493,-2.6245,-2.6041,-2.6041,-2.6041,-2.6041,-2.6041,-2.6041,-2.6025,0.0,-2.6097,-2.6097,-2.6168,-2.6202,-2.6203,-2.6277,-2.6401,-2.6539,-2.6504,-2.6269,-2.595,-2.5613,-2.475,-2.3708,-2.317,-2.2716,-2.234,-2.1998,-2.2173,-2.2467,-2.2392,-2.262,-2.2871,-2.2871,-2.2871,-2.2767,-2.2337,-2.1671,-2.0918,-2.0112,-1.9352,-1.8718,-1.836,-1.8205,-1.8089,-1.7954,-1.7811,-1.7681,-1.7564,-1.7559,-1.7635,-1.7777,-1.7743,-1.7732,-1.7788,-1.7653,-1.7531,-1.7458,-1.735,-1.7289,-1.7248,-1.7236,-1.7191,-1.7102,-1.7032,-1.6949,-1.6882,-1.6847,-1.6834,-1.6834,-1.6834,-1.6785,-1.6668,-1.6596,-1.645,-2.8144,-2.8506,-2.8963,-2.9185,-3.0371,-3.1221,-3.0353,-2.9127,-2.8221,-2.8351,-2.8233,-2.8127,-2.8211,-2.8697,-2.9248,-2.9799,-3.0328,-3.0684,-3.0684,-3.1299,-3.1963,-3.2514,-3.274,-3.2838,-3.2838,-3.2692,-3.2125,-3.0985,-3.0742,0.0,-2.967,-2.9119,-2.8665,-2.8304,-2.7251,-2.6643,-2.6522,-2.5972,-2.5754,-2.5897,-2.5897,-2.5897,-2.5897,-2.5897,-2.5897,-2.5899,-2.5954,-2.599,-2.6026,-2.6115,-2.6168,-2.6203,-2.6276,-2.6195,-2.6047,-2.5714,-2.5263,-2.4778,-2.4411,-2.3219,-2.1818,-2.1706,-2.1282,-2.0861,-2.1029,-2.1473,-2.1916,-2.1994,-2.2226,-2.246,-2.2541,-2.2584,-2.2447,-2.1777,-2.095,-2.0105,-1.9475,-1.863,-1.7973,-1.7973,-1.7921,-1.7845,-1.7732,-1.7577,-1.7425,-1.7359,-1.7318,-1.7333,-1.7472,-1.7403,-1.738,-1.7432,-1.7325,-1.722,-1.7141,-1.7095,-1.7057,-1.7057,-1.7083,-1.7057,-1.6972,-1.6821,-1.6712,-1.6604,-1.653,-1.6477,-1.6448,-1.6448,-1.638,-1.6258,-1.6231,-1.6081,-2.7365,-2.7415,-2.7706,-2.8841,-3.0227,-3.1106,-3.0201,-2.9345,-2.8945,-2.9626,-2.92,-2.894,-2.9621,-2.9783,-2.9832,-2.988,-2.9929,-2.9961,-2.9961,-3.0554,-3.1001,-3.105,-3.1648,-3.2093,-3.2093,-3.1454,-3.1017,-3.092,0.0,0.0,-2.8924,-2.8843,-2.819,-2.6879,-2.6749,-2.6377,-2.5697,-2.5632,-2.5694,-2.5897,-2.5897,-2.5897,-2.5897,-2.5897,-2.5897,-2.5897,-2.5915,-2.5936,-2.5992,-2.6026,-2.6097,-2.6202,-2.6203,-2.5789,-2.5028,-2.3652,-2.3121,-2.2889,-2.1512,-2.0946,-2.0697,-2.0019,-1.9757,-1.984,-2.0531,-2.0737,-2.0848,-2.1541,-2.1709,-2.1738,-2.2053,-2.2245,-2.229,-2.2102,-2.0958,-1.99,-1.9773,-1.8636,-1.7647,-1.7647,-1.7584,-1.7509,-1.7444,-1.7365,-1.7285,-1.7224,-1.7199,-1.7195,-1.7138,-1.701,-1.6952,-1.6952,-1.6837,-1.6722,-1.6662,-1.6649,-1.6636,-1.6636,-1.694,-1.7016,-1.6815,-1.6688,-1.6514,-1.6326,-1.6191,-1.6065,-1.5949,-1.5949,-1.5907,-1.5837,-1.5781,-1.5667,-2.6733,-2.695,-2.7474,-2.8234,-2.9173,-2.9933,-2.9941,-2.9351,-2.9021,-2.9734,-2.967,-2.9426,-2.9248,-2.9589,-2.9734,-2.9297,-2.9939,-3.0522,-3.0522,-3.1137,-3.1568,-3.1568,-3.1834,-3.181,-3.1357,-3.1066,-3.0726,-3.0295,0.0,0.0,-2.8806,-2.7964,-2.7251,-2.6717,-2.6264,-2.5872,-2.5597,-2.5597,-2.5635,-2.5712,-2.5712,-2.5712,-2.5712,-2.5712,-2.5712,-2.5712,-2.577,-2.5791,-2.5811,-2.5899,-2.597,-2.5974,-2.5513,-2.4888,-2.4165,-2.3161,-2.2206,-2.1333,-2.0774,-1.9984,-1.9161,-1.8884,-1.8789,-1.8933,-1.9657,-2.0186,-2.0683,-2.1328,-2.1557,-2.1634,-2.1796,-2.1873,-2.1858,-2.184,-2.0683,-1.9581,-1.9571,-1.8434,-1.7422,-1.7422,-1.7382,-1.7358,-1.735,-1.7277,-1.722,-1.7199,-1.707,-1.6908,-1.6802,-1.6672,-1.6554,-1.6472,-1.638,-1.6285,-1.6172,-1.6159,-1.6159,-1.6159,-1.6554,-1.6701,-1.6503,-1.6355,-1.6005,-1.5386,-1.5237,-1.4959,-1.4539,-1.4903,-1.5014,-1.4874,-1.5271,-1.5314,-2.6402,-2.6568,-2.7011,-2.7282,-2.7879,-2.8555,-2.908,-2.9183,-2.9324,-3.0014,-3.0109,-2.9881,-2.9331,-2.946,-2.9476,-2.8978,-2.9695,-3.0337,-3.0337,-3.0801,-3.1153,-3.12,-3.1262,-3.1092,-3.0635,-3.0587,-3.0295,-2.9605,0.0,0.0,0.0,-2.7219,-2.6587,-2.6361,-2.5856,-2.5597,-2.5597,-2.5562,-2.5524,-2.5521,-2.5521,-2.554,-2.5597,-2.5597,-2.5597,-2.5597,-2.5659,-2.568,-2.5719,-2.5791,-2.5715,-2.5455,-2.4505,-2.3719,-2.2965,-2.1752,-2.0672,-1.9771,-1.9558,-1.8821,-1.8018,-1.8231,-1.8166,-1.8198,-1.9394,-1.9921,-2.0301,-2.1157,-2.1449,-2.1511,-2.1587,-2.1603,-2.1604,-2.1602,-2.0444,-1.9325,-1.927,-1.8134,-1.71,-1.7079,-1.7079,-1.7079,-1.7079,-1.7041,-1.702,-1.702,-1.6808,-1.6594,-1.6463,-1.6287,-1.612,-1.5995,-1.594,-1.5869,-1.5782,-1.5766,-1.5766,-1.5766,-1.6079,-1.6203,-1.6107,-1.5982,-1.5496,-1.463,-1.448,-1.4103,-1.3474,-1.3885,-1.4109,-1.4141,-1.4571,-1.4735,-2.6419,-2.6202,-2.6166,-2.5968,-2.6421,-2.7049,-2.7599,-2.8822,-3.0053,-3.0573,-3.0526,-3.0354,-3.0212,-2.9572,-2.9075,-2.9098,-2.9075,-2.9075,-2.9075,-2.9213,-2.935,-2.947,-2.9614,-2.9764,-2.9896,-2.988,-2.9589,-2.8859,0.0,0.0,0.0,-2.6685,-2.6361,-2.5613,-2.5597,-2.5597,-2.5597,-2.547,-2.5375,-2.5294,-2.5294,-2.5391,-2.5597,-2.5597,-2.5597,-2.5597,-2.5597,-2.5656,-2.5701,-2.5701,-2.5332,-2.4652,-2.3244,-2.2244,-2.1309,-1.9116,-1.8284,-1.8186,-1.7539,-1.7293,-1.7408,-1.8071,-1.7838,-1.7687,-1.9836,-1.9927,-1.9595,-2.1011,-2.1356,-2.1309,-2.1371,-2.148,-2.1557,-2.1417,-2.0267,-1.9157,-1.9031,-1.7796,-1.667,-1.6623,-1.6596,-1.6596,-1.6596,-1.6596,-1.6596,-1.6596,-1.6423,-1.6246,-1.6109,-1.5854,-1.5638,-1.5507,-1.5477,-1.5477,-1.5477,-1.5477,-1.5477,-1.5477,-1.5477,-1.5551,-1.5681,-1.5565,-1.5067,-1.4198,-1.4041,-1.3657,-1.2981,-1.2995,-1.3277,-1.3778,-1.3659,-1.3885,-2.6901,-2.6893,-2.6914,-2.7234,-2.7689,-2.8086,-2.8121,-2.864,-2.9205,-2.9501,-2.939,-2.8975,-2.8217,-2.8333,-2.8364,-2.786,-2.8115,-2.8384,-2.8384,-2.8519,-2.8724,-2.9044,-2.9266,-2.9547,-2.9874,-2.9426,-2.9038,0.0,0.0,0.0,0.0,-2.6215,-2.5843,-2.5597,-2.5597,-2.5597,-2.5597,-2.5429,-2.5224,-2.5017,-2.4954,-2.5088,-2.5391,-2.5432,-2.5505,-2.5597,-2.5597,-2.5616,-2.5637,-2.5637,-2.4926,-2.3793,-2.285,-2.1435,-1.976,-1.8592,-1.7821,-1.7332,-1.7039,-1.692,-1.6898,-1.7042,-1.6981,-1.7109,-1.8738,-1.9075,-1.9173,-2.0591,-2.0958,-2.0958,-2.0958,-2.1006,-2.1103,-2.134,-2.0208,-1.9015,-1.8886,-1.7618,-1.6463,-1.634,-1.6287,-1.6246,-1.6246,-1.6176,-1.6104,-1.6104,-1.598,-1.5812,-1.558,-1.5344,-1.518,-1.5087,-1.5072,-1.5057,-1.5011,-1.5011,-1.5011,-1.5011,-1.5011,-1.4917,-1.4731,-1.4587,-1.394,-1.2669,-1.2521,-1.2122,-1.1449,-1.2306,-1.2704,-1.2694,-1.35,-1.3918,-2.7044,-2.7151,-2.72,-2.7627,-2.7883,-2.8072,-2.8241,-2.8541,-2.8742,-2.8771,-2.8606,-2.8196,-2.7494,-2.7729,-2.7866,-2.7349,-2.7582,-2.779,-2.7725,-2.7874,-2.8134,-2.8535,-2.8811,-2.9129,-2.9547,-2.895,-2.8405,0.0,0.0,0.0,0.0,-2.5612,-2.5352,-2.5352,-2.5352,-2.5352,-2.5352,-2.5143,-2.491,-2.4659,-2.4614,-2.471,-2.4926,-2.5166,-2.5233,-2.5146,-2.4887,-2.4774,-2.4742,-2.445,-2.3657,-2.2523,-2.1519,-2.0158,-1.8683,-1.7954,-1.7371,-1.6902,-1.6766,-1.6659,-1.6615,-1.6774,-1.6653,-1.6747,-1.8419,-1.8732,-1.878,-2.0171,-2.0562,-2.0562,-2.0562,-2.0545,-2.0629,-2.1055,-1.9936,-1.8723,-1.8589,-1.7292,-1.6079,-1.5953,-1.5897,-1.587,-1.587,-1.5797,-1.5739,-1.5739,-1.5609,-1.5404,-1.5162,-1.5011,-1.4889,-1.4839,-1.4824,-1.4777,-1.4651,-1.4651,-1.4636,-1.4604,-1.4604,-1.4373,-1.3836,-1.3911,-1.3291,-1.1901,-1.1783,-1.1501,-1.1033,-1.1723,-1.2175,-1.2404,-1.3037,-1.3395,-2.6902,-2.7045,-2.7079,-2.7489,-2.737,-2.7337,-2.8083,-2.8415,-2.8527,-2.828,-2.8067,-2.7835,-2.7575,-2.7524,-2.7473,-2.7335,-2.7299,-2.7233,-2.7019,-2.7236,-2.754,-2.7938,-2.8222,-2.8519,-2.8865,-2.8304,-2.7595,0.0,0.0,0.0,0.0,-2.4926,-2.4926,-2.4946,-2.4946,-2.4946,-2.4946,-2.467,-2.44,-2.4148,-2.4188,-2.4188,-2.4168,-2.4779,-2.4824,-2.4414,-2.3735,-2.3445,-2.3397,-2.2668,-2.1876,-2.1035,-1.9677,-1.8658,-1.7885,-1.7284,-1.6924,-1.6738,-1.6594,-1.6463,-1.6409,-1.6899,-1.6672,-1.6579,-1.8546,-1.8699,-1.8498,-1.9769,-2.0122,-2.0122,-2.0122,-2.0085,-2.0135,-2.0562,-1.9483,-1.8269,-1.8099,-1.6789,-1.5624,-1.5477,-1.5463,-1.5463,-1.5463,-1.5433,-1.5433,-1.5433,-1.5269,-1.5101,-1.4917,-1.4839,-1.4777,-1.4714,-1.4699,-1.459,-1.4413,-1.4381,-1.4319,-1.4238,-1.4222,-1.3845,-1.3019,-1.3409,-1.3035,-1.1748,-1.1668,-1.1562,-1.1428,-1.1332,-1.1751,-1.2615,-1.2413,-1.2585,-2.6619,-2.6646,-2.6496,-2.7978,-2.7886,-2.7512,-2.7826,-2.786,-2.781,-2.769,-2.7519,-2.7284,-2.7026,-2.6841,-2.6721,-2.6709,-2.6513,-2.6353,-2.6312,-2.6457,-2.6718,-2.7108,-2.7399,-2.7529,-2.7447,-2.6811,0.0,0.0,0.0,0.0,-2.4302,-2.4287,-2.4328,-2.4446,-2.4446,-2.4446,-2.4446,-2.4168,-2.3684,0.0,-2.3456,-2.3426,-2.3004,-2.4168,-2.4457,-2.3978,-2.3313,-2.3028,-2.298,-2.2296,-2.126,-2.0034,-1.9221,-1.8077,-1.6908,-1.6765,-1.6583,-1.6396,-1.6246,-1.6052,-1.5854,-1.586,-1.6099,-1.6529,-1.7497,-1.8076,-1.8535,-1.934,-1.9563,-1.9563,-1.9563,-1.9563,-1.9578,-1.9672,-1.8742,-1.7679,-1.7088,-1.6127,-1.5329,-1.5134,-1.5058,-1.5026,-1.5026,-1.498,-1.4949,-1.4949,-1.4917,-1.4871,-1.4839,-1.4808,-1.4777,-1.4714,-1.4608,-1.4467,-1.4319,-1.4127,-1.3964,-1.3848,-1.3672,-1.312,-1.2054,-1.279,-1.2831,-1.1939,-1.1912,-1.1797,-1.1553,-1.1893,-1.2045,-1.2005,-1.2311,-1.2477,-2.5583,-2.5724,-2.577,-2.7379,-2.7595,-2.7448,-2.7634,-2.7534,-2.7268,-2.6775,-2.6894,-2.7015,-2.6698,-2.6578,-2.6457,-2.6338,-2.6192,-2.6084,-2.6002,-2.5868,-2.5907,-2.6231,-2.6209,-2.616,-2.618,-2.555,0.0,0.0,0.0,-2.3638,-2.3717,-2.3717,-2.3739,-2.3818,-2.3824,-2.3824,-2.3824,-2.3323,-2.2846,-2.2321,-2.2332,-2.2232,-2.2062,-2.2712,-2.2888,-2.2582,-2.1271,-2.0692,-2.0676,-2.0298,-1.9499,-1.8468,-1.8094,-1.7241,-1.627,-1.6342,-1.6203,-1.6041,-1.623,-1.6144,-1.5962,-1.6114,-1.6384,-1.6758,-1.7444,-1.7879,-1.8285,-1.8927,-1.9101,-1.9101,-1.9101,-1.9097,-1.8987,-1.8668,-1.8022,-1.7351,-1.6928,-1.5935,-1.5071,-1.4935,-1.4856,-1.4779,-1.4718,-1.4637,-1.4572,-1.4572,-1.4572,-1.4572,-1.4572,-1.4572,-1.4511,-1.4385,-1.4308,-1.4133,-1.3852,-1.3689,-1.3505,-1.3276,-1.316,-1.2796,-1.2111,-1.2555,-1.2348,-1.1345,-1.1513,-1.1643,-1.1705,-1.1822,-1.1854,-1.185,-1.1975,-1.1993,-2.4347,-2.4899,-2.5366,-2.6476,-2.6985,-2.7218,-2.7223,-2.7065,-2.668,-2.581,-2.6319,-2.6788,-2.6407,-2.6385,-2.6322,-2.5996,-2.5928,-2.5846,-2.5625,-2.524,-2.5071,-2.5314,-2.5005,-2.4791,-2.4901,-2.4426,0.0,0.0,0.0,-2.312,-2.3127,-2.3127,-2.3164,-2.3187,-2.3187,-2.3128,-2.3025,-2.2395,-2.193,-2.1612,-2.1098,-2.1012,-2.1274,-2.1031,-2.1023,-2.1095,-1.9191,-1.8422,-1.853,-1.8221,-1.7807,-1.7319,-1.7015,-1.6516,-1.5989,-1.5984,-1.5915,-1.5847,-1.6274,-1.6381,-1.6373,-1.6738,-1.6929,-1.7114,-1.7687,-1.7896,-1.8063,-1.856,-1.8702,-1.8702,-1.8702,-1.8659,-1.8473,-1.7918,-1.7491,-1.7119,-1.6915,-1.5821,-1.4871,-1.4808,-1.4685,-1.4545,-1.4422,-1.4273,-1.4127,-1.4127,-1.4127,-1.4127,-1.4127,-1.4127,-1.4078,-1.3888,-1.3871,-1.3689,-1.3268,-1.3199,-1.304,-1.2733,-1.265,-1.2508,-1.2236,-1.2289,-1.1792,-1.0643,-1.1136,-1.154,-1.1809,-1.156,-1.1581,-1.1811,-1.1553,-1.1442,-2.3605,-2.5098,-2.6249,-2.6225,-2.654,-2.6725,-2.6221,-2.5948,-2.5664,-2.5053,-2.5792,-2.6393,-2.5808,-2.5969,-2.5967,-2.5402,-2.5212,-2.4976,-2.4416,-2.4287,-2.4256,-2.4306,-2.4236,-2.3992,-2.3437,-2.331,0.0,0.0,-2.2413,-2.2394,-2.2509,-2.2509,-2.2578,-2.2692,-2.2692,-2.2411,-2.1843,-2.1735,-2.1148,-2.0093,-2.0007,-2.0251,-2.076,-1.9759,-1.9841,-2.07,-1.9268,-1.8983,-1.9419,-1.8179,-1.7935,-1.818,-1.6955,-1.6422,-1.6273,-1.5773,-1.5815,-1.614,-1.6149,-1.6407,-1.6727,-1.6736,-1.7078,-1.7529,-1.7613,-1.7917,-1.826,-1.8279,-1.8268,-1.8268,-1.8268,-1.8268,-1.8234,-1.8151,-1.76,-1.689,-1.6056,-1.5318,-1.4808,-1.4808,-1.4465,-1.4146,-1.4,-1.3722,-1.3522,-1.3522,-1.3522,-1.3522,-1.3522,-1.3522,-1.3488,-1.3391,-1.3336,-1.3212,-1.2965,-1.2738,-1.2514,-1.2282,-1.2066,-1.1703,-1.1134,-1.1442,-1.1328,-1.0703,-1.1705,-1.2118,-1.1879,-1.168,-1.1535,-1.1459,-1.1258,-1.1182,-2.219,-2.3648,-2.4973,-2.5648,-2.6154,-2.6504,-2.6476,-2.6213,-2.5712,-2.4773,-2.5097,-2.5412,-2.4951,-2.4995,-2.4991,-2.4645,-2.4512,-2.4388,-2.4134,-2.3783,-2.3544,-2.3544,-2.3248,-2.2925,-2.263,-2.2615,0.0,0.0,-2.2208,-2.2231,-2.2278,-2.2301,-2.2301,-2.237,-2.237,-2.2073,-2.1427,-2.1102,-2.0295,-1.9084,-1.9403,-1.9585,-1.9561,-1.9401,-1.9488,-1.9673,-1.8402,-1.8006,-1.8218,-1.7931,-1.7713,-1.749,-1.6879,-1.6383,-1.599,-1.5795,-1.5803,-1.6018,-1.675,-1.7121,-1.7293,-1.7609,-1.7899,-1.8091,-1.8091,-1.8177,-1.8214,-1.8036,-1.7955,-1.7935,-1.7975,-1.7955,-1.7915,-1.7915,-1.7301,-1.6554,-1.5944,-1.5378,-1.4831,-1.4387,-1.4313,-1.4136,-1.359,-1.355,-1.3476,-1.3176,-1.3388,-1.3458,-1.3112,-1.2993,-1.2906,-1.2814,-1.2696,-1.2538,-1.23,-1.2174,-1.1975,-1.1653,-1.1534,-1.1288,-1.0929,-1.1074,-1.1047,-1.0827,-1.1534,-1.1774,-1.1505,-1.1226,-1.1048,-1.0947,-1.0774,-1.0717,-2.1239,-2.2362,-2.3529,-2.4758,-2.5284,-2.5612,-2.604,-2.5835,-2.5282,-2.435,-2.4241,-2.4197,-2.3885,-2.4042,-2.4162,-2.3892,-2.3839,-2.3783,-2.3628,-2.3192,-2.2859,-2.2859,-2.2475,-2.2208,-2.2208,0.0,0.0,0.0,-2.2208,-2.2208,-2.2208,-2.2208,-2.2208,-2.2208,-2.2208,-2.1842,-2.1068,-2.0302,-1.9445,-1.8512,-1.8961,-1.8987,-1.8667,-1.9154,-1.9211,-1.8879,-1.783,-1.7441,-1.7544,-1.7813,-1.758,-1.7012,-1.6842,-1.6338,-1.5691,-1.5632,-1.5757,-1.6101,-1.7103,-1.7585,-1.7861,-1.8285,-1.84,-1.8366,-1.8361,-1.8169,-1.7935,-1.7666,-1.7557,-1.7516,-1.7585,-1.7557,-1.7496,-1.7523,-1.6955,-1.6301,-1.5772,-1.5358,-1.4871,-1.4219,-1.4187,-1.4067,-1.3499,-1.3448,-1.3397,-1.3113,-1.3324,-1.3311,-1.2806,-1.2472,-1.2216,-1.2066,-1.1891,-1.1708,-1.1516,-1.1497,-1.1348,-1.1029,-1.0973,-1.0897,-1.0706,-1.0668,-1.0678,-1.0678,-1.0973,-1.1086,-1.0992,-1.0725,-1.0553,-1.0448,-1.037,-1.0302,-2.1356,-2.2002,-2.272,-2.3432,-2.3486,-2.3483,-2.3961,-2.3752,-2.3448,-2.3455,-2.3208,-2.2915,-2.2562,-2.3374,-2.3906,-2.3252,-2.3154,-2.2943,-2.2376,-2.2278,-2.225,-2.225,-2.2222,-2.2208,-2.2208,0.0,0.0,0.0,-2.2208,-2.2208,-2.2208,-2.2208,-2.2208,-2.2208,-2.2208,-2.1645,-2.0456,-1.9234,-1.8568,-1.8498,-1.8526,-1.8526,-1.8517,-1.8662,-1.8754,-1.8683,-1.8122,-1.8188,-1.866,-1.7992,-1.7681,-1.7596,-1.6955,-1.6283,-1.5635,-1.5075,-1.5609,-1.6666,-1.6737,-1.7422,-1.8257,-1.8234,-1.8115,-1.8022,-1.7949,-1.7693,-1.7393,-1.7131,-1.6997,-1.696,-1.7026,-1.6997,-1.696,-1.7026,-1.6761,-1.6225,-1.5246,-1.5006,-1.4936,-1.4706,-1.4068,-1.3639,-1.3911,-1.3392,-1.3077,-1.3504,-1.3204,-1.2858,-1.263,-1.1877,-1.129,-1.1094,-1.084,-1.0678,-1.0659,-1.0659,-1.0592,-1.0457,-1.039,-1.0303,-1.0157,-1.0078,-1.0039,-1.0039,-1.0059,-1.0205,-1.0438,-1.0351,-1.0225,-1.0019,-1.0088,-1.0088,-1.9493,-2.0301,-2.1222,-2.1451,-2.2069,-2.2643,-2.2727,-2.3217,-2.3541,-2.3274,-2.3274,-2.3201,-2.2686,-2.2677,-2.2678,-2.243,-2.2317,-2.2186,-2.1977,-2.1949,-2.1949,-2.1949,-2.1949,-2.1996,-2.2067,0.0,0.0,0.0,0.0,-2.2208,-2.2208,-2.2208,-2.2208,-2.2208,-2.2208,-2.1631,-2.0414,-1.915,-1.8498,-1.8498,-1.8498,-1.8498,-1.8498,-1.8556,-1.8576,-1.8562,-1.8355,-1.846,-1.8721,-1.8456,-1.8295,-1.8148,-1.7524,-1.6888,-1.6312,-1.6104,-1.6031,-1.6185,-1.6986,-1.7437,-1.7683,-1.7892,-1.7767,-1.753,-1.7359,-1.7081,-1.6765,-1.6493,-1.6355,-1.6337,-1.6407,-1.6355,-1.6306,-1.6151,-1.5844,-1.5484,-1.504,-1.5,-1.4886,-1.4233,-1.4132,-1.4009,-1.3554,-1.348,-1.34,-1.3183,-1.2995,-1.2693,-1.2095,-1.1371,-1.0829,-1.0572,-1.0351,-1.0205,-1.0205,-1.0205,-1.0147,-1.003,-0.999,-0.9912,-0.9716,-0.9686,-0.9646,-0.9547,-0.9547,-0.9705,-1.001,-0.9863,-0.9745,-0.9686,-0.9705,-0.9666,-1.8445,-1.9214,-2.0062,-2.0033,-2.063,-2.1295,-2.1663,-2.2251,-2.2811,-2.3108,-2.3279,-2.3261,-2.2891,-2.2457,-2.2123,-2.1973,-2.1817,-2.1722,-2.1688,-2.1688,-2.1688,-2.1688,-2.1712,-2.1793,-2.1926,0.0,0.0,0.0,0.0,0.0,-2.2208,-2.2208,-2.2208,-2.2208,-2.1814,-2.1201,-2.0414,-1.915,-1.8498,-1.8498,-1.8498,-1.8498,-1.8498,-1.8498,-1.8498,-1.8498,-1.8498,-1.8556,-1.8634,-1.8634,-1.8449,-1.8147,-1.7759,-1.7207,-1.6614,-1.6386,-1.625,-1.6267,-1.6876,-1.7212,-1.7359,-1.7484,-1.7305,-1.6993,-1.6795,-1.6509,-1.6207,-1.5986,-1.5888,-1.5856,-1.5908,-1.5888,-1.5746,-1.539,-1.5108,-1.4857,-1.4651,-1.4799,-1.4779,-1.4198,-1.4138,-1.4056,-1.3618,-1.3532,-1.3444,-1.3172,-1.2818,-1.2352,-1.1747,-1.0924,-1.0293,-1.0059,-0.9813,-0.9664,-0.9664,-0.9664,-0.9625,-0.9536,-0.9536,-0.9457,-0.9308,-0.9259,-0.9159,-0.9039,-0.9007,-0.9108,-0.9337,-0.9328,-0.9299,-0.9239,-0.9299,-0.9248,0.0,0.0,0.0,-1.9265,-1.9101,-1.9311,-2.0623,-2.0716,-2.1077,-2.2852,-2.303,-2.2917,-2.3054,-2.2785,-2.2374,-2.1888,-2.1698,-2.1544,-2.1423,-2.1399,-2.1399,-2.1399,-2.152,-2.164,-2.1769,0.0,0.0,0.0,-2.2184,-2.2208,-2.2208,-2.2208,-2.2194,-2.218,-2.1018,-2.0386,-2.0372,-1.9136,-1.8498,-1.8498,-1.8498,-1.8498,-1.8498,-1.8498,-1.8498,-1.8498,-1.8498,-1.8498,-1.8498,-1.8498,-1.8147,-1.7632,-1.7632,-1.717,-1.6452,-1.5768,-1.6174,-1.6951,-1.6318,-1.664,-1.7305,-1.7055,-1.6752,-1.6436,-1.6231,-1.5991,-1.5748,-1.5613,-1.5524,-1.5501,-1.5568,-1.5536,-1.5334,-1.4811,-1.4639,-1.4465,-1.4067,-1.4337,-1.4639,-1.4581,-1.4058,-1.3715,-1.41,-1.3526,-1.3128,-1.348,-1.2599,-1.1804,-1.1587,-1.0536,-0.9707,-0.9518,-0.9197,-0.9013,-0.9013,-0.9021,-0.903,-0.903,-0.903,-0.8998,-0.8925,-0.8786,-0.8655,-0.8524,-0.8459,-0.8417,-0.8409,-0.8781,-0.8895,-0.8695,-0.8895,-0.8874,-1.7785,0.0,0.0,0.0,0.0,0.0,-1.8689,-1.9386,-2.0206,-2.1082,-2.187,-2.2493,-2.2813,-2.2979,-2.2867,-2.2258,-2.1851,-2.152,-2.1302,-2.1253,-2.1229,-2.1106,-2.1229,-2.135,-2.1496,0.0,0.0,0.0,-2.2067,-2.2114,-2.2184,-2.2208,-2.1997,-2.1547,-2.0793,-2.0175,-1.9677,-1.8891,-1.8498,-1.8498,-1.8498,-1.8498,-1.8498,-1.8498,-1.8498,-1.8498,-1.8498,-1.8445,-1.8358,-1.8464,-1.84,-1.8245,-1.8245,-1.7772,-1.7033,-1.6535,-1.6195,-1.5949,-1.5957,-1.6026,-1.6127,-1.6291,-1.6105,-1.5812,-1.5614,-1.5435,-1.5289,-1.5244,-1.521,-1.5187,-1.5108,-1.5006,-1.4834,-1.4535,-1.4246,-1.3931,-1.3634,-1.3433,-1.3423,-1.38,-1.3729,-1.3536,-1.3355,-1.3155,-1.2862,-1.2426,-1.1814,-1.1219,-1.0712,-1.003,-0.9478,-0.9177,-0.9235,-0.9249,-0.9143,-0.9363,-0.9498,-0.9498,-0.9498,-0.9484,-0.9412,-0.927,-0.915,-0.9,-0.8888,-0.8705,-0.8481,-0.8534,-0.8537,-0.8475,-0.8435,-0.8345,-1.7954,-1.7633,-1.7346,-1.7306,0.0,0.0,-1.7896,-1.8443,-1.9152,-1.9986,-2.0662,-2.1301,-2.1929,-2.2189,-2.2161,-2.1771,-2.1428,-2.1167,-2.1113,-2.1095,-2.1035,-2.0898,-2.0997,-2.112,0.0,-2.1423,-2.164,-2.1902,-2.1973,-2.2067,-2.2184,-2.2208,-2.1912,-2.133,-2.0695,-2.0091,-1.9404,-1.8807,-1.8498,-1.8498,-1.8498,-1.8498,-1.8498,-1.8498,-1.8498,-1.8498,-1.8498,-1.8406,-1.8254,-1.8214,-1.8234,-1.8293,-1.8248,-1.7883,-1.7273,-1.6697,-1.6258,-1.5883,-1.5699,-1.5653,-1.5715,-1.5845,-1.569,-1.5446,-1.5278,-1.5108,-1.5006,-1.4949,-1.4857,-1.4766,-1.457,-1.4466,-1.4303,-1.3918,-1.3637,-1.3375,-1.3011,-1.2769,-1.2711,-1.3122,-1.3156,-1.3045,-1.2769,-1.2493,-1.2116,-1.164,-1.0976,-1.0418,-1.0046,-0.9588,-0.9249,-0.9168,-0.9253,-0.9308,-0.9332,-0.9454,-0.9529,-0.9529,-0.9529,-0.9506,-0.9437,-0.9306,-0.9159,-0.9036,-0.8927,-0.8647,-0.8173,-0.832,-0.8286,-0.8106,-0.803,-0.7912,-1.8481,-1.7906,-1.7383,-1.7334,-1.7207,0.0,-1.7797,-1.7804,-1.8049,-1.9246,-1.95,-1.9778,-2.0668,-2.0828,-2.0809,-2.0764,-2.0643,-2.0661,-2.0936,-2.0892,-2.0833,-2.0749,-2.085,-2.0949,-2.1021,-2.1253,-2.152,-2.1769,-2.1949,-2.2067,-2.2184,-2.2137,-2.1828,-2.1209,-2.0618,-1.9957,-1.9305,-1.8779,-1.8498,-1.8478,-1.8478,-1.8459,-1.8445,-1.8439,-1.8439,-1.8439,-1.8439,-1.8321,-1.8089,-1.7841,-1.7808,-1.7942,-1.7848,-1.7625,-1.7237,-1.6462,-1.6282,-1.6296,-1.5547,-1.5471,-1.5703,-1.5568,-1.5424,-1.5267,-1.5131,-1.5006,-1.4835,-1.4651,-1.4443,-1.4233,-1.3962,-1.3868,-1.3716,-1.3074,-1.2895,-1.2759,-1.2323,-1.22,-1.224,-1.2423,-1.2452,-1.2406,-1.2249,-1.174,-1.1253,-1.1025,-1.023,-0.9611,-0.9534,-0.9252,-0.9122,-0.9346,-0.9324,-0.9343,-0.9515,-0.9416,-0.9346,-0.9346,-0.9346,-0.9314,-0.926,-0.9119,-0.8985,-0.8867,-0.8727,-0.835,-0.7736,-0.8128,-0.8048,-0.7587,-0.7587,-0.7538,-1.7938,-1.7553,-1.7394,-1.7383,-1.7273,0.0,-1.7328,-1.7258,-1.7353,-1.8089,-1.858,-1.906,-1.9681,-2.0083,-2.0256,-1.9986,-2.0175,-2.0458,-2.0712,-2.0647,-2.0657,-2.0906,-2.1071,-2.1144,-2.1155,-2.1302,-2.152,-2.1769,-2.202,-2.2184,-2.2208,-2.1729,-2.1195,-2.0583,-1.9929,-1.9312,-1.868,-1.8554,-1.8445,-1.8338,-1.8288,-1.8208,-1.8101,-1.8049,-1.8023,-1.8023,-1.8023,-1.7868,-1.7632,-1.7406,-1.7434,-1.7578,-1.7406,-1.7136,-1.6782,-1.6295,-1.5975,-1.57,-1.5284,-1.5185,-1.5221,-1.5221,-1.5176,-1.5131,-1.5108,-1.4926,-1.4617,-1.4118,-1.3789,-1.3539,-1.3256,-1.3112,-1.2943,-1.2598,-1.2304,-1.2067,-1.1852,-1.1653,-1.1519,-1.1535,-1.1893,-1.2101,-1.1852,-1.1706,-1.1317,-1.0435,-1.0129,-0.9777,-0.9126,-0.9207,-0.9282,-0.9172,-0.9528,-0.9723,-0.9674,-0.97,-0.9708,-0.9708,-0.9591,-0.9533,-0.9525,-0.938,-0.9304,-0.9278,-0.8691,-0.8268,-0.8023,-0.7788,-0.7402,-0.6894,-0.6894,-0.6873,-1.8325,-1.7838,-1.7472,-1.7419,-1.7351,0.0,0.0,-1.7124,-1.712,-1.7396,-1.7613,-1.7934,-1.8496,-1.8765,-1.8902,-1.8896,-1.8986,-1.9221,-1.9698,-2.0315,-2.0752,-2.0758,-2.1078,0.0,-2.0897,-2.1247,-2.1616,-2.1864,-2.2091,-2.2208,-2.2208,-2.1617,-2.1012,-2.0414,-1.9747,-1.9115,-1.8512,-1.8498,-1.842,-1.8254,-1.8075,-1.7902,-1.776,-1.7611,-1.7543,-1.7543,-1.7543,-1.7406,-1.7131,-1.6934,-1.6808,-1.6752,-1.6752,-1.6582,-1.6315,-1.5964,-1.5668,-1.5424,-1.5176,-1.5062,-1.4983,-1.4926,-1.4891,-1.4846,-1.4766,-1.4408,-1.3954,-1.3437,-1.3146,-1.289,-1.2696,-1.2598,-1.2476,-1.2141,-1.1918,-1.1728,-1.1452,-1.1251,-1.1074,-1.1023,-1.115,-1.1352,-1.1477,-1.1345,-1.1011,-1.0488,-1.0089,-0.9738,-0.9443,-0.9344,-0.9347,-0.9489,-0.9471,-0.9514,-0.9653,-0.9336,-0.9204,-0.9302,-0.9126,-0.8995,-0.8995,-0.8942,-0.889,-0.889,-0.8469,-0.8095,-0.7747,-0.7474,-0.7127,-0.6696,-0.6588,-0.6547,-1.9195,-1.8502,-1.7858,-1.7678,-1.7518,-1.7371,0.0,0.0,0.0,-1.7048,-1.6918,-1.6974,-1.7438,0.0,0.0,-1.7731,0.0,0.0,0.0,-1.9801,0.0,-2.0429,-2.0832,0.0,-2.0615,-2.1127,-2.1562,-2.1648,-2.1787,-2.1833,-2.1833,-2.1221,-2.0651,-2.0132,-1.9461,-1.8882,-1.838,-1.838,-1.8282,-1.8049,-1.7814,-1.7578,-1.7372,-1.7165,-1.7073,-1.7073,-1.7073,-1.6947,-1.671,-1.6488,-1.6241,-1.5979,-1.6129,-1.6054,-1.5846,-1.5613,-1.5424,-1.5244,-1.5131,-1.5006,-1.4823,-1.4608,-1.4426,-1.4276,-1.4154,-1.3718,-1.316,-1.2749,-1.2476,-1.2274,-1.215,-1.2101,-1.2026,-1.1703,-1.1566,-1.1414,-1.104,-1.0789,-1.059,-1.0431,-1.0281,-1.0379,-1.1023,-1.088,-1.0636,-1.056,-0.9987,-0.9614,-0.9717,-0.9406,-0.9313,-0.9713,-0.9295,-0.9137,-0.9467,-0.8823,-0.8496,-0.8685,-0.8441,-0.8315,-0.8315,-0.8289,-0.8262,-0.8262,-0.8082,-0.7761,-0.7347,-0.7121,-0.6862,-0.6566,-0.6405,-0.6308,-2.0382,-1.9537,-1.8861,-1.8626,-1.7975,-1.7406,-1.7383,0.0,-1.719,-1.719,0.0,-1.6962,-1.6917,0.0,0.0,0.0,0.0,0.0,-1.8244,-1.8852,-1.9427,-1.9992,-2.012,0.0,0.0,-2.1033,-2.0943,-2.0444,-2.0517,-2.0539,-2.0424,-1.9732,-1.9266,-1.9085,-1.8419,-1.8031,-1.7963,-1.7963,-1.7848,-1.7578,-1.7365,-1.7157,-1.696,-1.6693,-1.6586,-1.6586,-1.6586,-1.6522,-1.6436,-1.6163,-1.5957,-1.5814,-1.577,-1.5614,-1.5368,-1.5357,-1.5233,-1.5108,-1.5108,-1.4926,-1.463,-1.4083,-1.3584,-1.3175,-1.3158,-1.2933,-1.2594,-1.2132,-1.1819,-1.1578,-1.1452,-1.1418,-1.1402,-1.1352,-1.1077,-1.0755,-1.0529,-1.0057,-0.9603,-0.9408,-0.9158,-0.9326,-1.0402,-1.0541,-1.0404,-1.0043,-0.9659,-0.9358,-0.9121,-0.9044,-0.908,-0.9173,-0.9067,-0.9009,-0.9059,-0.8492,-0.819,-0.8256,-0.807,-0.7957,-0.7957,-0.7857,-0.7777,-0.7777,-0.7402,-0.7203,-0.7122,-0.6655,-0.6289,-0.6087,-0.606,-0.594,-2.0446,-1.968,-1.8998,0.0,0.0,0.0,-1.7407,0.0,-1.7285,0.0,0.0,0.0,0.0,0.0,0.0,0.0,-1.6575,0.0,0.0,0.0,-1.7806,0.0,0.0,0.0,0.0,0.0,0.0,0.0,-2.0006,-1.9908,-2.0071,-1.9347,-1.8835,-1.8617,-1.7864,-1.7502,-1.7502,-1.7502,-1.7365,-1.7089,-1.6892,-1.6693,-1.647,-1.6231,-1.6088,-1.6088,-1.6088,-1.6057,-1.5991,-1.5881,-1.5703,-1.5503,-1.5492,-1.5345,-1.5165,-1.5006,-1.4891,-1.48,-1.472,-1.4512,-1.4212,-1.3628,-1.3181,-1.2807,-1.2648,-1.2403,-1.2132,-1.1769,-1.1519,-1.1368,-1.1318,-1.1301,-1.1241,-1.1002,-1.0815,-1.0564,-1.0045,-0.9715,-0.9397,-0.9078,-0.8834,-0.8839,-0.9318,-0.9537,-0.9595,-0.9521,-0.9091,-0.882,-0.898,-0.8618,-0.8469,-0.8788,-0.8403,-0.824,-0.8527,-0.7835,-0.7521,-0.7791,-0.7563,-0.7423,-0.7423,-0.73,-0.7192,-0.7133,-0.6842,-0.6652,-0.6566,-0.6338,-0.6074,-0.5767,-0.5777,-0.5648,-2.0739,0.0,0.0,0.0,0.0,0.0,0.0,0.0,0.0,0.0,0.0,0.0,0.0,0.0,-1.6953,-1.6982,0.0,-1.6365,0.0,-1.6339,0.0,0.0,0.0,0.0,0.0,0.0,0.0,0.0,0.0,-1.9251,-1.9452,-1.88,-1.8317,-1.8028,-1.7366,-1.701,-1.701,-1.701,-1.6892,-1.6701,-1.6522,-1.6318,-1.6144,-1.5881,-1.577,-1.577,-1.5726,-1.5659,-1.5582,-1.5503,-1.5345,-1.5119,-1.5074,-1.496,-1.4789,-1.4651,-1.4546,-1.4407,-1.4233,-1.389,-1.3455,-1.3068,-1.2653,-1.228,-1.2123,-1.1952,-1.1753,-1.1519,-1.1377,-1.1301,-1.1301,-1.1224,-1.1053,-1.0764,-1.0542,-1.0252,-0.966,-0.9314,-0.9008,-0.8644,-0.8346,-0.8132,-0.813,-0.8512,-0.888,-0.8966,-0.8536,-0.8344,-0.8737,-0.8237,-0.7994,-0.8357,-0.7791,-0.7567,-0.7986,-0.7284,-0.7003,-0.7379,-0.7166,-0.7036,-0.7036,-0.6874,-0.6712,-0.6571,-0.6328,-0.6133,-0.6021,-0.5961,-0.578,-0.5438,-0.5553,-0.5459,0.0,0.0,0.0,-1.9036,0.0,0.0,0.0,0.0,-1.7406,0.0,0.0,0.0,0.0,0.0,-1.728,-1.7861,-1.7076,0.0,0.0,0.0,0.0,0.0,0.0,0.0,0.0,0.0,0.0,0.0,0.0,0.0,-1.8077,-1.774,-1.7391,-1.707,-1.6705,-1.6522,-1.6522,-1.6522,-1.6479,-1.6414,-1.6275,-1.6144,-1.5988,-1.5792,-1.5693,-1.5693,-1.557,-1.5435,-1.5289,-1.5028,-1.4846,-1.4708,-1.4489,-1.4267,-1.4067,-1.4314,-1.4246,-1.3978,-1.3705,-1.304,-1.2262,-1.2304,-1.1892,-1.1357,-1.1488,-1.1528,-1.1477,-1.1352,-1.1301,-1.1301,-1.1301,-1.1011,-1.0713,-1.0704,-1.0149,-0.9604,-0.9448,-0.8739,-0.8064,-0.7798,-0.7314,-0.6968,-0.6951,-0.7762,-0.8408,-0.8421,-0.812,-0.7993,-0.821,-0.7914,-0.7769,-0.7894,-0.7435,-0.7215,-0.7502,-0.7021,-0.6817,-0.7106,-0.6982,-0.6906,-0.6906,-0.6603,-0.6359,-0.6232,-0.5902,-0.5666,-0.5527,-0.5387,-0.5215,-0.5034,-0.5409,-0.5386,0.0,0.0,-2.0122,-1.9702,0.0,0.0,0.0,0.0,0.0,0.0,0.0,0.0,0.0,0.0,-1.7932,-1.8054,-1.7199,-1.6418,0.0,0.0,0.0,0.0,-1.6789,-1.7464,0.0,0.0,0.0,0.0,-1.8119,0.0,0.0,-1.7529,-1.7115,-1.6693,-1.6262,-1.6035,-1.6035,-1.6035,-1.6035,-1.6013,-1.5947,-1.5881,-1.5792,-1.5738,-1.5637,-1.557,-1.5513,-1.5334,-1.5006,-1.4754,-1.4467,-1.4212,-1.3965,-1.3716,-1.3491,-1.3776,-1.3705,-1.3433,-1.3118,-1.2691,-1.2257,-1.2178,-1.1837,-1.1435,-1.1484,-1.1452,-1.1352,-1.1318,-1.1301,-1.1276,-1.1192,-1.1006,-1.0731,-1.0376,-1.0033,-0.9619,-0.9012,-0.8578,-0.8173,-0.7765,-0.741,-0.7168,-0.7172,-0.7384,-0.7536,-0.7536,-0.7298,-0.7204,-0.7427,-0.722,-0.7137,-0.7347,-0.6943,-0.6804,-0.7208,-0.7066,-0.6926,-0.6853,-0.6871,-0.6785,-0.6524,-0.634,-0.6173,-0.5932,-0.5725,-0.5495,-0.5236,-0.519,-0.491,-0.4409,-0.46,-0.4707,-2.2109,-2.13,0.0,-2.0065,-1.9218,0.0,-1.8009,0.0,-1.8356,0.0,0.0,0.0,0.0,0.0,-1.8703,-1.861,-1.7727,-1.6741,0.0,-1.5428,0.0,0.0,-1.6283,-1.6948,-1.7534,-1.7801,-1.8063,-1.8403,-1.8042,0.0,0.0,0.0,-1.685,-1.6414,-1.6013,-1.5792,-1.5792,-1.577,-1.5748,-1.5748,-1.5726,-1.5681,-1.5614,-1.5582,-1.548,-1.5356,-1.5266,-1.5006,-1.464,-1.4316,-1.4001,-1.3695,-1.3454,-1.3214,-1.3035,-1.3242,-1.3098,-1.2769,-1.252,-1.2298,-1.2126,-1.1952,-1.1694,-1.1494,-1.1452,-1.1377,-1.1301,-1.1301,-1.1301,-1.1251,-1.1074,-1.0797,-1.0441,-0.9978,-0.9634,-0.923,-0.8661,-0.8382,-0.8144,-0.7774,-0.7491,-0.7284,-0.723,-0.7171,-0.7112,-0.7112,-0.6956,-0.6912,-0.709,-0.6956,-0.6859,-0.6956,-0.6697,-0.6613,-0.6849,-0.6929,-0.6913,-0.677,-0.6737,-0.6645,-0.6445,-0.6233,-0.6009,-0.5736,-0.5531,-0.5247,-0.4923,-0.476,-0.4465,-0.4065,-0.3991,-0.4089]},{"header":{"parameterUnit":"m.s-1","parameterCategory":1,"la1":30.6,"la2":29.2853,"lo1":-89.7004,"lo2":-87.6739,"dy":0.0162,"dx":0.0183,"nx":112,"ny":82,"refTime":"2026-04-30T12:00:00:Z","depth":0,"parameterNumber":3,"parameterNumberName":"V-component_of_WINDS"},"data":[0.0,0.0,0.0,0.0,0.0,0.0,0.0,0.0,0.0,0.0,0.0,0.0,0.0,0.0,0.0,0.0,0.0,0.0,0.0,0.0,0.0,0.0,0.0,0.0,0.0,0.0,0.0,0.0,0.0,0.0,0.0,0.0,0.0,0.0,0.0,0.0,0.0,0.0,0.0,0.0,0.0,0.0,0.0,0.0,0.0,0.0,0.0,0.0,0.0,0.0,0.0,0.0,0.0,0.0,0.0,0.0,0.0,0.0,0.0,0.0,0.0,0.0,0.0,0.0,0.0,0.0,0.0,0.0,0.0,0.0,0.0,0.0,0.0,0.0,0.0,0.0,0.0,0.0,0.0,0.0,0.0,0.0,0.0,0.0,0.0,0.0,0.0,0.0,0.0,0.0,-0.5871,-0.6401,-0.7573,-0.8239,-0.8077,-0.8318,-0.8085,-0.7227,0.0,0.0,0.0,0.0,0.0,0.0,0.0,0.0,0.0,0.0,0.0,0.0,0.0,0.0,0.0,0.0,0.0,0.0,0.0,0.0,0.0,0.0,0.0,0.0,0.0,0.0,0.0,0.0,0.0,0.0,0.0,0.0,0.0,0.0,0.0,0.0,0.0,0.0,0.0,0.0,0.0,0.0,0.0,0.0,0.0,0.0,0.0,0.0,0.0,0.0,0.0,0.0,0.0,0.0,0.0,0.0,0.0,0.0,0.0,0.0,0.0,0.0,0.0,0.0,0.0,0.0,0.0,0.0,0.0,0.0,0.0,0.0,0.0,0.0,0.0,0.0,0.0,0.0,0.0,0.0,0.0,0.0,0.0,0.0,0.0,0.0,0.0,0.0,0.0,0.0,0.0,0.0,0.0,0.0,0.0,0.0,0.0,0.0,0.0,0.0,0.0,0.0,0.0,0.0,-0.5917,-0.6944,-0.7919,-0.8391,-0.8265,-0.8292,-0.8124,-0.7643,0.0,0.0,0.0,0.0,0.0,0.0,0.0,0.0,0.0,0.0,0.0,0.0,0.0,0.0,0.0,0.0,0.0,0.0,0.0,0.0,0.0,0.0,0.0,0.0,0.0,0.0,0.0,0.0,0.0,0.0,0.0,0.0,0.0,0.0,0.0,0.0,0.0,0.0,0.0,0.0,0.0,0.0,0.0,0.0,0.0,0.0,0.0,0.0,0.0,0.0,0.0,0.0,0.0,0.0,0.0,0.0,0.0,0.0,0.0,0.0,0.0,0.0,0.0,0.0,0.0,0.0,0.0,0.0,0.0,0.0,0.0,0.0,0.0,0.0,0.0,0.0,0.0,0.0,0.0,0.0,0.0,0.0,0.0,0.0,0.0,0.0,0.0,0.0,0.0,0.0,0.0,0.0,0.0,0.0,0.0,0.0,0.0,0.0,0.0,0.0,0.0,0.0,0.0,-0.583,-0.6571,-0.7374,-0.8037,-0.8342,-0.8282,-0.8143,-0.7825,-0.7349,-0.7045,0.0,0.0,0.0,0.0,0.0,0.0,0.0,0.0,0.0,0.0,0.0,0.0,0.0,0.0,0.0,0.0,0.0,0.0,0.0,0.0,0.0,0.0,0.0,0.0,0.0,0.0,0.0,0.0,0.0,0.0,0.0,0.0,0.0,0.0,0.0,0.0,0.0,0.0,0.0,0.0,0.0,0.0,0.0,0.0,0.0,0.0,0.0,0.0,0.0,0.0,0.0,0.0,0.0,0.0,0.0,0.0,0.0,0.0,0.0,0.0,0.0,0.0,0.0,0.0,0.0,0.0,0.0,0.0,0.0,0.0,0.0,0.0,0.0,0.0,0.0,0.0,0.0,0.0,0.0,0.0,0.0,0.0,0.0,0.0,0.0,0.0,0.0,0.0,0.0,0.0,0.0,0.0,0.0,0.0,0.0,0.0,0.0,0.0,0.0,0.0,0.0,0.0,-0.633,-0.7148,-0.7626,-0.8093,-0.8315,-0.8191,-0.7916,-0.7533,-0.7019,-0.6838,0.0,0.0,0.0,0.0,0.0,0.0,0.0,0.0,0.0,0.0,0.0,0.0,0.0,0.0,0.0,0.0,0.0,0.0,0.0,0.0,0.0,0.0,0.0,0.0,0.0,0.0,0.0,0.0,0.0,0.0,0.0,0.0,0.0,0.0,0.0,0.0,0.0,0.0,0.0,0.0,0.0,0.0,0.0,0.0,0.0,0.0,0.0,0.0,0.0,0.0,0.0,0.0,0.0,0.0,0.0,0.0,0.0,0.0,0.0,0.0,0.0,0.0,0.0,0.0,0.0,0.0,0.0,0.0,0.0,0.0,0.0,0.0,0.0,0.0,0.0,0.0,0.0,0.0,0.0,0.0,0.0,0.0,0.0,0.0,0.0,0.0,0.0,0.0,0.0,0.0,0.0,0.0,0.0,0.0,0.0,0.0,0.0,0.0,0.0,0.0,0.0,0.0,-0.6435,-0.7202,-0.7482,-0.8099,-0.8319,-0.7879,-0.7702,-0.7427,-0.702,-0.6747,0.0,0.0,0.0,0.0,0.0,0.0,0.0,0.0,0.0,0.0,0.0,0.0,0.0,0.0,0.0,0.0,0.0,0.0,0.0,0.0,0.0,0.0,0.0,0.0,0.0,0.0,0.0,0.0,0.0,0.0,0.0,0.0,0.0,0.0,0.0,0.0,0.0,0.0,0.0,0.0,0.0,0.0,0.0,0.0,0.0,0.0,0.0,0.0,0.0,0.0,0.0,0.0,0.0,0.0,0.0,0.0,0.0,0.0,0.0,0.0,0.0,0.0,0.0,0.0,0.0,0.0,0.0,0.0,0.0,0.0,0.0,0.0,0.0,0.0,0.0,0.0,0.0,0.0,0.0,0.0,0.0,0.0,0.0,0.0,0.0,0.0,0.0,0.0,0.0,0.0,0.0,0.0,0.0,0.0,0.0,0.0,0.0,0.0,0.0,0.0,0.0,0.0,-0.6372,-0.7156,-0.7346,-0.787,-0.8062,-0.7709,-0.7285,-0.6885,-0.6479,0.0,0.0,0.0,0.0,0.0,0.0,0.0,0.0,0.0,0.0,0.0,0.0,0.0,0.0,0.0,0.0,0.0,0.0,0.0,0.0,0.0,0.0,0.0,0.0,0.0,0.0,0.0,0.0,0.0,0.0,0.0,0.0,0.0,0.0,0.0,0.0,0.0,0.0,0.0,0.0,0.0,0.0,0.0,0.0,0.0,0.0,0.0,0.0,0.0,0.0,0.0,0.0,0.0,0.0,0.0,0.0,0.0,0.0,0.0,0.0,0.0,0.0,0.0,0.0,0.0,0.0,0.0,0.0,0.0,0.0,0.0,0.0,0.0,0.0,0.0,0.0,0.0,0.0,0.0,0.0,0.0,0.0,0.0,0.0,0.0,0.0,0.0,0.0,0.0,0.0,0.0,0.0,0.0,0.0,0.0,0.0,0.0,0.0,0.0,0.0,0.0,0.0,-0.5135,-0.6201,-0.6959,-0.7143,-0.7557,-0.778,-0.7478,-0.699,-0.6524,-0.6136,0.0,0.0,0.0,0.0,0.0,0.0,0.0,0.0,0.0,0.0,0.0,0.0,0.0,0.0,0.0,0.0,0.0,0.0,0.0,0.0,0.0,0.0,0.0,0.0,0.0,0.0,0.0,0.0,0.0,0.0,0.0,0.0,0.0,0.0,0.0,0.0,0.0,0.0,0.0,0.0,0.0,0.0,0.0,0.0,0.0,0.0,0.0,0.0,0.0,0.0,0.0,0.0,0.0,0.0,0.0,0.0,0.0,0.0,0.0,0.0,0.0,0.0,0.0,0.0,0.0,0.0,0.0,0.0,0.0,0.0,0.0,0.0,0.0,0.0,0.0,0.0,0.0,0.0,0.0,0.0,0.0,0.0,0.0,0.0,0.0,0.0,0.0,0.0,0.0,0.0,0.0,0.0,0.0,0.0,0.0,0.0,0.0,0.0,0.0,0.0,0.0,0.0,-0.5121,-0.5968,-0.658,-0.6763,-0.7265,-0.7472,-0.7119,-0.6868,-0.652,0.0,0.0,0.0,0.0,0.0,0.0,0.0,0.0,0.0,0.0,0.0,0.0,0.0,0.0,0.0,0.0,0.0,0.0,0.0,0.0,0.0,0.0,0.0,0.0,0.0,0.0,0.0,0.0,0.0,0.0,0.0,0.0,0.0,0.0,0.0,0.0,0.0,0.0,0.0,0.0,0.0,0.0,0.0,0.0,0.0,0.0,0.0,0.0,0.0,0.0,0.0,0.0,0.0,0.0,0.0,0.0,0.0,0.0,0.0,0.0,0.0,0.0,0.0,0.0,0.0,0.0,0.0,0.0,0.0,0.0,0.0,0.0,0.0,0.0,0.0,0.0,0.0,0.0,0.0,0.0,0.0,0.0,0.0,0.0,0.0,0.0,0.0,0.0,0.0,0.0,0.0,0.0,0.0,0.0,0.0,0.0,0.0,0.0,0.0,0.0,0.0,0.0,0.0,-0.4876,-0.5856,-0.6543,-0.6725,-0.7161,-0.7319,-0.6974,-0.6712,-0.6279,-0.5641,0.0,0.0,0.0,0.0,0.0,0.0,0.0,0.0,0.0,0.0,0.0,0.0,0.0,0.0,0.0,0.0,0.0,0.0,0.0,0.0,0.0,0.0,0.0,0.0,0.0,0.0,0.0,0.0,0.0,0.0,0.0,0.0,0.0,0.0,0.0,0.0,0.0,0.0,0.0,0.0,0.0,0.0,0.0,0.0,0.0,0.0,0.0,0.0,0.0,0.0,0.0,0.0,0.0,0.0,0.0,0.0,0.0,0.0,0.0,0.0,0.0,0.0,0.0,0.0,0.0,0.0,0.0,0.0,0.0,0.0,0.0,0.0,0.0,0.0,0.0,0.0,0.0,0.0,0.0,0.0,0.0,0.0,0.0,0.0,0.0,0.0,0.0,0.0,0.0,0.0,0.0,0.0,0.0,0.0,0.0,0.0,0.0,0.0,0.0,0.0,0.0,0.0,-0.4635,-0.5531,-0.6141,-0.6222,-0.6671,-0.6897,-0.6724,-0.6569,-0.6218,-0.5528,0.0,0.0,0.0,0.0,0.0,0.0,0.0,0.0,0.0,0.0,0.0,0.0,0.0,0.0,0.0,0.0,0.0,0.0,0.0,0.0,0.0,0.0,0.0,0.0,0.0,0.0,0.0,0.0,0.0,0.0,0.0,0.0,0.0,0.0,0.0,0.0,0.0,0.0,0.0,0.0,0.0,0.0,0.0,0.0,0.0,0.0,0.0,0.0,0.0,0.0,0.0,0.0,0.0,0.0,0.0,0.0,0.0,0.0,0.0,0.0,0.0,0.0,0.0,0.0,0.0,0.0,0.0,0.0,0.0,0.0,0.0,0.0,0.0,0.0,0.0,0.0,0.0,0.0,0.0,0.0,0.0,0.0,0.0,0.0,0.0,0.0,0.0,0.0,0.0,0.0,0.0,0.0,0.0,0.0,0.0,0.0,0.0,0.0,0.0,0.0,0.0,0.0,-0.4443,-0.5066,-0.5497,-0.5497,-0.6003,-0.6363,-0.6363,-0.6448,-0.6245,-0.5627,0.0,0.0,0.0,0.0,0.0,0.0,0.0,0.0,0.0,0.0,0.0,0.0,0.0,0.0,0.0,0.0,0.0,0.0,0.0,0.0,0.0,0.0,0.0,0.0,0.0,0.0,0.0,0.0,0.0,0.0,0.0,0.0,0.0,0.0,0.0,0.0,0.0,0.0,0.0,0.0,0.0,0.0,0.0,0.0,0.0,0.0,0.0,0.0,0.0,0.0,0.0,0.0,0.0,0.0,0.0,0.0,0.0,0.0,0.0,0.0,0.1701,0.0,0.0,0.0,0.0,0.0,0.0,0.0,0.0,0.0,0.0,0.0,0.0,0.0,0.0,0.0,0.0,0.0,0.0,0.0,0.0,0.0,0.0,0.0,0.0,0.0,0.0,0.0,0.0,0.0,0.0,0.0,0.0,0.0,0.0,0.0,0.0,0.0,0.0,0.0,0.0,0.0,-0.4303,-0.4975,-0.5403,-0.5403,-0.5819,-0.6071,-0.6071,-0.6244,-0.6139,-0.562,-0.5301,0.0,0.0,0.0,0.0,0.0,0.0,0.0,0.0,0.0,0.0,0.0,0.0,0.0,0.0,0.0,0.0,0.0,0.0,0.0,0.0,0.0,0.0,0.0,0.0,0.0,0.0,0.0,0.0,0.0,0.0,0.0,0.0,0.0,0.0,0.0,0.0,0.0,0.0,0.0,0.0,0.0,0.0,0.0,0.0,0.0,0.0,0.0,0.0,0.0,0.0,0.0,0.0,0.0,0.0,0.0,0.0,0.0,0.0,0.0,0.0,0.2465,0.0,0.0,0.0,0.0,0.0,0.0,0.0,0.0,0.0,0.0,0.0,0.0,0.0,0.0,0.0,0.0,0.0,0.0,0.0,0.0,0.0,0.0,0.0,0.0,0.0,0.0,0.0,0.0,0.0,0.0,0.0,0.0,0.0,0.0,0.0,0.0,0.0,0.0,0.0,0.0,-0.4102,-0.4683,-0.5041,-0.4978,-0.5457,-0.5765,-0.5765,-0.5997,-0.5989,-0.5613,-0.5301,0.0,0.0,0.0,0.0,0.0,0.0,0.0,0.0,0.0,0.0,0.0,0.0,0.0,0.0,0.0,0.0,0.0,0.0,0.0,0.0,0.0,0.0,0.0,0.0,0.0,0.0,0.0,0.0,0.0,0.0,0.0,0.0,0.0,0.0,0.0,0.0,0.0,0.0,0.0,0.0,0.0,0.0,0.0,0.0,0.0,0.0,0.0,0.0,0.0,0.0,0.0,0.0,0.0,0.5662,0.5245,0.4796,0.433,0.433,0.4756,0.3992,0.3688,0.3749,0.347,0.0,0.0,0.0,0.0,0.0,0.0,0.0,0.0,0.0,0.0,0.0,0.0,0.0,0.0,0.0,0.0,0.0,0.0,0.0,0.0,0.0,0.0,0.0,0.0,-0.0819,-0.0936,0.0,0.0,0.0,0.0,0.0,0.0,0.0,0.0,0.0,0.0,0.0,0.0,-0.3858,-0.4349,-0.4618,-0.4517,-0.5027,-0.5374,-0.5399,-0.5731,-0.5827,-0.5528,-0.5238,-0.4942,0.0,0.0,0.0,0.0,0.0,0.0,0.0,0.0,0.0,0.0,0.0,0.0,0.0,0.0,0.0,0.0,0.0,0.0,0.0,0.0,0.0,0.0,0.0,0.0,0.0,0.0,0.0,0.0,0.0,0.0,0.0,0.0,0.8401,0.7558,0.0,0.0,0.0,0.0,0.0,0.0,0.0,0.0,0.0,0.0,0.0,0.0,0.0,0.6982,0.7052,0.6911,0.6753,0.6573,0.6244,0.5974,0.5726,0.5422,0.5521,0.5957,0.5922,0.0,0.5182,0.4915,0.0,0.0,0.0,0.0,0.0,0.0,0.0,0.0,0.0,0.0,0.0,0.0,0.0,0.0,0.0,0.0,0.0,0.0,0.0,0.0,0.0,0.0,-0.015,-0.0149,-0.0144,-0.0209,0.0,-0.1037,-0.1496,-0.1848,-0.2061,0.0,0.0,0.0,0.0,0.0,0.0,0.0,-0.3787,-0.4224,-0.4523,-0.4506,-0.4751,-0.4925,-0.5043,-0.5437,-0.5518,-0.5177,-0.512,-0.4958,-0.4674,-0.4348,0.0,0.0,0.0,0.0,0.0,0.0,0.0,0.0,0.0,0.0,0.0,0.0,0.0,0.0,0.0,0.0,0.0,0.0,0.0,0.0,0.0,0.0,0.0,0.0,0.0,0.0,0.0,0.0,0.0,0.9964,0.9515,0.876,0.8155,0.7484,0.0,0.0,0.0,0.0,0.0,0.0,0.0,0.0,0.0,0.6883,0.7166,0.7346,0.7406,0.7472,0.7488,0.7448,0.729,0.7143,0.7097,0.6861,0.6897,0.7082,0.6959,0.6828,0.6627,0.5918,0.5134,0.4265,0.0,0.0,0.0,0.0,0.0959,0.0857,0.0673,0.0556,0.0,0.0108,0.0,0.0,0.0,0.0,0.0,0.0,0.0,0.0,0.0,0.0,0.0,0.0,0.0,-0.0105,-0.0413,-0.0898,-0.1321,0.0,-0.1825,-0.1982,-0.1999,0.0,0.0,0.0,0.0,-0.3276,-0.3597,-0.4063,-0.4349,-0.4278,-0.4519,-0.4688,-0.4671,-0.4935,-0.5016,-0.4887,-0.4803,-0.4668,-0.4439,-0.4206,-0.4031,0.0,0.0,0.0,0.0,0.0,0.0,0.0,0.0,0.0,0.0,0.0,0.0,0.0,0.0,0.0,0.0,0.0,0.0,0.0,0.0,0.0,0.0,0.0,0.0,0.0,0.0,0.0,0.0,1.1008,1.0885,1.0209,0.9447,0.8653,0.0,0.0,0.0,0.0,0.0,0.0,0.6749,0.6976,0.7099,0.7099,0.7499,0.7712,0.7712,0.788,0.7988,0.7988,0.7988,0.7988,0.7985,0.7874,0.7868,0.7855,0.7597,0.7529,0.752,0.6624,0.5852,0.5131,0.3972,0.3231,0.2758,0.2334,0.2023,0.1755,0.1419,0.1096,0.0809,0.0306,0.0,0.0145,0.014,0.0,0.0,0.0,0.0,0.007,0.0072,0.0036,0.0,0.0,0.0,-0.0104,-0.044,-0.0808,-0.1169,0.0,-0.1586,-0.1711,-0.1622,0.0,0.0,0.0,0.0,-0.2849,-0.3225,-0.3707,-0.3954,-0.387,-0.4102,-0.4229,-0.4135,-0.4287,-0.4387,-0.4291,-0.4254,-0.4133,-0.392,-0.3823,-0.3711,-0.3579,0.0,0.0,0.0,0.0,0.0,0.0,0.0,0.0,0.0,0.0,0.0,0.0,0.0,0.0,0.0,0.0,0.0,0.0,0.0,0.0,0.0,0.0,0.0,0.0,0.0,0.0,0.0,0.0,0.0,1.1818,1.1123,0.0,0.0,0.0,0.0,0.7282,0.7147,0.7001,0.6879,0.7329,0.7567,0.7567,0.781,0.7968,0.7968,0.7982,0.7988,0.7988,0.7988,0.7988,0.7988,0.7982,0.7978,0.7968,0.7858,0.7719,0.7563,0.7068,0.67,0.6339,0.5344,0.4751,0.4334,0.392,0.3506,0.304,0.2487,0.2023,0.1532,0.079,0.0569,0.0585,0.0561,0.0581,0.0,0.0,0.0414,0.0303,0.0272,0.0151,0.0,0.0,0.0,-0.0101,-0.0437,-0.0807,-0.1143,0.0,-0.1411,-0.1467,-0.1332,0.0,-0.1055,-0.1465,-0.1868,-0.2277,-0.259,-0.2945,-0.3191,-0.3251,-0.3333,-0.3369,-0.3364,-0.3543,-0.3513,-0.3196,-0.3362,-0.3367,-0.3172,-0.3163,-0.308,-0.2947,-0.2739,0.0,0.0,0.0,0.0,0.0,0.0,0.0,0.0,0.0,0.0,0.0,0.0,0.0,0.0,0.0,0.0,0.0,0.0,0.0,0.0,0.0,0.0,0.0,0.0,0.0,0.0,0.0,0.0,1.325,1.2748,0.0,1.0868,0.9662,0.883,0.8558,0.8177,0.7958,0.8008,0.8078,0.808,0.7986,0.7985,0.7988,0.7988,0.7988,0.7988,0.7988,0.7988,0.7988,0.7988,0.7988,0.7988,0.7982,0.7879,0.7784,0.7709,0.736,0.6953,0.6511,0.5894,0.5473,0.5113,0.478,0.4404,0.3974,0.3431,0.284,0.2186,0.1147,0.0691,0.0599,0.0604,0.0591,0.0613,0.0588,0.0443,0.0295,0.0293,0.0144,0.0,0.0,0.0,-0.0067,-0.0303,-0.0538,-0.074,-0.0775,-0.1035,-0.1156,-0.085,-0.0533,-0.0425,-0.0758,-0.1173,-0.1554,-0.1853,-0.221,-0.2451,-0.2436,-0.2437,-0.243,-0.2351,-0.2403,-0.2379,-0.2268,-0.2319,-0.235,-0.2266,-0.2265,-0.2253,-0.2198,-0.2043,-0.2032,0.0,0.0,0.0,0.0,0.0,0.0,0.0,0.0,0.0,0.0,0.0,0.0,0.0,0.0,0.0,0.0,0.0,0.0,0.0,0.0,0.0,0.0,0.0,0.0,0.0,1.4098,1.4728,1.4446,1.4084,1.3407,1.2283,1.1066,1.0204,0.9814,0.9372,0.9056,0.902,0.8788,0.8583,0.8384,0.8139,0.7988,0.7988,0.7988,0.7988,0.7988,0.7988,0.7988,0.7988,0.7988,0.7988,0.7985,0.7884,0.7831,0.7726,0.7529,0.7178,0.6734,0.6474,0.6248,0.5999,0.5826,0.5528,0.5037,0.4142,0.329,0.2484,0.1538,0.1049,0.0844,0.0844,0.0834,0.0823,0.0823,0.0669,0.0515,0.0506,0.032,0.0175,0.0172,0.017,0.0135,0.0,-0.0135,-0.0236,-0.0236,-0.0606,-0.0804,-0.0498,-0.0191,-0.0062,-0.0304,-0.0656,-0.0967,-0.1188,-0.1516,-0.1706,-0.1625,-0.162,-0.1599,-0.149,-0.1487,-0.1506,-0.1488,-0.1504,-0.1487,-0.1487,-0.1503,-0.1483,-0.1483,-0.1471,-0.1571,-0.1756,0.0,0.0,0.0,0.0,0.0,0.0,0.0,0.0,0.0,0.0,0.0,0.0,0.0,0.0,0.0,0.0,0.0,0.0,0.0,0.0,0.0,0.0,0.0,1.4235,1.4727,1.5245,1.5473,1.5083,1.4454,1.3624,1.264,1.1821,1.1149,1.0701,1.0289,0.9914,0.9482,0.9126,0.8882,0.8336,0.8038,0.8038,0.8041,0.7988,0.7988,0.7988,0.7988,0.7988,0.7988,0.7988,0.7988,0.7985,0.7823,0.7604,0.7597,0.7417,0.7102,0.7098,0.7095,0.7095,0.7095,0.6779,0.616,0.4636,0.3422,0.247,0.2078,0.1648,0.1335,0.1335,0.1335,0.1335,0.1335,0.112,0.091,0.0908,0.0693,0.0491,0.049,0.0515,0.0506,0.0506,0.0404,0.0303,0.0303,-0.0135,-0.0433,-0.0325,-0.0126,-0.0031,-0.0178,-0.0353,0.0,-0.0648,-0.0836,-0.093,-0.0872,-0.0869,-0.0884,-0.0881,-0.0878,-0.0865,-0.0884,-0.086,-0.0877,-0.0877,-0.0879,-0.0867,-0.0867,-0.1071,-0.1214,-0.1282,0.0,0.0,0.0,0.0,0.0,0.0,0.0,0.0,0.0,0.0,0.0,0.0,0.0,0.0,0.0,0.0,0.0,0.0,0.0,0.0,0.0,1.4404,1.475,1.4785,1.5485,1.6011,1.6091,1.5959,1.5619,1.5028,1.4165,1.3514,1.3188,1.2706,1.2293,1.1997,1.1148,1.0451,0.9962,0.9088,0.8577,0.8577,0.8382,0.8283,0.8283,0.8088,0.7988,0.7988,0.7988,0.7988,0.7982,0.7874,0.7828,0.7736,0.7522,0.7383,0.7295,0.7139,0.7095,0.7095,0.7095,0.67,0.6048,0.5136,0.4234,0.3372,0.2899,0.2508,0.2158,0.2158,0.2158,0.2158,0.2,0.168,0.135,0.1153,0.0838,0.0572,0.0516,0.0508,0.0506,0.0506,0.0404,0.0303,0.0303,0.0067,-0.0134,-0.01,-0.0032,0.0,-0.0061,-0.0088,0.0,-0.0196,-0.0254,-0.0255,-0.0253,-0.0247,-0.0242,-0.024,-0.026,-0.0255,-0.0252,-0.0254,-0.0256,-0.0257,-0.0259,-0.026,-0.026,-0.0497,-0.0658,0.0,0.0,0.0,0.0,0.0,0.0,0.0,0.0,0.0,0.0,0.0,0.0,0.0,0.0,0.0,0.0,0.0,0.0,0.0,0.0,0.0,0.0,1.5383,1.5739,1.5869,1.6143,1.6319,1.644,1.6346,1.6126,1.5735,1.5042,1.4606,1.4469,1.4086,1.3651,1.3303,1.241,1.1544,1.078,0.9718,0.9072,0.8977,0.8581,0.8382,0.8382,0.8137,0.7988,0.7988,0.7988,0.7955,0.0,0.7848,0.774,0.7614,0.7441,0.7333,0.0,0.0,0.0,0.0,0.0,0.6781,0.6284,0.5699,0.4965,0.4229,0.3798,0.3366,0.3056,0.3056,0.3056,0.2976,0.2665,0.2297,0.1878,0.1547,0.1121,0.0816,0.0748,0.0741,0.0741,0.0741,0.064,0.0506,0.0506,0.0337,0.0,0.0202,0.0096,0.0,0.0,0.0,0.0,0.0,0.0,0.0,0.0,0.0,0.0,0.0,0.0,0.0,0.0,0.0,0.0,0.0,0.0,0.0,0.0,0.0,0.0,0.0,0.0,0.0,0.0,-0.1328,-0.1207,0.0,0.0,0.0,0.0,0.0,0.0,0.0,0.0,0.0,0.0,0.0,0.0,0.0,0.0,0.0,0.0,1.6481,1.6852,1.7204,1.6731,1.6482,1.677,1.6549,1.627,1.6019,1.5496,1.5191,1.5219,1.4986,1.4708,1.4255,0.0,0.0,0.0,0.0,0.9612,0.9331,0.8783,0.8482,0.8482,0.8237,0.8088,0.8088,0.8071,0.7989,0.7907,0.7873,0.7708,0.7461,0.7444,0.731,0.7143,0.7095,0.7095,0.7095,0.7078,0.6896,0.6657,0.6268,0.0,0.0,0.4618,0.4263,0.3947,0.3947,0.3947,0.383,0.3366,0.2971,0.2529,0.2057,0.1576,0.1222,0.1185,0.1176,0.1143,0.1143,0.0942,0.0809,0.0809,0.064,0.0505,0.0504,0.0257,0.0031,0.0031,0.0,0.0,0.0,0.0,0.0,0.0,0.0,0.0,0.0,0.0,0.0,0.0,0.0,0.0,0.0,0.0,0.0,0.0,-0.0119,-0.0233,-0.0337,-0.0382,-0.0472,-0.0584,-0.0875,-0.0824,0.0,0.0,0.0,0.0,0.0,0.0,0.0,0.0,0.0,0.0,0.0,0.0,0.0,0.0,0.0,1.7937,1.7757,1.7683,1.8103,1.7425,1.7048,1.7398,1.6958,1.662,1.657,1.6,1.5761,1.6058,1.6029,1.5881,1.5563,1.4755,1.3821,1.2791,1.1511,1.0641,1.0167,0.9426,0.9034,0.9034,0.0,0.0,0.8623,0.8548,0.8475,0.8431,0.8171,0.8024,0.7958,0.7603,0.7443,0.7415,0.7187,0.7095,0.7082,0.6967,0.6854,0.6643,0.6319,0.5888,0.544,0.5204,0.4965,0.4768,0.4768,0.4768,0.0,0.4265,0.3865,0.343,0.2912,0.243,0.1998,0.1803,0.1614,0.1446,0.1311,0.101,0.0809,0.0809,0.064,0.0502,0.0491,0.0348,0.0247,0.0247,0.0117,0.0,0.0,0.0,0.0,0.0,0.0,0.0,0.0,0.0,0.0,0.0,0.0,0.0,0.0,0.0,0.0,0.0,-0.0023,0.0,0.009,0.0067,0.0112,0.018,-0.0314,-0.0436,0.0,0.0,0.0,0.0,0.0,0.0,0.0,0.0,0.0,0.0,0.0,1.8572,1.9109,0.0,1.9737,1.9695,1.9359,1.9026,1.8795,1.8189,1.7712,1.7609,1.6968,1.6486,1.6486,1.6092,1.5952,1.6253,1.6321,1.6186,1.5929,1.5412,1.4532,1.3319,1.2211,1.1277,1.0609,0.9677,0.914,0.9104,0.8807,0.8665,0.8531,0.8501,0.8422,0.834,0.8176,0.8057,0.7975,0.7805,0.7635,0.7496,0.741,0.7292,0.7198,0.7125,0.6906,0.6576,0.6421,0.6182,0.5948,0.5828,0.575,0.567,0.567,0.567,0.5553,0.5126,0.4655,0.4192,0.3672,0.3167,0.2718,0.2375,0.2083,0.1781,0.1512,0.1178,0.0942,0.0942,0.0875,0.0801,0.0746,0.063,0.0491,0.0272,0.0116,0.0,0.0,0.0,0.0,0.0,0.0,0.0,0.0,0.0,0.0,0.0,0.0,0.0,0.0,0.0,0.0,0.0,0.0067,0.0135,0.0202,0.027,0.0337,0.0405,0.0157,0.0091,0.0,0.0,0.0,0.0,0.0,0.0,0.0,1.8099,1.7988,1.8802,1.9592,2.0323,2.0824,2.1437,2.168,2.1293,2.0823,2.0265,1.9447,1.877,1.813,1.7611,1.6914,1.6419,1.6419,1.6101,1.598,1.6269,1.6234,1.6089,1.5881,1.57,1.4935,1.364,1.2614,1.1681,1.0784,0.9718,0.9114,0.902,0.8781,0.8613,0.843,0.84,0.836,0.8234,0.8174,0.8049,0.7846,0.7846,0.7716,0.753,0.7606,0.7493,0.7299,0.7218,0.6888,0.6508,0.648,0.6395,0.63,0.63,0.63,0.63,0.63,0.63,0.6215,0.5758,0.5284,0.479,0.4321,0.3867,0.3399,0.3006,0.2618,0.2214,0.1882,0.1546,0.1309,0.1268,0.1267,0.1254,0.1149,0.0995,0.0758,0.0355,0.0172,0.0084,0.0084,0.0084,0.0082,0.008,0.0077,0.0074,0.0071,0.0069,0.0067,0.0067,0.0067,0.0067,0.0067,0.0067,0.0067,0.0067,0.018,0.0247,0.027,0.036,0.0427,0.045,0.0517,0.0517,1.7096,1.7376,1.8164,1.8449,1.8692,1.8874,0.0,1.9016,1.9316,2.0214,2.0742,2.1226,2.188,2.2187,2.2329,2.2301,2.1573,2.085,2.0337,1.8917,1.7817,1.7483,1.7134,1.694,1.694,1.6436,1.6191,1.6225,1.598,1.5831,1.5831,1.5783,1.5171,1.3907,1.2939,1.1848,1.0641,0.9622,0.9098,0.9082,0.9078,0.9023,0.8995,0.8834,0.875,0.8713,0.84,0.8078,0.7707,0.7707,0.7707,0.7662,0.7684,0.7583,0.7364,0.6973,0.6706,0.6494,0.6368,0.6313,0.63,0.63,0.63,0.63,0.63,0.63,0.623,0.5786,0.5513,0.5223,0.4765,0.4445,0.4161,0.3782,0.3357,0.2989,0.2653,0.2319,0.2038,0.1921,0.1911,0.1813,0.156,0.1335,0.1036,0.0707,0.0487,0.0364,0.0364,0.0355,0.0348,0.0346,0.0351,0.0355,0.0363,0.0361,0.036,0.036,0.036,0.036,0.036,0.036,0.036,0.036,0.036,0.0405,0.0472,0.0472,0.0539,0.0674,0.0674,0.0607,1.8526,1.8773,1.949,1.9859,2.0037,2.0238,2.0754,2.0617,2.0725,2.1879,2.2257,2.2581,2.341,2.3575,2.3574,2.3522,2.2523,2.1418,2.0451,1.9079,1.792,1.7406,1.7246,1.7056,1.677,1.6435,1.6224,1.6224,1.5927,1.5784,1.5784,1.5671,1.5145,1.4145,1.3142,1.2088,1.1032,1.0019,0.941,0.9163,0.898,0.8885,0.8787,0.871,0.8613,0.8499,0.8239,0.796,0.769,0.781,0.781,0.7724,0.7744,0.7616,0.7386,0.723,0.6972,0.6723,0.6659,0.6637,0.6637,0.6637,0.6563,0.649,0.649,0.6308,0.6074,0.5932,0.5685,0.5461,0.5269,0.5108,0.4895,0.4473,0.4092,0.3756,0.3422,0.2985,0.2647,0.2582,0.2508,0.2384,0.2074,0.1764,0.1433,0.1091,0.0679,0.0393,0.0393,0.0408,0.0393,0.0402,0.0405,0.0389,0.0405,0.0405,0.0405,0.0405,0.0405,0.0405,0.0405,0.0405,0.0405,0.0405,0.0517,0.0629,0.0739,0.0897,0.1009,0.1099,0.1099,0.1076,1.9737,2.0012,2.055,2.0868,2.1015,2.1274,2.2002,2.1855,2.1849,2.2965,2.3287,2.3569,2.4213,2.4424,2.4401,2.4049,2.3057,2.1853,2.044,1.9213,1.8155,1.7406,1.7279,1.7192,1.6817,1.6548,1.6414,1.6414,1.6048,1.5806,1.5806,1.5484,1.4963,1.4199,1.3379,1.2461,1.144,1.0434,0.9725,0.9313,0.8906,0.8686,0.8608,0.8559,0.8404,0.8138,0.8,0.7833,0.7672,0.7789,0.7789,0.7656,0.7692,0.76,0.7434,0.7434,0.72,0.6903,0.6903,0.6903,0.6903,0.6903,0.6753,0.6595,0.6545,0.6266,0.5976,0.5895,0.5755,0.5579,0.5538,0.5477,0.5329,0.496,0.4658,0.4356,0.4092,0.3642,0.3307,0.3246,0.3131,0.2947,0.2654,0.2291,0.1957,0.1661,0.1149,0.0728,0.0561,0.0512,0.051,0.0474,0.048,0.0472,0.0472,0.0472,0.0472,0.0472,0.0472,0.0472,0.0472,0.0472,0.0472,0.0472,0.0696,0.0897,0.1097,0.1365,0.1566,0.1698,0.1698,0.1698,2.0352,2.0809,2.1161,2.1114,2.1305,2.1604,2.2024,2.2301,2.2613,2.3096,2.3529,2.3787,2.3817,2.4169,2.4247,2.3538,2.2931,2.2,2.0315,1.9293,1.8342,1.7406,1.7279,1.7279,1.7279,1.7113,1.6979,1.6979,1.6237,1.5793,1.5793,1.5325,1.4658,1.3843,1.3682,1.2958,1.1688,1.0801,1.0128,0.9583,0.892,0.8616,0.8604,0.8381,0.8109,0.7816,0.7812,0.7706,0.75,0.75,0.75,0.75,0.7492,0.7492,0.7492,0.7492,0.7257,0.6903,0.6903,0.6903,0.6903,0.6903,0.6753,0.657,0.6375,0.6179,0.5932,0.5684,0.5596,0.5555,0.544,0.5399,0.5359,0.5156,0.4924,0.4761,0.4592,0.4297,0.4019,0.3902,0.3751,0.3606,0.3408,0.2974,0.2637,0.2493,0.2071,0.154,0.0953,0.0819,0.0761,0.0705,0.0697,0.0697,0.0697,0.0697,0.0697,0.0697,0.0697,0.0697,0.0697,0.0697,0.0697,0.0697,0.0942,0.1254,0.1569,0.1854,0.2142,0.2472,0.2472,0.2472,2.117,2.1293,2.1408,2.1684,2.1721,2.1817,2.227,2.2457,2.2613,2.3115,2.333,2.3391,2.3391,2.3812,2.3945,2.3477,2.2657,2.1746,2.0763,1.9344,1.8167,1.7633,1.7426,1.7279,1.7279,1.7113,1.6893,1.6679,1.6111,1.578,1.5727,1.526,1.4913,1.4683,1.4275,1.3593,1.2651,1.1766,1.1071,1.0528,0.9675,0.9168,0.8987,0.8714,0.8519,0.8387,0.7986,0.7743,0.7684,0.7561,0.7484,0.7484,0.7484,0.7484,0.7484,0.7484,0.7403,0.7288,0.7288,0.7288,0.7288,0.7288,0.7176,0.6957,0.6746,0.6507,0.6234,0.5992,0.5855,0.5795,0.5741,0.5723,0.5723,0.5657,0.5591,0.5524,0.5458,0.5197,0.4945,0.4891,0.4678,0.4406,0.4166,0.3824,0.3403,0.2956,0.2223,0.1639,0.1392,0.1303,0.1238,0.1173,0.1166,0.1166,0.1166,0.1166,0.1166,0.1166,0.1166,0.1166,0.1166,0.1166,0.1166,0.1166,0.1524,0.1815,0.2057,0.2433,0.2721,0.2965,0.2965,0.2965,2.2017,2.2238,2.237,2.2225,2.2227,2.2279,2.2338,2.2494,2.2662,2.2913,2.2946,2.2987,2.3153,2.3298,2.3371,2.3199,2.2527,2.1699,2.0911,1.9594,1.8516,1.7899,1.7621,1.7426,1.7333,1.7098,1.686,1.6651,1.6278,1.6,1.5843,1.5469,1.5269,1.5322,1.496,1.4455,1.373,1.2918,1.2034,1.1059,1.0329,0.9819,0.9561,0.9275,0.9022,0.8785,0.8308,0.7991,0.7804,0.7642,0.7561,0.7484,0.7484,0.7484,0.7484,0.7484,0.7484,0.7484,0.7484,0.7484,0.7472,0.7411,0.7239,0.7044,0.6807,0.6516,0.6257,0.6063,0.5974,0.5888,0.5888,0.5888,0.5888,0.5888,0.5888,0.5888,0.5888,0.5635,0.5404,0.5404,0.5128,0.4842,0.468,0.4374,0.4012,0.3511,0.2819,0.2302,0.2046,0.1923,0.1847,0.1796,0.1787,0.1787,0.1787,0.1787,0.1787,0.1787,0.1787,0.1787,0.1787,0.1787,0.1787,0.1787,0.2148,0.2437,0.2699,0.3031,0.3322,0.359,0.359,0.359,2.2901,2.3524,2.3899,2.2745,2.2785,2.291,2.2292,2.2426,2.2652,2.2468,2.2387,2.2501,2.2987,2.2739,2.2561,2.2745,2.2529,2.1971,2.0853,2.013,1.9342,1.8311,1.79,1.7621,1.7333,1.7086,1.6903,1.6903,0.0,1.6349,1.5997,1.5819,1.5737,1.5737,1.5737,1.5442,1.491,1.4138,1.2924,1.1239,1.0924,1.058,1.0245,1.005,0.962,0.9074,0.8851,0.8441,0.788,0.788,0.7757,0.7557,0.7557,0.7557,0.7557,0.7557,0.7557,0.7557,0.7548,0.7506,0.7443,0.7281,0.7064,0.6842,0.6511,0.6276,0.6104,0.597,0.5921,0.5921,0.5921,0.5921,0.5921,0.5921,0.5918,0.591,0.591,0.5651,0.5423,0.5423,0.5153,0.4928,0.4928,0.4708,0.4436,0.4104,0.3841,0.3462,0.2911,0.2665,0.2535,0.2526,0.2536,0.2536,0.2536,0.2536,0.2536,0.2536,0.2536,0.2536,0.2536,0.2536,0.2536,0.2536,0.2807,0.3095,0.3426,0.3631,0.3943,0.4316,0.4316,0.4316,2.3978,2.4122,2.4025,2.3315,2.3135,2.2949,2.2433,2.2035,2.1728,2.169,2.1037,2.07,2.1497,2.1828,2.2167,2.2706,2.284,2.2658,2.2041,2.0743,1.9683,1.918,1.8265,1.7675,1.7621,1.7185,1.6903,1.6903,1.6413,1.6069,1.599,1.6069,1.6053,1.6001,1.6001,1.5582,1.4766,1.3781,1.2732,1.1642,1.157,1.1281,1.0869,1.0648,1.0381,1.0099,0.9728,0.9354,0.8903,0.8742,0.8589,0.8399,0.8399,0.8399,0.8399,0.8399,0.8399,0.8338,0.8047,0.7663,0.7285,0.7203,0.7094,0.6941,0.671,0.6581,0.6519,0.6336,0.6288,0.6288,0.6288,0.6288,0.6288,0.6288,0.6185,0.6121,0.6121,0.5811,0.5535,0.5535,0.5361,0.5183,0.5183,0.5128,0.5077,0.4994,0.4703,0.4232,0.3484,0.3172,0.3024,0.3015,0.3012,0.3012,0.3012,0.3012,0.3012,0.3012,0.3012,0.3012,0.3012,0.3012,0.3012,0.3012,0.3274,0.3542,0.3766,0.403,0.4272,0.453,0.453,0.4578,2.4716,2.4894,2.4751,2.4078,2.3787,2.3434,2.2446,2.1918,2.1564,2.1171,2.0456,2.0153,2.0948,2.1,2.1329,2.2604,2.263,2.2556,2.2557,2.1472,2.0529,2.0031,1.9134,1.8395,1.8018,1.747,1.7049,1.6825,1.6564,1.6407,1.6407,1.6574,1.6629,1.6447,1.6183,1.554,1.4634,1.3866,1.3197,1.2638,1.2467,1.2247,1.1892,1.1669,1.1446,1.1149,0.0,1.04,0.9943,0.9825,0.9669,0.9485,0.9485,0.9485,0.9485,0.9485,0.9381,0.9209,0.8835,0.8201,0.7486,0.7168,0.7026,0.6941,0.6751,0.6735,0.6752,0.6577,0.6548,0.6515,0.6416,0.6387,0.6387,0.6387,0.631,0.6207,0.6207,0.5894,0.5559,0.5482,0.5365,0.5297,0.5297,0.5297,0.5325,0.5407,0.5117,0.4759,0.4359,0.394,0.3678,0.3678,0.3678,0.3678,0.3678,0.3678,0.3678,0.3678,0.3678,0.3678,0.3678,0.3678,0.3678,0.3678,0.3877,0.4056,0.417,0.4338,0.4487,0.4596,0.4727,0.4857,2.5273,2.5579,2.5666,2.4727,2.4486,2.4065,2.2436,2.193,2.1586,2.0762,2.0075,1.9857,2.0622,2.0197,2.0323,2.2184,2.22,2.2179,2.2736,2.2259,2.165,2.0988,2.0223,1.9438,1.8633,1.7894,1.7303,1.6956,1.684,1.6807,1.6895,1.7113,1.7084,1.6727,1.6052,1.5299,1.4452,1.4115,1.3841,1.3645,1.3329,1.3083,1.29,1.2709,1.2415,1.2077,1.1892,0.0,1.0975,1.0975,1.0826,1.0677,1.0677,1.0677,1.0634,1.0599,1.0412,1.0102,0.9686,0.8939,0.8006,0.7266,0.6941,0.6857,0.6759,0.6811,0.6881,0.6741,0.6708,0.6675,0.6482,0.64,0.6384,0.6384,0.6257,0.6106,0.6106,0.5811,0.5502,0.5329,0.5297,0.5297,0.5297,0.5325,0.5399,0.5538,0.5259,0.5054,0.5156,0.4671,0.4338,0.4338,0.4338,0.4338,0.4338,0.4338,0.4338,0.4338,0.4338,0.4338,0.4364,0.4364,0.4386,0.4386,0.4521,0.4587,0.4609,0.4688,0.4727,0.4748,0.4983,0.5221,2.5775,2.5841,2.5666,2.4727,2.4486,2.4104,2.2604,2.1504,2.0698,2.0146,1.8829,1.8039,1.8898,1.9144,1.9561,2.0638,2.2002,2.29,2.2796,2.2837,2.2746,2.2448,2.1242,2.0298,1.9983,1.8623,1.7849,1.8173,1.7018,1.6514,1.6873,1.6954,1.655,1.5701,1.5057,1.4548,1.407,1.374,1.3506,1.3278,1.3221,1.3083,1.29,1.2856,1.2709,1.2489,1.2452,0.0,1.1774,1.1774,1.1663,1.1477,1.1477,1.1477,1.1452,1.1185,1.1031,1.089,1.0097,0.9423,0.8749,0.7841,0.7185,0.675,0.6824,0.6881,0.6881,0.6881,0.6778,0.6708,0.6642,0.6432,0.6224,0.6224,0.5971,0.5701,0.5701,0.5514,0.5333,0.5305,0.5297,0.5297,0.5297,0.543,0.549,0.5369,0.5233,0.5105,0.4968,0.4718,0.4552,0.4552,0.4552,0.4552,0.4552,0.4552,0.4552,0.4552,0.4552,0.46,0.4714,0.4714,0.4762,0.4876,0.4954,0.5041,0.5154,0.528,0.5404,0.5523,0.562,0.5787,2.5895,2.571,2.536,2.4661,2.429,2.3722,2.2269,2.1305,2.0519,1.9695,1.8571,1.7951,1.849,1.8478,1.8909,2.0488,2.1135,2.1741,2.2676,2.2792,2.2794,2.2807,2.1945,2.117,2.065,1.9426,1.8624,1.8511,1.76,1.709,1.7055,1.6639,1.6001,1.5163,1.4714,1.4269,1.3733,1.3572,1.3455,1.3346,1.3346,1.3309,1.32,1.32,1.3156,1.3083,1.3083,0.0,1.2783,1.2783,1.2709,1.2636,1.2636,1.254,1.2346,1.2203,1.1908,1.1526,1.0943,1.028,0.964,0.9078,0.8222,0.7396,0.7526,0.7661,0.7694,0.7591,0.7493,0.7363,0.7237,0.6957,0.6647,0.6593,0.6207,0.5841,0.5804,0.5742,0.5677,0.5755,0.57,0.565,0.565,0.5595,0.5553,0.5518,0.5304,0.5149,0.5116,0.4929,0.4757,0.4618,0.4596,0.4596,0.4596,0.4596,0.4596,0.4596,0.4727,0.4879,0.5053,0.5205,0.534,0.5512,0.562,0.5707,0.5777,0.5873,0.5959,0.6007,0.6194,0.6386,2.5895,2.5622,2.5196,2.4628,2.4104,2.3291,2.1778,2.0927,2.0161,1.9153,1.831,1.7862,1.8154,1.7843,1.8174,2.0054,2.0038,2.0416,2.2174,2.2453,2.2624,2.299,2.2545,2.1952,2.139,2.0331,1.9503,1.9009,1.8378,1.7764,1.7055,1.6334,1.56,1.4877,1.465,1.4229,1.3645,1.3637,1.3637,1.3637,1.3564,1.3572,1.3572,1.3528,1.3492,1.3492,1.3492,0.0,0.0,1.3389,1.3353,1.3287,1.3287,1.3126,1.2892,1.2826,1.2441,1.1956,1.1567,1.0992,1.0376,1.0212,0.9326,0.8301,0.8425,0.8598,0.8668,0.8528,0.8329,0.8136,0.7981,0.7583,0.7191,0.6908,0.6558,0.6248,0.6142,0.6191,0.6295,0.6448,0.6372,0.6226,0.6076,0.5857,0.5651,0.5569,0.5336,0.5162,0.5231,0.5106,0.4919,0.4709,0.4709,0.4727,0.4748,0.477,0.4814,0.4836,0.5053,0.527,0.548,0.5717,0.5932,0.6145,0.6285,0.6355,0.6371,0.645,0.6507,0.655,0.6768,0.6979,2.5895,2.5874,2.5622,2.4716,2.4104,2.3241,2.1386,1.9899,1.8742,1.821,1.7133,1.6435,1.6885,1.7026,1.7285,1.7905,1.9013,2.0155,2.1118,2.1948,2.2804,2.3691,2.3011,2.2531,2.2696,2.1342,2.0437,2.0581,1.9241,1.7872,1.6526,1.6156,1.5554,1.4653,1.4592,1.4439,1.4065,1.4021,1.4021,1.4021,1.3855,1.3754,1.3754,1.3572,1.3492,1.3492,1.3492,0.0,0.0,1.3053,1.2877,1.258,1.258,1.2558,1.2499,1.22,1.2054,1.1927,1.1478,1.108,1.0737,1.0737,1.0021,0.9212,0.9352,0.939,0.939,0.939,0.9066,0.8736,0.8699,0.8225,0.7553,0.6811,0.673,0.6771,0.6593,0.6783,0.7079,0.7331,0.7283,0.6972,0.6364,0.6247,0.5986,0.5268,0.5223,0.5221,0.5042,0.5021,0.4985,0.4963,0.5067,0.5171,0.5219,0.5345,0.5474,0.5588,0.569,0.5836,0.6114,0.6188,0.638,0.6641,0.6759,0.6865,0.6915,0.7055,0.7188,0.7307,0.7377,0.751,2.5382,2.5262,2.4956,2.4585,2.3886,2.2859,2.1266,1.9997,1.8886,1.8064,1.717,1.6556,1.6662,1.6652,1.6964,1.7957,1.8361,1.9044,2.0493,2.101,2.159,2.2522,2.2304,2.2185,2.245,2.1518,2.0682,2.012,1.9019,1.7955,1.6945,1.6288,1.5537,1.4621,1.4606,1.4438,1.4101,1.4093,1.4093,1.4093,1.4029,1.3928,1.3797,1.3717,1.3498,1.3206,1.3206,0.0,0.0,1.2716,1.2602,1.2485,1.2485,1.2368,1.2178,1.2047,1.1911,1.1736,1.1541,1.1404,1.1279,1.1279,1.1014,1.0629,1.0263,1.0168,1.0135,0.9924,0.9642,0.9339,0.9142,0.8613,0.7963,0.7404,0.7268,0.7268,0.7262,0.7423,0.7664,0.7984,0.7699,0.7298,0.6965,0.6493,0.6055,0.5705,0.5591,0.5517,0.543,0.542,0.542,0.542,0.5328,0.5345,0.5534,0.5701,0.5873,0.6044,0.6237,0.645,0.6662,0.6859,0.707,0.7307,0.7433,0.7517,0.753,0.7635,0.7718,0.7759,0.7793,0.7835,2.4847,2.4727,2.4371,2.4115,2.3269,2.2176,2.0937,1.9638,1.8531,1.7921,1.7127,1.6546,1.6578,1.6477,1.6765,1.7812,1.7812,1.8236,1.981,2.0141,2.0565,2.1487,2.1476,2.1556,2.2048,2.1535,2.0762,1.9738,1.9039,1.8313,1.7481,1.6807,1.598,1.5006,1.4962,1.4843,1.4597,1.4525,1.4489,1.4418,1.431,1.4137,1.3971,1.3935,1.3603,1.3149,1.3149,0.0,0.0,1.2446,1.2388,1.2299,1.2233,1.2094,1.1897,1.1897,1.1758,1.1591,1.1591,1.1591,1.1591,1.1591,1.1591,1.1483,1.0923,1.0739,1.0678,1.0338,1.0068,0.9809,0.9479,0.9002,0.8528,0.8113,0.799,0.7969,0.801,0.817,0.8382,0.8705,0.8313,0.7835,0.756,0.6913,0.6361,0.6124,0.5968,0.5884,0.5884,0.5911,0.5933,0.5933,0.5863,0.5836,0.5937,0.6167,0.6401,0.6613,0.6825,0.7021,0.7196,0.7433,0.7621,0.7787,0.7891,0.7953,0.7981,0.807,0.8144,0.8206,0.8255,0.8275,2.4327,2.4346,2.4017,2.3215,2.2158,2.111,2.027,1.8492,1.7173,1.7687,1.6786,1.6056,1.6525,1.6477,1.6529,1.6955,1.7409,1.8019,1.8984,1.9513,2.0145,2.101,2.0684,2.0767,2.1725,2.1393,2.0752,1.9876,1.9606,0.0,1.8032,1.7784,1.7088,1.5842,1.5806,1.5806,1.5762,1.5568,1.539,1.5169,1.4784,1.4533,1.4397,1.4201,1.3882,0.0,0.0,0.0,0.0,1.2375,1.2108,1.1786,1.1661,1.1599,1.1599,1.1599,1.1599,1.1591,1.1591,1.1591,1.1591,1.1591,1.1591,1.1533,1.121,1.1077,1.1011,1.0682,1.036,1.0004,0.9683,0.9491,0.9283,0.8883,0.889,0.8956,0.883,0.8995,0.9256,0.9536,0.9199,0.8693,0.8106,0.76,0.7058,0.6401,0.6295,0.6289,0.6289,0.6407,0.6498,0.6498,0.6795,0.6852,0.652,0.6795,0.7112,0.737,0.7447,0.7551,0.7691,0.7816,0.7933,0.8,0.8,0.807,0.8196,0.8332,0.8488,0.8695,0.8822,0.8932,2.2525,2.2681,2.2632,2.2392,2.179,2.1002,1.9878,1.8844,1.7999,1.7374,1.6916,1.6654,1.6606,1.6581,1.6652,1.6944,1.7399,1.7905,1.8516,1.9102,1.9656,2.0155,2.0607,2.085,2.0866,2.0695,2.04,1.9834,1.9308,1.8826,1.8381,1.8192,1.7638,1.6585,1.6559,1.6559,1.6559,1.6359,1.6044,1.5621,1.5346,1.4798,1.3995,1.3917,1.3504,0.0,0.0,0.0,0.0,1.2187,1.2032,1.1802,1.174,1.1685,1.1591,1.1591,1.1591,1.1591,1.1591,1.1591,1.1591,1.1591,1.1445,1.1195,1.0865,1.0924,1.099,1.0411,1.0016,0.9746,0.9736,0.9629,0.951,0.938,0.938,0.9406,0.9354,0.9498,0.9662,0.9836,0.9338,0.8811,0.8537,0.7891,0.7341,0.7083,0.7048,0.7048,0.7048,0.7091,0.7118,0.7118,0.7328,0.737,0.7139,0.7349,0.7579,0.7801,0.7835,0.7855,0.7904,0.7946,0.7979,0.8,0.8098,0.8167,0.8196,0.8467,0.8785,0.9119,0.9299,0.9439,2.1311,2.1378,2.1268,2.1226,2.0674,1.9975,1.9291,1.8591,1.7904,1.7406,1.7084,1.6881,1.6722,1.6627,1.6647,1.6823,1.7346,1.7833,1.8197,1.9023,1.9748,2.0094,2.0767,2.0938,2.0234,2.0327,2.0172,1.9585,1.914,1.8875,1.8741,1.864,1.8327,1.7765,1.7457,1.7329,1.7329,1.6905,1.6455,1.5999,1.5549,1.4916,1.4114,1.4114,1.3733,0.0,0.0,0.0,0.0,1.2574,1.2421,1.2243,1.2112,1.1996,1.1872,1.1809,1.1809,1.1872,1.1809,1.1809,1.1872,1.1809,1.1473,1.104,1.0684,1.0547,1.0441,1.0031,0.9801,0.9706,0.9766,0.9784,0.9751,0.9751,0.9751,0.9721,0.9595,0.9624,0.967,0.9642,0.9155,0.8716,0.8632,0.8099,0.7669,0.7635,0.7621,0.7621,0.7621,0.7663,0.7712,0.7712,0.7857,0.7919,0.7795,0.7899,0.8057,0.8247,0.8316,0.8357,0.837,0.837,0.837,0.837,0.8467,0.8496,0.8496,0.8918,0.931,0.9677,0.9884,1.0021,0.0,2.0469,2.0012,1.9887,1.9062,1.8326,1.8607,1.785,0.0,1.7673,1.727,1.6846,1.6807,1.6722,1.6637,1.6669,1.7269,1.7802,1.8018,1.9249,2.026,2.0646,2.1129,2.1026,1.9997,2.0218,2.0093,1.9256,1.9152,1.9142,1.9142,1.9142,1.9142,1.9142,1.8472,1.8056,1.8027,1.7269,1.6708,1.633,1.556,1.4991,1.4624,1.4624,1.441,0.0,0.0,0.0,0.0,1.345,1.3277,1.3042,1.2728,1.2482,1.2336,1.2212,1.2274,1.2336,1.2212,1.2274,1.2297,1.2097,1.1621,1.101,1.0603,1.0083,0.964,0.964,0.9732,0.9825,0.9825,0.9921,1.0025,1.0025,1.0025,0.9933,0.9591,0.9522,0.9416,0.9097,0.8761,0.8546,0.8546,0.8284,0.8062,0.8062,0.8062,0.8062,0.8062,0.816,0.8237,0.8237,0.8353,0.8435,0.8435,0.8435,0.8508,0.8704,0.8862,0.8972,0.9036,0.9056,0.9056,0.9056,0.9056,0.9076,0.9096,0.9617,1.0021,1.0341,1.0544,1.064,1.9364,0.0,1.9477,1.9438,1.9083,1.8679,0.0,1.8092,1.769,1.7468,1.7298,1.7127,1.6994,1.6927,1.6988,1.7265,1.7758,1.8225,1.8627,1.9581,2.036,2.0593,2.1225,2.1394,2.0776,2.0804,2.0635,2.0054,1.9684,1.9473,1.9473,1.9473,1.9473,1.9473,1.9185,1.8777,1.832,1.7958,1.7362,1.653,1.6188,1.5632,1.4908,1.4908,1.4723,0.0,0.0,0.0,1.4261,1.4231,1.4103,1.3885,1.3704,1.3312,1.2864,1.2964,1.2926,1.2864,1.2995,1.2926,1.2684,1.1653,1.1238,1.0992,1.0322,1.0008,0.9914,0.9914,0.9921,0.9973,1.0136,1.0213,1.0265,1.0368,1.0393,1.0265,0.9879,0.9808,0.9698,0.9369,0.9128,0.8976,0.9034,0.8847,0.87,0.8753,0.872,0.8659,0.8553,0.8561,0.8582,0.8582,0.87,0.881,0.8854,0.8712,0.8704,0.8915,0.9108,0.9288,0.945,0.9569,0.9608,0.9608,0.9658,0.9785,1.0,1.0293,1.0534,1.0764,1.0966,1.1099,1.8973,1.8986,1.8885,1.8961,1.8701,1.8363,1.8059,1.7718,1.7384,1.7199,1.7172,1.7172,1.7145,1.7262,1.7442,1.7602,1.8123,1.8785,1.9576,2.0189,2.0751,2.1183,2.1607,2.1703,0.0,2.1328,2.1052,2.0337,2.005,1.9839,1.9615,1.9605,1.9605,1.9605,1.9305,1.8943,1.8531,1.8058,1.7395,1.6603,1.6201,1.5714,1.5193,1.5193,1.5091,0.0,0.0,0.0,1.4913,1.4913,1.4815,1.4628,1.4392,1.4004,1.3554,1.3601,1.3593,1.3554,1.3601,1.3399,1.2953,1.2012,1.1559,1.1325,1.0751,1.0608,1.0506,1.0102,1.0076,1.0162,1.0265,1.0342,1.0354,1.0264,1.0216,1.0081,0.9565,0.943,0.935,0.8993,0.8928,0.896,0.9086,0.9091,0.9136,0.9259,0.9208,0.9096,0.8866,0.8886,0.8906,0.8846,0.8975,0.9136,0.9259,0.9319,0.9339,0.9359,0.9617,0.9854,1.004,1.0118,1.0167,1.0167,1.0186,1.0331,1.0582,1.0725,1.0916,1.1182,1.1354,1.1504,1.887,1.8766,1.8517,1.8657,1.8428,1.807,1.7779,1.7347,1.7038,1.7129,1.7093,1.7127,1.7366,1.764,1.7867,1.8008,1.8642,1.9415,2.0408,2.0804,2.123,2.1858,2.2085,0.0,2.1917,2.1778,2.1336,2.0557,2.0364,2.0098,1.9703,1.9671,1.9639,1.9564,1.9148,1.8807,1.8564,1.7854,1.7165,1.6566,1.6056,1.573,1.5555,1.5555,1.5555,1.5555,0.0,0.0,1.5555,1.5555,1.5507,1.5352,1.503,1.4697,1.4362,1.43,1.4321,1.4353,1.4168,1.3787,1.3296,1.2644,1.2197,1.1869,1.1515,1.1418,1.1242,1.0506,1.0385,1.0445,1.0445,1.0547,1.0543,1.0196,1.0067,0.9851,0.9231,0.9025,0.8888,0.8568,0.8651,0.8857,0.9047,0.9268,0.9478,0.9678,0.9648,0.9487,0.9168,0.9237,0.9277,0.9136,0.9319,0.9538,0.9746,1.005,1.0147,0.9991,1.0244,1.0496,1.0717,1.0717,1.0736,1.0736,1.0736,1.0812,1.1002,1.1048,1.1228,1.1522,1.1664,1.1789,1.8361,1.8745,1.8994,1.9038,1.9173,1.9232,1.8796,1.8242,1.7832,1.7832,1.7534,1.737,1.7813,1.7926,1.8242,1.9038,1.9574,1.9987,2.014,2.0925,2.1527,2.1645,0.0,2.2818,2.2818,2.2088,2.1566,2.1413,2.0618,2.0096,2.002,2.0009,1.9825,1.9444,1.9252,1.8769,1.7962,1.7539,1.704,1.642,1.6329,1.6288,1.6259,1.6259,1.6259,1.6259,0.0,1.6259,1.6259,1.6259,1.622,1.6192,1.597,1.5613,1.5235,1.5371,1.5332,1.5148,1.4735,1.4449,1.4101,1.2957,1.2543,1.239,1.2002,1.1884,1.185,1.1735,1.1435,1.115,1.115,1.115,1.1158,1.1099,1.082,1.0457,1.0018,0.9658,0.9308,0.8971,0.9068,0.9279,0.9469,0.9725,0.999,1.0244,1.0108,0.9922,0.9707,0.9784,0.9833,0.9687,0.9952,1.0235,1.0418,1.0649,1.0783,1.08,1.0821,1.0956,1.1271,1.129,1.1298,1.1373,1.1373,1.1392,1.141,1.1429,1.1504,1.1664,1.1741,1.1895,1.7946,1.835,1.8735,1.8843,1.9351,1.9737,1.9359,1.8687,1.8132,1.8243,1.8099,1.8031,1.8338,1.86,1.8973,1.966,2.0216,2.0533,2.0533,2.1144,2.1691,2.1953,0.0,2.263,2.263,2.2237,2.1767,2.1266,2.0784,0.0,2.0129,1.9867,1.9616,1.943,1.8835,1.8297,1.7795,1.737,1.6963,1.663,1.663,1.663,1.663,1.663,1.663,1.662,0.0,1.6506,1.6506,1.6431,1.6413,1.6374,1.6181,1.5902,1.5671,1.5768,1.559,1.5247,1.5049,1.4397,1.3585,1.2909,1.2559,1.2352,1.2163,1.2291,1.2486,1.254,1.2123,1.1685,1.1685,1.1685,1.1632,1.1443,1.1072,1.0658,1.0303,0.986,0.9512,0.9355,0.9527,0.9745,0.9952,1.0205,1.0467,1.0737,1.0708,1.0544,1.0264,1.0322,1.0341,1.0244,1.0476,1.0717,1.0909,1.108,1.1174,1.1201,1.122,1.1325,1.1563,1.1597,1.1649,1.1712,1.1796,1.1815,1.1815,1.1815,1.1918,1.2082,1.2113,1.2312,1.7544,1.7812,1.8186,1.8638,1.9395,1.9986,1.9711,1.9051,1.8546,1.881,1.8776,1.8794,1.8984,1.9311,1.9682,2.0053,2.0456,2.0697,2.0697,2.1112,2.1559,2.1931,2.2084,2.2149,2.2149,2.2051,2.1669,2.0949,2.0785,0.0,1.9965,1.9595,1.9289,1.9091,1.8381,1.7886,1.768,1.7272,1.6965,1.6818,1.6818,1.6818,1.6818,1.6818,1.6818,1.6779,1.6694,1.6637,1.6581,1.6477,1.6431,1.6374,1.622,1.6053,1.5845,1.5604,1.5292,1.4962,1.474,1.3917,1.2948,1.2754,1.2474,1.2227,1.2325,1.2649,1.2974,1.315,1.2832,1.2418,1.227,1.223,1.2156,1.1916,1.1434,1.0944,1.0712,1.0221,0.9835,0.9835,1.0011,1.0225,1.0419,1.064,1.0888,1.1139,1.1166,1.1069,1.0812,1.0848,1.0886,1.084,1.101,1.1209,1.14,1.1504,1.156,1.156,1.1522,1.156,1.1719,1.1833,1.192,1.2036,1.2204,1.2276,1.2282,1.2282,1.2372,1.2532,1.2567,1.282,1.7058,1.7089,1.7397,1.8596,1.9583,2.0201,1.9942,1.9608,1.9432,1.9889,1.9649,1.9475,1.9933,2.0042,2.0074,2.0107,2.014,2.0162,2.0162,2.0609,2.096,2.0993,2.1397,2.1647,2.1647,2.1266,2.0971,2.0905,0.0,0.0,1.9464,1.9409,1.9015,1.813,1.8043,1.7791,1.7333,1.7289,1.7127,1.6818,1.6818,1.6818,1.6818,1.6818,1.6818,1.6818,1.679,1.6722,1.6599,1.6581,1.6506,1.6413,1.6374,1.6115,1.5601,1.4744,1.4377,1.4233,1.3377,1.2993,1.2839,1.2449,1.2316,1.2367,1.2736,1.2958,1.3186,1.3624,1.3797,1.3716,1.3088,1.2876,1.2837,1.289,1.2253,1.1664,1.1764,1.1115,1.0525,1.0525,1.0592,1.0677,1.0821,1.0983,1.1145,1.1346,1.1384,1.1354,1.1263,1.142,1.1542,1.1542,1.1708,1.1872,1.2023,1.2041,1.2059,1.2059,1.1697,1.1586,1.1774,1.1986,1.2192,1.2443,1.265,1.2779,1.2829,1.2829,1.2881,1.2968,1.3067,1.3263,1.6705,1.68,1.7251,1.8204,1.8945,1.9532,1.9911,1.9704,1.9529,2.0009,1.9965,1.9802,1.9682,1.9911,2.0009,1.9715,2.0194,2.0587,2.0587,2.1002,2.1343,2.1343,2.1472,2.1507,2.12,2.1004,2.0774,2.0435,0.0,0.0,1.943,1.8862,1.8381,1.8021,1.7715,1.7492,1.7306,1.7306,1.725,1.7099,1.7099,1.7099,1.7099,1.7099,1.7099,1.7099,1.6976,1.6909,1.6842,1.6779,1.6705,1.6627,1.6332,1.5932,1.5432,1.479,1.4181,1.3624,1.3266,1.2762,1.2236,1.2088,1.2056,1.212,1.2583,1.2953,1.3336,1.3884,1.4033,1.3915,1.3586,1.3536,1.3559,1.3515,1.2861,1.2265,1.2318,1.1631,1.0966,1.0966,1.0993,1.1031,1.108,1.1193,1.1317,1.1384,1.1541,1.1675,1.1792,1.1975,1.2138,1.2216,1.2372,1.2496,1.2579,1.2596,1.2596,1.2596,1.2138,1.1968,1.224,1.2437,1.2476,1.2376,1.256,1.2497,1.2146,1.2533,1.2795,1.2958,1.3334,1.3698,1.6498,1.6601,1.696,1.759,1.8105,1.8677,1.9477,1.9638,1.9779,2.0293,2.0501,2.0489,2.0253,2.0342,2.0353,2.0009,2.0552,2.0997,2.0997,2.1218,2.1361,2.1293,2.1236,2.107,2.0664,2.0631,2.0435,1.9922,0.0,0.0,0.0,1.8359,1.7933,1.7781,1.7481,1.7306,1.7306,1.7323,1.7379,1.7418,1.7418,1.739,1.7306,1.7306,1.7306,1.7306,1.7145,1.7078,1.6983,1.6909,1.674,1.6531,1.5914,1.5367,1.4878,1.4092,1.3424,1.2839,1.2701,1.2222,1.1701,1.1839,1.1797,1.1818,1.2595,1.2968,1.3278,1.4003,1.4163,1.4104,1.3952,1.3962,1.3997,1.3928,1.3308,1.27,1.2785,1.2059,1.1426,1.1493,1.1493,1.1493,1.1493,1.1549,1.1615,1.1615,1.1851,1.2084,1.2294,1.2526,1.2708,1.2866,1.2965,1.3052,1.3096,1.3084,1.3084,1.3084,1.2761,1.2603,1.2726,1.2913,1.2859,1.2523,1.2726,1.2533,1.1947,1.2366,1.276,1.3101,1.3499,1.3953,1.6508,1.6413,1.647,1.6744,1.7158,1.7734,1.8529,1.9441,2.0271,2.0963,2.1375,2.1652,2.185,2.1535,2.1221,2.119,2.1221,2.1221,2.1221,2.1031,2.0839,2.0635,2.0496,2.0313,2.0118,2.0107,1.9911,1.942,0.0,0.0,0.0,1.7999,1.7781,1.7317,1.7306,1.7306,1.7306,1.7423,1.7562,1.7711,1.7711,1.7573,1.7306,1.7306,1.7306,1.7306,1.7306,1.7183,1.7011,1.7011,1.6648,1.6009,1.5059,1.4411,1.3805,1.2414,1.1902,1.1838,1.1363,1.1204,1.1278,1.1763,1.1584,1.1459,1.2882,1.3065,1.3,1.394,1.4303,1.4373,1.4246,1.4116,1.4033,1.4176,1.3542,1.2952,1.3172,1.2519,1.1945,1.2077,1.2113,1.2113,1.2113,1.2113,1.2113,1.2113,1.2347,1.2579,1.2785,1.304,1.3268,1.348,1.3514,1.3514,1.3514,1.3514,1.3514,1.3514,1.3514,1.3399,1.3216,1.3382,1.333,1.2982,1.318,1.3017,1.2481,1.2494,1.2849,1.351,1.3659,1.4068,1.6769,1.6927,1.7187,1.7771,1.8501,1.9168,1.9599,1.9638,1.9885,2.0897,2.1353,2.1588,2.1554,2.1692,2.1716,2.1378,2.172,2.1978,2.1978,2.1834,2.1596,2.1198,2.0924,2.0593,2.0151,1.9802,1.954,0.0,0.0,0.0,0.0,1.7682,1.7431,1.7306,1.7306,1.7306,1.7306,1.7518,1.7744,1.7968,1.8088,1.7936,1.7573,1.7479,1.7407,1.7306,1.7306,1.7278,1.7211,1.7211,1.6694,1.5823,1.5232,1.4255,1.3141,1.2393,1.1964,1.1746,1.1656,1.1656,1.1723,1.1961,1.1945,1.2035,1.3182,1.345,1.3582,1.4553,1.4846,1.488,1.4846,1.4811,1.4674,1.4292,1.363,1.316,1.3378,1.28,1.2294,1.2425,1.2526,1.2579,1.2579,1.2638,1.2667,1.2667,1.2854,1.3121,1.3455,1.3665,1.3818,1.3977,1.3993,1.401,1.4059,1.4059,1.4059,1.4059,1.4059,1.3759,1.309,1.3163,1.2858,1.2101,1.2198,1.1991,1.1449,1.2333,1.2955,1.3318,1.4195,1.4795,1.6981,1.7214,1.7537,1.8416,1.9119,1.9839,2.0707,2.0594,2.0549,2.1338,2.1753,2.2029,2.2066,2.2304,2.2414,2.2246,2.2485,2.2756,2.2804,2.2622,2.2329,2.1846,2.1514,2.1115,2.0593,2.0083,1.9705,0.0,0.0,0.0,0.0,1.7768,1.7629,1.7629,1.7629,1.7629,1.7629,1.7893,1.8182,1.8456,1.8548,1.8452,1.8193,1.7826,1.7423,1.6961,1.6787,1.671,1.6688,1.6492,1.5957,1.5192,1.4481,1.3565,1.2572,1.2082,1.1828,1.1752,1.1877,1.1993,1.2155,1.2497,1.2464,1.2534,1.3754,1.3988,1.4055,1.5097,1.539,1.539,1.539,1.5412,1.53,1.4709,1.4024,1.3572,1.3755,1.3238,1.2761,1.2918,1.3017,1.3082,1.3082,1.3109,1.3148,1.3148,1.3331,1.3598,1.3924,1.4059,1.416,1.4268,1.4284,1.4332,1.4461,1.4461,1.4477,1.4509,1.4509,1.4186,1.3479,1.3346,1.2807,1.1798,1.1861,1.1755,1.1474,1.23,1.3056,1.3746,1.4543,1.514,1.7097,1.7271,1.7544,1.8761,1.9343,2.009,2.1793,2.2002,2.1889,2.2144,2.2476,2.2793,2.3138,2.3198,2.3258,2.345,2.3522,2.3569,2.3695,2.3416,2.3058,2.2573,2.2249,2.1834,2.131,2.0754,2.0234,0.0,0.0,0.0,0.0,1.8193,1.8193,1.8166,1.8166,1.8166,1.8166,1.8506,1.8765,1.8994,1.9069,1.9069,1.8967,1.8294,1.7463,1.6545,1.6085,1.5851,1.5818,1.5362,1.486,1.4289,1.3335,1.2644,1.2149,1.1713,1.1686,1.1884,1.2084,1.2294,1.2591,1.3203,1.3113,1.3041,1.449,1.4675,1.4583,1.562,1.5898,1.5898,1.5898,1.5976,1.5944,1.539,1.4648,1.4114,1.4268,1.3748,1.3314,1.3514,1.356,1.356,1.356,1.3564,1.3564,1.3564,1.3778,1.399,1.4187,1.4268,1.4332,1.4397,1.4413,1.4495,1.4699,1.473,1.4763,1.4841,1.4856,1.4622,1.4084,1.3795,1.3149,1.206,1.2109,1.2211,1.2336,1.253,1.3282,1.4576,1.4826,1.5267,1.6958,1.7098,1.733,1.905,2.0167,2.1158,2.2433,2.2763,2.2823,2.2877,2.3143,2.3509,2.3806,2.3956,2.406,2.4102,2.4347,2.452,2.4536,2.435,2.4005,2.3564,2.3195,2.2643,2.1686,2.1136,0.0,0.0,0.0,0.0,1.8987,1.8975,1.8922,1.8801,1.8801,1.8801,1.8801,1.9095,1.9136,0.0,1.9508,1.9483,1.8921,1.8586,1.7974,1.7103,1.659,1.635,1.6316,1.583,1.513,1.4258,1.3615,1.2865,1.2116,1.2014,1.2131,1.2383,1.2579,1.2826,1.3069,1.3367,1.372,1.4149,1.4911,1.5405,1.583,1.6481,1.6671,1.6671,1.6671,1.6671,1.6684,1.6543,1.5553,1.4541,1.4275,1.3927,1.3711,1.3868,1.398,1.4043,1.4043,1.4092,1.4124,1.4124,1.4187,1.4235,1.4268,1.43,1.4332,1.4397,1.4449,1.4562,1.4763,1.492,1.5073,1.5179,1.5285,1.4862,1.3745,1.3897,1.3699,1.3087,1.3085,1.3189,1.3378,1.3987,1.4547,1.5058,1.5687,1.6078,1.6259,1.6546,1.6976,1.9127,2.0465,2.159,2.2729,2.3155,2.3289,2.3173,2.3482,2.3848,2.4144,2.4247,2.435,2.4507,2.4692,2.4806,2.4892,2.4494,2.4053,2.367,2.3137,2.2541,2.1822,2.1297,0.0,0.0,0.0,1.9747,1.9682,1.9682,1.9656,1.9591,1.9552,1.9552,1.9552,1.9484,1.9383,1.9276,1.9413,1.9199,1.8677,1.7945,1.7365,1.6863,1.5812,1.5346,1.5335,1.5123,1.4594,1.3885,1.3635,1.3111,1.2484,1.2455,1.2603,1.2903,1.332,1.3667,1.3998,1.4445,1.4817,1.5189,1.5741,1.6133,1.65,1.7042,1.7199,1.7199,1.7199,1.7233,1.7209,1.692,1.5944,1.505,1.4911,1.4411,1.4023,1.4111,1.4222,1.4303,1.4337,1.4447,1.4541,1.4541,1.4541,1.4541,1.4541,1.4541,1.4574,1.4671,1.4719,1.486,1.5149,1.527,1.5433,1.5682,1.5754,1.5523,1.4923,1.5063,1.4522,1.3196,1.354,1.3968,1.4422,1.4929,1.5449,1.5941,1.6407,1.6659,1.5473,1.6131,1.6949,1.9016,2.0335,2.1409,2.2491,2.3014,2.3193,2.3087,2.3543,2.4015,2.4145,2.4284,2.4439,2.4615,2.4658,2.4688,2.4692,2.4162,2.3688,2.34,2.2813,2.2322,2.1934,2.1468,0.0,0.0,0.0,2.041,2.0372,2.0372,2.0359,2.0334,2.0334,2.0283,2.0192,1.9814,1.9573,1.946,1.9038,1.8754,1.8575,1.726,1.6648,1.6556,1.5028,1.4426,1.451,1.4397,1.4165,1.39,1.3779,1.3494,1.3151,1.2973,1.3149,1.3534,1.4116,1.4556,1.5003,1.5643,1.5925,1.6099,1.6602,1.6835,1.7029,1.7498,1.7632,1.7632,1.7632,1.7706,1.7646,1.7153,1.6382,1.5721,1.5568,1.4851,1.4235,1.43,1.4399,1.4513,1.458,1.478,1.492,1.492,1.492,1.492,1.492,1.492,1.4966,1.509,1.5105,1.527,1.5638,1.5695,1.5854,1.6151,1.6191,1.6227,1.6238,1.6345,1.5472,1.3471,1.4126,1.4803,1.5459,1.5694,1.6162,1.6789,1.6968,1.7043,1.5038,1.6612,1.8083,1.8663,1.946,2.0322,2.1186,2.1581,2.1919,2.241,2.3428,2.4131,2.37,2.4216,2.4588,2.4106,2.4135,2.4014,2.3527,2.3351,2.327,2.3217,2.315,2.2868,2.2289,2.2168,0.0,0.0,2.1269,2.1204,2.1082,2.1082,2.1008,2.0885,2.0885,2.0671,2.0192,2.0136,1.9592,1.8574,1.8495,1.872,1.9148,1.7869,1.7247,1.714,1.599,1.5753,1.6115,1.5254,1.5149,1.5493,1.4642,1.4244,1.4146,1.3591,1.3869,1.4533,1.4669,1.5167,1.5769,1.5986,1.642,1.6853,1.6935,1.7378,1.7866,1.8042,1.8109,1.8109,1.8109,1.8109,1.8115,1.8033,1.7562,1.678,1.5539,1.4728,1.43,1.43,1.4592,1.4875,1.5013,1.524,1.5419,1.5419,1.5419,1.5419,1.5419,1.5419,1.5448,1.5507,1.558,1.571,1.594,1.6122,1.6272,1.6448,1.6607,1.6483,1.5975,1.657,1.6482,1.5609,1.5927,1.6228,1.6501,1.6642,1.6862,1.7149,1.7212,1.7261,1.4205,1.5689,1.7043,1.7751,1.8526,1.9345,2.0133,2.0665,2.1101,2.1487,2.2449,2.3235,2.3217,2.3513,2.3716,2.3541,2.3568,2.3499,2.3256,2.2917,2.2686,2.2686,2.2402,2.209,2.1805,2.1792,0.0,0.0,2.1399,2.1375,2.1326,2.1302,2.1302,2.1229,2.1229,2.0946,2.0378,2.0069,1.9301,1.811,1.8453,1.8545,1.8401,1.8171,1.7819,1.7291,1.6103,1.5756,1.6047,1.5899,1.5879,1.5922,1.5433,1.5078,1.4813,1.4505,1.4641,1.5069,1.5688,1.6177,1.6591,1.6967,1.7285,1.7508,1.7508,1.7784,1.8135,1.8313,1.8392,1.8411,1.8372,1.8392,1.8431,1.8431,1.8073,1.7598,1.7098,1.5994,1.5027,1.4833,1.5281,1.563,1.5462,1.5936,1.6203,1.5842,1.6098,1.6217,1.587,1.5867,1.5938,1.6037,1.6105,1.6229,1.6434,1.6528,1.6672,1.6876,1.698,1.6934,1.675,1.7052,1.7092,1.6793,1.6744,1.6815,1.6977,1.7163,1.7301,1.7434,1.7496,1.7531,1.3662,1.4766,1.5796,1.6699,1.7418,1.8143,1.8919,1.9557,2.011,2.0569,2.1353,2.2075,2.2469,2.2815,2.3029,2.2972,2.2971,2.2917,2.2768,2.2348,2.2074,2.2074,2.1656,2.1399,2.1399,0.0,0.0,0.0,2.1399,2.1399,2.1399,2.1399,2.1399,2.1399,2.1399,2.1047,2.0301,1.9605,1.8777,1.7916,1.835,1.8295,1.7754,1.8177,1.8032,1.7413,1.6303,1.5947,1.6182,1.6466,1.643,1.6179,1.6017,1.564,1.5186,1.4965,1.5117,1.5548,1.6337,1.6908,1.7324,1.7813,1.8003,1.8009,1.8043,1.8208,1.8411,1.8616,1.8745,1.8784,1.8693,1.8745,1.8803,1.875,1.8584,1.8384,1.8224,1.7132,1.6123,1.5896,1.6212,1.647,1.6412,1.683,1.707,1.6746,1.6978,1.7038,1.6614,1.6476,1.6472,1.6607,1.6709,1.6837,1.6993,1.7005,1.7105,1.7313,1.7349,1.7396,1.7514,1.7537,1.7554,1.7554,1.7349,1.7276,1.7337,1.7502,1.7607,1.7692,1.7738,1.7755,1.377,1.446,1.5109,1.5731,1.6104,1.6519,1.7329,1.7939,1.8651,1.9812,2.0398,2.0814,2.1225,2.2327,2.2986,2.2454,2.2359,2.2156,2.1562,2.1467,2.144,2.144,2.1412,2.1399,2.1399,0.0,0.0,0.0,2.1399,2.1399,2.1399,2.1399,2.1399,2.1399,2.1399,2.0857,1.9754,1.8574,1.797,1.7902,1.7929,1.7929,1.7882,1.7787,1.7719,1.7652,1.6936,1.6924,1.7363,1.6962,1.6779,1.6698,1.6266,1.5725,1.5131,1.4558,1.5074,1.6059,1.6127,1.6935,1.7981,1.8115,1.8234,1.8299,1.8425,1.8644,1.8898,1.9109,1.9254,1.9339,1.9203,1.9254,1.9339,1.9203,1.9409,1.925,1.793,1.7569,1.7526,1.7643,1.7334,1.7301,1.8129,1.7934,1.7876,1.8459,1.8049,1.7697,1.7789,1.7362,1.7097,1.7248,1.7432,1.7554,1.7566,1.7566,1.7584,1.7664,1.7726,1.78,1.7861,1.795,1.7972,1.7972,1.7961,1.7856,1.7676,1.7749,1.7845,1.7983,1.7922,1.7922,1.2478,1.3278,1.4046,1.4266,1.4991,1.5708,1.6099,1.7023,1.8023,1.8805,1.9573,2.0258,2.0833,2.1614,2.2092,2.1899,2.1931,2.1897,2.1691,2.1664,2.1664,2.1664,2.1664,2.1616,2.1544,0.0,0.0,0.0,0.0,2.1399,2.1399,2.1399,2.1399,2.1399,2.1399,2.0843,1.9714,1.8493,1.7902,1.7902,1.7902,1.7902,1.7902,1.7842,1.7821,1.7808,1.7571,1.7518,1.7611,1.7437,1.7437,1.7449,1.6886,1.6308,1.5752,1.5517,1.5481,1.563,1.6403,1.706,1.7645,1.8207,1.8519,1.8717,1.8903,1.918,1.9457,1.9612,1.9752,1.9818,1.9684,1.9752,1.9869,1.9945,2.0189,2.027,1.9823,1.9113,1.8506,1.83,1.8501,1.8717,1.8785,1.903,1.9181,1.9047,1.882,1.8554,1.8274,1.772,1.7415,1.7595,1.7749,1.7856,1.7856,1.7856,1.7889,1.7955,1.7977,1.802,1.8082,1.8121,1.8142,1.8194,1.8194,1.811,1.7966,1.8025,1.8089,1.8121,1.811,1.8131,1.1723,1.2478,1.3216,1.3259,1.3948,1.4739,1.5168,1.6093,1.7111,1.8135,1.8893,1.9649,2.0521,2.108,2.1458,2.164,2.1769,2.1864,2.1926,2.1926,2.1926,2.1926,2.1902,2.1793,2.1688,0.0,0.0,0.0,0.0,0.0,2.1399,2.1399,2.1399,2.1399,2.1019,2.0473,1.9714,1.8493,1.7902,1.7902,1.7902,1.7902,1.7902,1.7902,1.7902,1.7902,1.7902,1.7842,1.776,1.776,1.77,1.7563,1.7149,1.6653,1.6114,1.5928,1.5899,1.6021,1.6656,1.7287,1.7936,1.8546,1.8926,1.9207,1.9406,1.9675,1.9925,2.0052,2.0154,2.0204,2.0089,2.0154,2.0291,2.0562,2.0794,2.0974,2.1119,2.0415,1.9702,1.9452,1.9639,1.9842,1.9814,2.0062,2.0215,2.009,1.9691,1.9295,1.8983,1.8181,1.7738,1.7916,1.8074,1.8176,1.8176,1.8176,1.8197,1.8222,1.8222,1.8263,1.8318,1.832,1.8371,1.843,1.8467,1.8418,1.8325,1.8307,1.83,1.833,1.83,1.8348,0.0,0.0,0.0,1.2721,1.3036,1.3522,1.4508,1.5016,1.581,1.7734,1.836,1.8933,2.0129,2.0696,2.114,2.1698,2.1888,2.2067,2.2184,2.2208,2.2208,2.2208,2.2091,2.1973,2.1817,0.0,0.0,0.0,2.1423,2.1399,2.1399,2.1399,2.1385,2.1372,2.0297,1.9686,1.9673,1.8479,1.7902,1.7902,1.7902,1.7902,1.7902,1.7902,1.7902,1.7902,1.7902,1.7902,1.7902,1.7902,1.7563,1.7027,1.7027,1.669,1.6167,1.5665,1.6281,1.7325,1.6824,1.7651,1.8926,1.9151,1.9442,1.9762,1.9955,2.0148,2.0339,2.0393,2.0461,2.0478,2.0427,2.0477,2.0628,2.1006,2.1151,2.1294,2.1559,2.1356,2.1151,2.1215,2.0744,2.0574,2.1303,2.0978,2.0908,2.1678,2.0661,1.984,1.9968,1.8813,1.8065,1.8187,1.8396,1.853,1.853,1.8547,1.8565,1.8565,1.8565,1.8602,1.8659,1.8682,1.8721,1.8759,1.8832,1.8851,1.8833,1.8619,1.8544,1.8595,1.8544,1.8553,1.1086,0.0,0.0,0.0,0.0,0.0,1.3116,1.3956,1.4952,1.6031,1.7087,1.8093,1.9058,1.9888,2.0635,2.1261,2.1708,2.2091,2.2301,2.2347,2.237,2.2486,2.237,2.2254,2.2114,0.0,0.0,0.0,2.1544,2.1496,2.1423,2.1399,2.1196,2.0762,2.008,1.9483,1.9043,1.8282,1.7902,1.7902,1.7902,1.7902,1.7902,1.7902,1.7902,1.7902,1.7902,1.7929,1.7962,1.7909,1.7807,1.7658,1.7658,1.7388,1.6996,1.7048,1.7104,1.7254,1.7722,1.8314,1.8924,1.9501,1.9932,2.0239,2.0441,2.0577,2.0662,2.0695,2.0696,2.0712,2.0746,2.0844,2.099,2.1198,2.1371,2.1554,2.1766,2.1868,2.1851,2.1661,2.1498,2.1505,2.1847,2.1786,2.1619,2.1468,2.0671,1.993,1.9475,1.8667,1.8208,1.8406,1.8987,1.9391,1.9442,1.9964,2.0311,2.0311,2.0311,2.0339,2.0415,2.0459,2.0491,2.0515,2.0564,2.0323,1.974,1.9055,1.8732,1.876,1.8779,1.8797,1.111,1.118,1.1158,1.1185,0.0,0.0,1.2444,1.3125,1.3946,1.4856,1.5712,1.6642,1.7797,1.8495,1.9222,2.0125,2.0603,2.1259,2.2346,2.2523,2.2606,2.2706,2.2615,2.25,0.0,2.2184,2.1973,2.1712,2.164,2.1544,2.1423,2.1399,2.1114,2.0508,1.9985,1.9402,1.882,1.8201,1.7902,1.7902,1.7902,1.7902,1.7902,1.7902,1.7902,1.7902,1.7902,1.7969,1.8095,1.8135,1.8115,1.8055,1.8129,1.8079,1.7965,1.7945,1.8056,1.8231,1.8544,1.8989,1.9493,1.9965,2.0309,2.0544,2.0694,2.0794,2.0844,2.0909,2.0974,2.1039,2.1151,2.1246,2.1356,2.1586,2.1718,2.188,2.2144,2.2284,2.2295,2.2056,2.2058,2.2147,2.2284,2.2082,2.1801,2.155,2.0642,1.9854,1.9454,1.8767,1.85,1.8954,1.9454,1.9904,2.0301,2.0804,2.1092,2.1092,2.1092,2.1102,2.1133,2.1212,2.1255,2.1287,2.1354,2.1005,2.0228,1.966,1.9228,1.8923,1.8976,1.8984,1.1409,1.1298,1.1101,1.1176,1.1335,0.0,1.2174,1.2438,1.2904,1.3983,1.4363,1.4938,1.6404,1.6829,1.7345,1.8533,1.8957,1.9908,2.211,2.2552,2.2686,2.2843,2.2803,2.2712,2.2592,2.2347,2.2091,2.1817,2.1664,2.1544,2.1423,2.1331,2.1033,2.0437,1.9867,1.9315,1.8725,1.8174,1.7902,1.7922,1.7922,1.7942,1.7929,1.7963,1.7963,1.7963,1.7963,1.8083,1.8288,1.8475,1.8481,1.8378,1.8523,1.8736,1.8935,1.8607,1.9022,1.9725,1.9328,1.9713,2.0373,2.0427,2.0561,2.0726,2.0778,2.0844,2.0942,2.1119,2.1262,2.1402,2.1603,2.1664,2.1738,2.2084,2.2167,2.2268,2.2579,2.2646,2.2602,2.2412,2.2463,2.2555,2.2619,2.2138,2.1732,2.1695,2.063,1.9759,1.9601,1.9022,1.8911,1.9648,1.9939,2.0383,2.1184,2.1399,2.1494,2.1494,2.1494,2.1486,2.1488,2.1548,2.1626,2.1674,2.1668,2.1334,2.0691,2.0372,1.9857,1.9137,1.9137,1.9135,1.0912,1.0941,1.0975,1.1101,1.1271,0.0,1.1578,1.1751,1.2095,1.2814,1.3437,1.4136,1.5033,1.5726,1.6294,1.6807,1.7577,1.887,2.1077,2.1521,2.1863,2.2566,2.2546,2.2477,2.244,2.2301,2.2091,2.1817,2.1592,2.1423,2.1399,2.0938,2.0423,1.9876,1.9288,1.869,1.8079,1.7957,1.7929,1.7982,1.8089,1.8169,1.822,1.8327,1.838,1.838,1.838,1.8503,1.8702,1.8912,1.886,1.8726,1.8912,1.9157,1.9391,1.9549,1.986,2.0277,2.0422,2.0568,2.0712,2.0712,2.0745,2.0778,2.0794,2.0925,2.1119,2.1432,2.1645,2.1825,2.1953,2.2039,2.2139,2.2381,2.2544,2.2694,2.2829,2.2932,2.2977,2.2947,2.2786,2.2699,2.2829,2.2729,2.227,2.1161,2.0767,2.0156,1.8974,1.9195,1.957,1.9838,2.1028,2.1904,2.2117,2.2851,2.3292,2.3292,2.3298,2.3301,2.3283,2.3363,2.3394,2.3404,2.294,2.2639,2.2499,2.1109,2.0065,1.9335,1.9335,1.9342,1.0875,1.0851,1.0812,1.1044,1.1187,0.0,0.0,1.1496,1.1711,1.2068,1.2506,1.303,1.3717,1.4173,1.4668,1.5336,1.5932,1.7005,1.9022,2.0315,2.1257,2.1875,2.2163,0.0,2.1877,2.2002,2.1996,2.1722,2.152,2.1399,2.1399,2.083,2.0247,1.9714,1.9111,1.85,1.7916,1.7902,1.7983,1.8095,1.8274,1.8417,1.8553,1.8721,1.8812,1.8812,1.8812,1.8912,1.9109,1.931,1.942,1.9442,1.9442,1.9588,1.9836,2.007,2.0326,2.0561,2.0745,2.0827,2.086,2.0925,2.0974,2.1006,2.1039,2.1261,2.1539,2.182,2.2041,2.2215,2.2326,2.2381,2.245,2.2655,2.2773,2.2893,2.3033,2.3132,2.3217,2.3241,2.318,2.3082,2.302,2.2693,2.2205,2.1504,2.0743,2.0132,1.9797,1.9757,2.0101,2.1003,2.1524,2.2144,2.3019,2.3254,2.3517,2.3919,2.4008,2.4057,2.4057,2.4077,2.4096,2.4096,2.3833,2.3509,2.3152,2.2337,2.13,2.0085,1.9689,1.9496,1.0971,1.0844,1.0704,1.1073,1.1107,1.112,0.0,0.0,0.0,1.1608,1.1763,1.2024,1.2583,0.0,0.0,1.3947,0.0,0.0,0.0,1.8914,0.0,2.0971,2.1479,0.0,2.1254,2.1546,2.161,2.1274,2.1131,2.1084,2.1084,2.0537,2.003,1.9612,1.9041,1.8515,1.8023,1.8023,1.8123,1.8327,1.8528,1.8726,1.8917,1.9105,1.9213,1.9213,1.9213,1.9325,1.9479,1.9693,1.9922,2.0133,1.9962,2.0048,2.0237,2.0393,2.0561,2.0743,2.0778,2.0844,2.0926,2.0911,2.0989,2.1115,2.1385,2.169,2.201,2.2251,2.245,2.2605,2.2672,2.2699,2.2738,2.2906,2.2822,2.2768,2.2952,2.2941,2.2905,2.2956,2.3024,2.3108,2.3176,2.2682,2.2236,2.2077,2.0879,2.0213,2.0898,2.0461,2.0675,2.2207,2.1898,2.2197,2.3728,2.3287,2.3263,2.4108,2.4257,2.4321,2.4321,2.433,2.4339,2.4339,2.442,2.4155,2.3569,2.3475,2.2533,2.0825,2.0159,1.978,1.0923,1.0802,1.0807,1.1247,1.115,1.0956,1.1101,0.0,1.1432,1.1432,0.0,1.1767,1.1901,0.0,0.0,0.0,0.0,0.0,1.6106,1.7124,1.8315,1.9948,2.0207,0.0,0.0,2.0896,2.0626,2.0047,1.9944,1.9921,1.9983,1.9518,1.9266,1.9253,1.8785,1.8509,1.8439,1.8439,1.8523,1.8726,1.895,1.9139,1.9339,1.9545,1.9636,1.9636,1.9636,1.969,1.9762,1.996,2.015,2.0287,2.0321,2.0441,2.0627,2.066,2.0727,2.0794,2.0794,2.0925,2.0991,2.0395,2.0427,2.0831,2.1738,2.2122,2.2317,2.2638,2.2825,2.297,2.3033,2.3028,2.3057,2.3082,2.2586,2.2113,2.22,2.1753,2.138,2.1445,2.151,2.197,2.3226,2.3399,2.3097,2.236,2.1505,2.1019,2.1229,2.1177,2.1522,2.2562,2.2584,2.2943,2.3991,2.341,2.3372,2.4321,2.4383,2.4399,2.4399,2.4452,2.4478,2.4478,2.4594,2.4612,2.4534,2.3895,2.2679,2.097,2.0876,2.0464,1.0929,1.0825,1.0804,0.0,0.0,0.0,1.1063,0.0,1.1252,0.0,0.0,0.0,0.0,0.0,0.0,0.0,1.2632,0.0,0.0,0.0,1.6532,0.0,0.0,0.0,0.0,0.0,0.0,0.0,1.9405,1.9394,1.9897,1.9516,1.9335,1.949,1.9073,1.8851,1.8851,1.8851,1.895,1.9147,1.9347,1.9545,1.9759,1.9955,2.0045,2.0045,2.0045,2.0096,2.0148,2.0235,2.0373,2.0526,2.0559,2.0644,2.0777,2.0892,2.0974,2.1038,2.1071,2.1214,2.137,2.1238,2.1404,2.1743,2.2241,2.249,2.2638,2.285,2.2977,2.3052,2.3077,2.3107,2.2984,2.2558,2.2236,2.1902,2.1542,2.1693,2.1939,2.2052,2.2571,2.3176,2.3808,2.3384,2.3022,2.32,2.2152,2.1694,2.2724,2.2089,2.2063,2.3425,2.2777,2.2795,2.4164,2.3164,2.3062,2.4432,2.4545,2.4567,2.4567,2.4645,2.4676,2.4673,2.4776,2.4827,2.483,2.4506,2.3485,2.1809,2.1281,2.0627,1.1085,0.0,0.0,0.0,0.0,0.0,0.0,0.0,0.0,0.0,0.0,0.0,0.0,0.0,1.1815,1.2113,0.0,1.2872,0.0,1.4456,0.0,0.0,0.0,0.0,0.0,0.0,0.0,0.0,0.0,1.8836,1.9494,1.9341,1.9344,1.9588,1.9371,1.9269,1.9269,1.9269,1.9347,1.9512,1.969,1.9884,2.0025,2.0235,2.0321,2.0321,2.0356,2.0407,2.0491,2.0526,2.0644,2.081,2.0843,2.0925,2.1023,2.1119,2.1215,2.1309,2.1402,2.1441,2.1532,2.202,2.2194,2.2268,2.262,2.2777,2.2881,2.2977,2.307,2.3107,2.3107,2.2949,2.2663,2.213,2.1674,2.1315,2.1075,2.1486,2.2018,2.2372,2.3088,2.3702,2.3951,2.3465,2.3286,2.3901,2.2831,2.2465,2.3923,2.2941,2.2654,2.41,2.2869,2.2615,2.4308,2.3015,2.2817,2.4519,2.4684,2.4742,2.4742,2.4787,2.4832,2.4849,2.469,2.4598,2.4606,2.4359,2.3619,2.2436,2.1764,2.0921,0.0,0.0,0.0,1.1129,0.0,0.0,0.0,0.0,1.0956,0.0,0.0,0.0,0.0,0.0,1.1683,1.2218,1.235,0.0,0.0,0.0,0.0,0.0,0.0,0.0,0.0,0.0,0.0,0.0,0.0,0.0,1.8355,1.8653,1.8979,1.9294,1.956,1.969,1.969,1.969,1.9726,1.978,1.9919,2.0025,2.01,2.0304,2.0405,2.0405,2.0475,2.0577,2.071,2.0828,2.0958,2.1103,2.123,2.1403,2.1559,2.1372,2.1371,2.1524,2.1721,2.149,2.1292,2.2255,2.219,2.1876,2.273,2.2995,2.302,2.3082,2.3107,2.3107,2.3107,2.2575,2.2025,2.2008,2.0866,2.0023,2.0914,2.0712,2.067,2.1646,2.202,2.2439,2.3281,2.3888,2.4248,2.4284,2.3583,2.3378,2.4274,2.3652,2.3474,2.4296,2.2967,2.271,2.4441,2.3056,2.2832,2.4579,2.4757,2.4798,2.4798,2.4861,2.4924,2.4996,2.4233,2.3828,2.382,2.2991,2.2589,2.259,2.2423,2.1504,0.0,0.0,1.1356,1.1461,0.0,0.0,0.0,0.0,0.0,0.0,0.0,0.0,0.0,0.0,1.1869,1.2178,1.2212,1.2484,0.0,0.0,0.0,0.0,1.6213,1.6864,0.0,0.0,0.0,0.0,1.7535,0.0,0.0,1.8798,1.9176,1.9545,1.9904,2.0113,2.0113,2.0113,2.0113,2.0131,2.0183,2.0235,2.0304,2.0371,2.0424,2.0475,2.0494,2.0628,2.0844,2.1023,2.1198,2.137,2.1555,2.1738,2.1855,2.1676,2.1721,2.1868,2.2104,2.2149,2.2169,2.2546,2.2617,2.2626,2.2908,2.3033,2.3082,2.3077,2.3107,2.3119,2.3139,2.3011,2.2753,2.2251,2.1763,2.1415,2.136,2.1706,2.2154,2.2631,2.3324,2.391,2.4214,2.4436,2.4553,2.4553,2.387,2.3654,2.4484,2.3894,2.3715,2.4508,2.3161,2.2877,2.4529,2.4144,2.3859,2.39,2.4464,2.4569,2.4033,2.4627,2.4991,2.5069,2.4797,2.4409,2.3866,2.4156,2.3736,2.2681,2.326,2.288,1.2445,1.2051,0.0,1.1731,1.132,0.0,1.0982,0.0,1.1276,0.0,0.0,0.0,0.0,0.0,1.2117,1.2259,1.2241,1.2444,0.0,1.3952,0.0,0.0,1.5725,1.633,1.6932,1.719,1.7481,1.7888,1.7614,0.0,0.0,0.0,1.9384,1.978,2.0131,2.0304,2.0304,2.0321,2.0339,2.0339,2.0356,2.039,2.0441,2.0491,2.0543,2.0611,2.0678,2.0844,2.1103,2.1324,2.1508,2.1705,2.1901,2.2046,2.213,2.1984,2.207,2.2284,2.247,2.2592,2.2685,2.2777,2.2889,2.299,2.3033,2.307,2.3107,2.3107,2.3107,2.3132,2.3217,2.3088,2.2844,2.241,2.2156,2.201,2.1988,2.2493,2.3078,2.3575,2.4219,2.469,2.4706,2.4703,2.47,2.47,2.4257,2.4107,2.4625,2.4257,2.402,2.4257,2.3356,2.3156,2.4185,2.4569,2.4512,2.4005,2.4501,2.4586,2.4054,2.4654,2.5031,2.5095,2.4821,2.4423,2.3932,2.4204,2.3943,2.3201,2.3848,2.395]}]]